[[{"header":{"parameterUnit":"m.s-1","parameterCategory":1,"la1":30.6,"la2":29.2853,"lo1":-89.7004,"lo2":-87.6739,"dy":0.0162,"dx":0.0183,"nx":112,"ny":82,"refTime":"2023-09-30T12:00:00:Z","depth":0,"parameterNumber":2,"parameterNumberName":"U-component_of_WINDS"},"data":[0.0,0.0,0.0,0.0,0.0,0.0,0.0,0.0,0.0,0.0,0.0,0.0,0.0,0.0,0.0,0.0,0.0,0.0,0.0,0.0,0.0,0.0,0.0,0.0,0.0,0.0,0.0,0.0,0.0,0.0,0.0,0.0,0.0,0.0,0.0,0.0,0.0,0.0,0.0,0.0,0.0,0.0,0.0,0.0,0.0,0.0,0.0,0.0,0.0,0.0,0.0,0.0,0.0,0.0,0.0,0.0,0.0,0.0,0.0,0.0,0.0,0.0,0.0,0.0,0.0,0.0,0.0,0.0,0.0,0.0,0.0,0.0,0.0,0.0,0.0,0.0,0.0,0.0,0.0,0.0,0.0,0.0,0.0,0.0,0.0,0.0,0.0,0.0,0.0,0.0,-2.987,-3.198,-3.4553,-3.6001,-3.5545,-3.3595,-3.0266,-2.5277,0.0,0.0,0.0,0.0,0.0,0.0,0.0,0.0,0.0,0.0,0.0,0.0,0.0,0.0,0.0,0.0,0.0,0.0,0.0,0.0,0.0,0.0,0.0,0.0,0.0,0.0,0.0,0.0,0.0,0.0,0.0,0.0,0.0,0.0,0.0,0.0,0.0,0.0,0.0,0.0,0.0,0.0,0.0,0.0,0.0,0.0,0.0,0.0,0.0,0.0,0.0,0.0,0.0,0.0,0.0,0.0,0.0,0.0,0.0,0.0,0.0,0.0,0.0,0.0,0.0,0.0,0.0,0.0,0.0,0.0,0.0,0.0,0.0,0.0,0.0,0.0,0.0,0.0,0.0,0.0,0.0,0.0,0.0,0.0,0.0,0.0,0.0,0.0,0.0,0.0,0.0,0.0,0.0,0.0,0.0,0.0,0.0,0.0,0.0,0.0,0.0,0.0,0.0,0.0,-3.1292,-3.5219,-3.6843,-3.7365,-3.653,-3.4028,-3.1007,-2.7591,0.0,0.0,0.0,0.0,0.0,0.0,0.0,0.0,0.0,0.0,0.0,0.0,0.0,0.0,0.0,0.0,0.0,0.0,0.0,0.0,0.0,0.0,0.0,0.0,0.0,0.0,0.0,0.0,0.0,0.0,0.0,0.0,0.0,0.0,0.0,0.0,0.0,0.0,0.0,0.0,0.0,0.0,0.0,0.0,0.0,0.0,0.0,0.0,0.0,0.0,0.0,0.0,0.0,0.0,0.0,0.0,0.0,0.0,0.0,0.0,0.0,0.0,0.0,0.0,0.0,0.0,0.0,0.0,0.0,0.0,0.0,0.0,0.0,0.0,0.0,0.0,0.0,0.0,0.0,0.0,0.0,0.0,0.0,0.0,0.0,0.0,0.0,0.0,0.0,0.0,0.0,0.0,0.0,0.0,0.0,0.0,0.0,0.0,0.0,0.0,0.0,0.0,0.0,-3.1401,-3.3991,-3.6575,-3.7262,-3.7221,-3.6292,-3.4809,-3.2218,-2.8162,-2.652,0.0,0.0,0.0,0.0,0.0,0.0,0.0,0.0,0.0,0.0,0.0,0.0,0.0,0.0,0.0,0.0,0.0,0.0,0.0,0.0,0.0,0.0,0.0,0.0,0.0,0.0,0.0,0.0,0.0,0.0,0.0,0.0,0.0,0.0,0.0,0.0,0.0,0.0,0.0,0.0,0.0,0.0,0.0,0.0,0.0,0.0,0.0,0.0,0.0,0.0,0.0,0.0,0.0,0.0,0.0,0.0,0.0,0.0,0.0,0.0,0.0,0.0,0.0,0.0,0.0,0.0,0.0,0.0,0.0,0.0,0.0,0.0,0.0,0.0,0.0,0.0,0.0,0.0,0.0,0.0,0.0,0.0,0.0,0.0,0.0,0.0,0.0,0.0,0.0,0.0,0.0,0.0,0.0,0.0,0.0,0.0,0.0,0.0,0.0,0.0,0.0,0.0,-3.3785,-3.5476,-3.6855,-3.6985,-3.6749,-3.6148,-3.5322,-3.3007,-2.8806,-2.7538,0.0,0.0,0.0,0.0,0.0,0.0,0.0,0.0,0.0,0.0,0.0,0.0,0.0,0.0,0.0,0.0,0.0,0.0,0.0,0.0,0.0,0.0,0.0,0.0,0.0,0.0,0.0,0.0,0.0,0.0,0.0,0.0,0.0,0.0,0.0,0.0,0.0,0.0,0.0,0.0,0.0,0.0,0.0,0.0,0.0,0.0,0.0,0.0,0.0,0.0,0.0,0.0,0.0,0.0,0.0,0.0,0.0,0.0,0.0,0.0,0.0,0.0,0.0,0.0,0.0,0.0,0.0,0.0,0.0,0.0,0.0,0.0,0.0,0.0,0.0,0.0,0.0,0.0,0.0,0.0,0.0,0.0,0.0,0.0,0.0,0.0,0.0,0.0,0.0,0.0,0.0,0.0,0.0,0.0,0.0,0.0,0.0,0.0,0.0,0.0,0.0,0.0,-3.238,-3.4105,-3.6229,-3.6455,-3.6634,-3.7041,-3.4969,-3.2707,-3.0537,-2.7469,0.0,0.0,0.0,0.0,0.0,0.0,0.0,0.0,0.0,0.0,0.0,0.0,0.0,0.0,0.0,0.0,0.0,0.0,0.0,0.0,0.0,0.0,0.0,0.0,0.0,0.0,0.0,0.0,0.0,0.0,0.0,0.0,0.0,0.0,0.0,0.0,0.0,0.0,0.0,0.0,0.0,0.0,0.0,0.0,0.0,0.0,0.0,0.0,0.0,0.0,0.0,0.0,0.0,0.0,0.0,0.0,0.0,0.0,0.0,0.0,0.0,0.0,0.0,0.0,0.0,0.0,0.0,0.0,0.0,0.0,0.0,0.0,0.0,0.0,0.0,0.0,0.0,0.0,0.0,0.0,0.0,0.0,0.0,0.0,0.0,0.0,0.0,0.0,0.0,0.0,0.0,0.0,0.0,0.0,0.0,0.0,0.0,0.0,0.0,0.0,0.0,0.0,-3.339,-3.5429,0.0,-3.6405,-3.648,-3.6707,-3.4821,-3.2771,-3.0753,0.0,0.0,0.0,0.0,0.0,0.0,0.0,0.0,0.0,0.0,0.0,0.0,0.0,0.0,0.0,0.0,0.0,0.0,0.0,0.0,0.0,0.0,0.0,0.0,0.0,0.0,0.0,0.0,0.0,0.0,0.0,0.0,0.0,0.0,0.0,0.0,0.0,0.0,0.0,0.0,0.0,0.0,0.0,0.0,0.0,0.0,0.0,0.0,0.0,0.0,0.0,0.0,0.0,0.0,0.0,0.0,0.0,0.0,0.0,0.0,0.0,0.0,0.0,0.0,0.0,0.0,0.0,0.0,0.0,0.0,0.0,0.0,0.0,0.0,0.0,0.0,0.0,0.0,0.0,0.0,0.0,0.0,0.0,0.0,0.0,0.0,0.0,0.0,0.0,0.0,0.0,0.0,0.0,0.0,0.0,0.0,0.0,0.0,0.0,0.0,0.0,0.0,-3.0414,-3.3617,-3.5936,0.0,-3.6405,-3.6405,-3.6405,-3.4723,-3.2699,-3.0503,0.0,0.0,0.0,0.0,0.0,0.0,0.0,0.0,0.0,0.0,0.0,0.0,0.0,0.0,0.0,0.0,0.0,0.0,0.0,0.0,0.0,0.0,0.0,0.0,0.0,0.0,0.0,0.0,0.0,0.0,0.0,0.0,0.0,0.0,0.0,0.0,0.0,0.0,0.0,0.0,0.0,0.0,0.0,0.0,0.0,0.0,0.0,0.0,0.0,0.0,0.0,0.0,0.0,0.0,0.0,0.0,0.0,0.0,0.0,0.0,0.0,0.0,0.0,0.0,0.0,0.0,0.0,0.0,0.0,0.0,0.0,0.0,0.0,0.0,0.0,0.0,0.0,0.0,0.0,0.0,0.0,0.0,0.0,0.0,0.0,0.0,0.0,0.0,0.0,0.0,0.0,0.0,0.0,0.0,0.0,0.0,0.0,0.0,0.0,0.0,0.0,0.0,-2.9757,-3.2708,-3.5152,-3.6304,-3.6405,-3.643,-3.6383,-3.4628,-3.244,0.0,0.0,0.0,0.0,0.0,0.0,0.0,0.0,0.0,0.0,0.0,0.0,0.0,0.0,0.0,0.0,0.0,0.0,0.0,0.0,0.0,0.0,0.0,0.0,0.0,0.0,0.0,0.0,0.0,0.0,0.0,0.0,0.0,0.0,0.0,0.0,0.0,0.0,0.0,0.0,0.0,0.0,0.0,0.0,0.0,0.0,0.0,0.0,0.0,0.0,0.0,0.0,0.0,0.0,0.0,0.0,0.0,0.0,0.0,0.0,0.0,0.0,0.0,0.0,0.0,0.0,0.0,0.0,0.0,0.0,0.0,0.0,0.0,0.0,0.0,0.0,0.0,0.0,0.0,0.0,0.0,0.0,0.0,0.0,0.0,0.0,0.0,0.0,0.0,0.0,0.0,0.0,0.0,0.0,0.0,0.0,0.0,0.0,0.0,0.0,0.0,0.0,0.0,-2.9682,-3.3021,-3.573,-3.6835,-3.6935,-3.6573,-3.5648,-3.3541,-3.1113,-2.8466,0.0,0.0,0.0,0.0,0.0,0.0,0.0,0.0,0.0,0.0,0.0,0.0,0.0,0.0,0.0,0.0,0.0,0.0,0.0,0.0,0.0,0.0,0.0,0.0,0.0,0.0,0.0,0.0,0.0,0.0,0.0,0.0,0.0,0.0,0.0,0.0,0.0,0.0,0.0,0.0,0.0,0.0,0.0,0.0,0.0,0.0,0.0,0.0,0.0,0.0,0.0,0.0,0.0,0.0,0.0,0.0,0.0,0.0,0.0,0.0,0.0,0.0,0.0,0.0,0.0,0.0,0.0,0.0,0.0,0.0,0.0,0.0,0.0,0.0,0.0,0.0,0.0,0.0,0.0,0.0,0.0,0.0,0.0,0.0,0.0,0.0,0.0,0.0,0.0,0.0,0.0,0.0,0.0,0.0,0.0,0.0,0.0,0.0,0.0,0.0,0.0,0.0,-2.8827,-3.2509,-3.5424,-3.6308,-3.6555,-3.6233,-3.5296,-3.2886,-3.0511,-2.8365,0.0,0.0,0.0,0.0,0.0,0.0,0.0,0.0,0.0,0.0,0.0,0.0,0.0,0.0,0.0,0.0,0.0,0.0,0.0,0.0,0.0,0.0,0.0,0.0,0.0,0.0,0.0,0.0,0.0,0.0,0.0,0.0,0.0,0.0,0.0,0.0,0.0,0.0,0.0,0.0,0.0,0.0,0.0,0.0,0.0,0.0,0.0,0.0,0.0,0.0,0.0,0.0,0.0,0.0,0.0,0.0,0.0,0.0,0.0,0.0,0.0,0.0,0.0,0.0,0.0,0.0,0.0,0.0,0.0,0.0,0.0,0.0,0.0,0.0,0.0,0.0,0.0,0.0,0.0,0.0,0.0,0.0,0.0,0.0,0.0,0.0,0.0,0.0,0.0,0.0,0.0,0.0,0.0,0.0,0.0,0.0,0.0,0.0,0.0,0.0,0.0,0.0,-2.7753,-3.1592,-3.4499,-3.5044,-3.5439,-3.5482,-3.4987,-3.2515,-3.0393,-2.8948,0.0,0.0,0.0,0.0,0.0,0.0,0.0,0.0,0.0,0.0,0.0,0.0,0.0,0.0,0.0,0.0,0.0,0.0,0.0,0.0,0.0,0.0,0.0,0.0,0.0,0.0,0.0,0.0,0.0,0.0,0.0,0.0,0.0,0.0,0.0,0.0,0.0,0.0,0.0,0.0,0.0,0.0,0.0,0.0,0.0,0.0,0.0,0.0,0.0,0.0,0.0,0.0,0.0,0.0,0.0,0.0,0.0,0.0,0.0,0.0,-3.2046,0.0,0.0,0.0,0.0,0.0,0.0,0.0,0.0,0.0,0.0,0.0,0.0,0.0,0.0,0.0,0.0,0.0,0.0,0.0,0.0,0.0,0.0,0.0,0.0,0.0,0.0,0.0,0.0,0.0,0.0,0.0,0.0,0.0,0.0,0.0,0.0,0.0,0.0,0.0,0.0,0.0,-2.8696,-3.1502,-3.3611,-3.4494,-3.4622,-3.4218,-3.3106,-3.1795,-3.015,-2.8105,-2.6343,0.0,0.0,0.0,0.0,0.0,0.0,0.0,0.0,0.0,0.0,0.0,0.0,0.0,0.0,0.0,0.0,0.0,0.0,0.0,0.0,0.0,0.0,0.0,0.0,0.0,0.0,0.0,0.0,0.0,0.0,0.0,0.0,0.0,0.0,0.0,0.0,0.0,0.0,0.0,0.0,0.0,0.0,0.0,0.0,0.0,0.0,0.0,0.0,0.0,0.0,0.0,0.0,0.0,0.0,0.0,0.0,0.0,0.0,0.0,0.0,-3.0877,0.0,0.0,0.0,0.0,0.0,0.0,0.0,0.0,0.0,0.0,0.0,0.0,0.0,0.0,0.0,0.0,0.0,0.0,0.0,0.0,0.0,0.0,0.0,0.0,0.0,0.0,0.0,0.0,0.0,0.0,0.0,0.0,0.0,0.0,0.0,0.0,0.0,0.0,0.0,0.0,-2.7392,-3.0362,-3.2661,-3.3378,-3.366,-3.3372,-3.2496,-3.1306,-2.9924,-2.8384,-2.6872,0.0,0.0,0.0,0.0,0.0,0.0,0.0,0.0,0.0,0.0,0.0,0.0,0.0,0.0,0.0,0.0,0.0,0.0,0.0,0.0,0.0,0.0,0.0,0.0,0.0,0.0,0.0,0.0,0.0,0.0,0.0,0.0,0.0,0.0,0.0,0.0,0.0,0.0,0.0,0.0,0.0,0.0,0.0,0.0,0.0,0.0,0.0,0.0,0.0,0.0,0.0,0.0,0.0,-3.0397,-3.0276,-3.0066,-3.0066,-2.9505,-2.8641,-3.0241,-2.997,-2.8488,-2.9591,0.0,0.0,0.0,0.0,0.0,0.0,0.0,0.0,0.0,0.0,0.0,0.0,0.0,0.0,0.0,0.0,0.0,0.0,0.0,0.0,0.0,0.0,0.0,0.0,-2.334,-2.3904,-2.5959,0.0,0.0,0.0,0.0,0.0,0.0,0.0,0.0,0.0,0.0,0.0,-2.5888,-2.9155,-3.1594,-3.2058,-3.2473,-3.2535,-3.2162,-3.0954,-2.9863,-2.9082,-2.7656,-2.6543,0.0,0.0,0.0,0.0,0.0,0.0,0.0,0.0,0.0,0.0,0.0,0.0,0.0,0.0,0.0,0.0,0.0,0.0,0.0,0.0,0.0,0.0,0.0,0.0,0.0,0.0,0.0,0.0,0.0,0.0,0.0,0.0,-2.6789,-2.6869,0.0,0.0,0.0,0.0,0.0,0.0,0.0,0.0,0.0,0.0,0.0,0.0,0.0,-2.8907,-2.9389,-3.0551,-3.1014,-3.0746,-3.219,-3.2675,-3.2288,-3.2288,-3.1492,-3.0009,-2.9412,0.0,-2.864,-2.9333,0.0,0.0,0.0,0.0,0.0,0.0,0.0,0.0,0.0,0.0,0.0,0.0,0.0,0.0,0.0,0.0,0.0,0.0,0.0,0.0,0.0,0.0,-2.4067,-2.4179,-2.4454,-2.4941,0.0,-2.5017,-2.4459,-2.6481,-2.6777,0.0,0.0,0.0,0.0,0.0,0.0,0.0,-2.6848,-2.8709,-3.0201,-3.0993,-3.1131,-3.1131,-3.1072,-3.0545,-3.0,-2.9512,-2.8926,-2.7891,-2.6367,-2.7305,0.0,0.0,0.0,0.0,0.0,0.0,0.0,0.0,0.0,0.0,0.0,0.0,0.0,0.0,0.0,0.0,0.0,0.0,0.0,0.0,0.0,0.0,0.0,0.0,0.0,0.0,0.0,0.0,0.0,-2.9654,-2.9391,-2.9996,-2.9529,-2.9123,0.0,0.0,0.0,0.0,0.0,0.0,0.0,0.0,0.0,-2.6886,-2.7789,-2.7964,-2.7229,-2.8326,-2.891,-2.9064,-2.9793,-3.0167,-3.0211,-3.0211,-2.9794,-2.9102,-2.8627,-2.8253,-2.79,-2.8304,-2.8201,-2.7761,0.0,0.0,0.0,0.0,-2.5374,-2.5478,-2.4495,-2.4363,-2.4638,-2.5101,0.0,0.0,0.0,0.0,0.0,0.0,0.0,0.0,0.0,0.0,-2.3413,-2.3148,-2.34,-2.4084,-2.5206,-2.4342,-2.3748,0.0,-2.6343,-2.6525,-2.4124,0.0,0.0,0.0,0.0,-2.6792,-2.7402,-2.8937,-3.0176,-3.082,-3.0898,-3.0898,-3.0898,-3.0703,-3.0391,-2.9961,-2.9531,-2.8446,-2.6648,-2.6892,-2.589,0.0,0.0,0.0,0.0,0.0,0.0,0.0,0.0,0.0,0.0,0.0,0.0,0.0,0.0,0.0,0.0,0.0,0.0,0.0,0.0,0.0,0.0,0.0,0.0,0.0,0.0,0.0,0.0,-3.0662,-3.0374,-3.0591,-2.982,-2.9227,0.0,0.0,0.0,0.0,0.0,0.0,-2.7348,-2.8248,-2.8095,-2.6471,-2.7402,-2.7409,-2.6413,-2.7068,-2.7575,-2.7936,-2.7936,-2.8003,-2.8221,-2.8221,-2.8221,-2.8221,-2.8221,-2.798,-2.7539,-2.7417,-2.704,-2.6653,-2.7137,-2.6982,-2.6246,-2.5375,-2.503,-2.4875,-2.3954,-2.3785,-2.4137,-2.4444,-2.4268,-2.3961,-2.4123,0.0,0.0,0.0,0.0,-2.3006,-2.2096,-2.2352,-2.2695,-2.2133,-2.2378,-2.2998,-2.3937,-2.3569,-2.3336,0.0,-2.5775,-2.5906,-2.3024,0.0,0.0,0.0,0.0,-2.7767,-2.7812,-2.9219,-3.0371,-3.084,-3.0898,-3.0898,-3.0898,-3.0898,-3.0703,-3.0234,-2.9543,-2.8389,-2.6751,-2.602,-2.481,-2.3015,0.0,0.0,0.0,0.0,0.0,0.0,0.0,0.0,0.0,0.0,0.0,0.0,0.0,0.0,0.0,0.0,0.0,0.0,0.0,0.0,0.0,0.0,0.0,0.0,0.0,0.0,0.0,0.0,0.0,-2.4809,-2.6992,0.0,0.0,0.0,0.0,-2.7887,-2.8429,-2.8373,-2.7364,-2.7762,-2.7903,-2.762,-2.7714,-2.8073,-2.8858,-2.8911,-2.8804,-2.8564,-2.8564,-2.8417,-2.8221,-2.8221,-2.8221,-2.8221,-2.8221,-2.8207,-2.8087,-2.6894,-2.7108,-2.791,-2.5878,-2.6039,-2.7016,-2.4005,-2.3396,-2.3898,-2.2871,-2.2727,-2.3211,-2.4609,-2.4943,-2.4561,-2.3234,-2.3455,0.0,0.0,-2.2275,-2.2413,-2.1122,-2.1424,-2.2082,-2.1977,-2.2218,-2.2365,-2.2203,-2.2441,-2.3444,0.0,-2.5215,-2.4244,-2.4031,0.0,-2.4932,-2.3987,-2.6069,-2.7865,-2.8203,-2.9394,-3.0371,-3.084,-3.0898,-3.0898,-3.0898,-3.0898,-3.0703,-3.0234,-2.876,-2.7528,-2.6751,-2.5201,-2.4334,-2.4227,-2.3059,0.0,0.0,0.0,0.0,0.0,0.0,0.0,0.0,0.0,0.0,0.0,0.0,0.0,0.0,0.0,0.0,0.0,0.0,0.0,0.0,0.0,0.0,0.0,0.0,0.0,0.0,0.0,0.0,-2.9032,-2.8847,0.0,-2.893,-2.8557,-2.819,-2.777,-2.7969,-2.8095,-2.7889,-2.822,-2.8317,-2.827,-2.8283,-2.843,-2.8764,-2.8764,-2.8804,-2.8885,-2.8497,-2.835,-2.843,-2.8315,-2.8221,-2.8221,-2.8221,-2.8221,-2.8167,-2.7281,-2.7107,-2.7181,-2.6054,-2.5646,-2.5499,-2.4595,-2.4218,-2.4037,-2.3668,-2.3514,-2.3407,-2.3166,-2.293,-2.2655,-2.1908,-2.1914,-2.2096,-2.1505,-2.152,-2.1562,-2.1074,-2.1323,-2.1815,-2.1937,-2.2071,-2.2164,-2.2245,-2.21,-2.2223,-2.3119,-2.393,-2.4069,-2.2748,-2.4266,-2.5246,-2.3808,-2.5285,-2.6561,-2.6381,-2.7,-2.7593,-2.7734,-2.7751,-2.7751,-2.7751,-2.7582,-2.7446,-2.7229,-2.6232,-2.5091,-2.3852,-2.3001,-2.2109,-2.1162,-2.0715,-2.0567,0.0,0.0,0.0,0.0,0.0,0.0,0.0,0.0,0.0,0.0,0.0,0.0,0.0,0.0,0.0,0.0,0.0,0.0,0.0,0.0,0.0,0.0,0.0,0.0,0.0,-2.8122,-2.8862,-3.002,-2.9428,-2.9172,-2.9844,-2.8906,-2.8335,-2.8335,-2.8221,-2.8323,-2.8724,-2.8845,-2.8951,-2.9045,-2.9152,-2.9152,-2.9045,-2.9152,-2.9192,-2.9179,-2.8684,-2.8497,-2.8591,-2.8283,-2.8114,-2.7939,-2.814,-2.8114,-2.7913,-2.7535,-2.7241,-2.6907,-2.6226,-2.5531,-2.4943,-2.5037,-2.477,-2.4342,-2.4235,-2.4075,-2.3754,-2.2766,-2.2311,-2.2098,-2.179,-2.1697,-2.1697,-2.1697,-2.163,-2.155,-2.155,-2.1697,-2.1871,-2.1964,-2.1991,-2.2004,-2.2111,-2.151,-2.1042,-2.1349,-2.2562,-2.2961,-2.1246,-2.3078,-2.4333,-2.3324,-2.4168,-2.4959,-2.5105,-2.5285,-2.536,-2.536,-2.5747,-2.5984,-2.5984,-2.5542,-2.5369,-2.5542,-2.4301,-2.3152,-2.2223,-2.1158,-2.016,-1.9269,-1.9025,-1.896,-1.9088,0.0,0.0,0.0,0.0,0.0,0.0,0.0,0.0,0.0,0.0,0.0,0.0,0.0,0.0,0.0,0.0,0.0,0.0,0.0,0.0,0.0,0.0,0.0,-2.6129,-2.835,-2.9077,-2.7109,-2.8457,-2.9285,-2.8711,-2.9179,-2.9526,-2.9513,-2.9259,-2.9352,-2.9913,-2.9673,-2.9633,-2.99,-3.0194,-3.0194,-2.9887,-3.0207,-3.0074,-2.9499,-2.9192,-2.8898,-2.8604,-2.8297,-2.7926,-2.7321,-2.798,-2.7899,-2.7308,-2.7589,-2.7535,-2.7188,-2.6319,-2.5798,-2.5491,-2.5197,-2.489,-2.4583,-2.4275,-2.4182,-2.4075,-2.35,-2.33,-2.3247,-2.2926,-2.2832,-2.2832,-2.2832,-2.2632,-2.2405,-2.2405,-2.2405,-2.2338,-2.2071,-2.1991,-2.1911,-2.1708,-2.0681,-2.012,-2.0975,-2.1122,-2.0855,-1.9987,-2.1144,-2.2295,-2.2565,-2.2761,0.0,-2.4455,-2.4309,-2.4111,-2.4111,-2.5109,-2.5813,-2.5863,-2.5036,-2.4762,-2.5314,-2.3053,-2.185,-2.2092,-1.978,-1.8651,-1.8931,-1.8302,-1.8196,-1.849,0.0,0.0,0.0,0.0,0.0,0.0,0.0,0.0,0.0,0.0,0.0,0.0,0.0,0.0,0.0,0.0,0.0,0.0,0.0,0.0,0.0,-2.4369,-2.5725,-2.6328,-2.7368,-2.8276,-2.9011,-2.9686,-3.006,-2.9887,-3.0221,-3.0341,-3.014,-3.0434,-3.0608,-3.0555,-3.0274,-2.9967,-2.9619,-2.9887,-2.9793,-2.9285,-2.9993,-3.0167,-2.9793,-2.9499,-2.9205,-2.8911,-2.8617,-2.827,-2.7993,-2.8154,-2.814,-2.798,-2.7749,-2.7655,-2.7509,-2.6841,-2.6279,-2.5798,-2.5504,-2.4943,-2.4249,-2.3741,-2.3567,-2.35,-2.3113,-2.2846,-2.2605,-2.2311,-2.2231,-2.2231,-2.2231,-2.2164,-2.2111,-2.2111,-2.2111,-2.2138,-2.2271,-2.2138,-2.2017,-2.2151,-2.1764,-2.1456,-2.1697,-2.1577,-2.1283,-2.0828,-2.1107,-2.1444,-2.1544,-2.1552,0.0,-2.208,-2.2011,-2.1939,-2.1939,-2.1701,-2.1772,-2.2395,-2.1444,-2.1102,-2.1612,-2.0844,-2.0302,-2.0164,-1.954,-1.9158,-1.9239,-1.8664,-1.841,0.0,0.0,0.0,0.0,0.0,0.0,0.0,0.0,0.0,0.0,0.0,0.0,0.0,0.0,0.0,0.0,0.0,0.0,0.0,0.0,0.0,0.0,-2.5358,-2.6827,-2.7575,-2.7869,-2.8524,-2.994,-3.0368,-3.0635,-3.0889,-3.0955,-3.0955,-3.0915,-3.1102,-3.1263,-3.1343,-3.1183,-3.0768,-3.006,-3.0555,-3.0381,-2.9419,-3.0287,-3.0568,-3.0274,-2.986,-2.9579,-2.9392,-2.8845,-2.843,-2.8221,-2.8221,-2.8154,-2.7949,-2.7909,-2.7816,0.0,0.0,0.0,0.0,0.0,-2.501,-2.4489,-2.3901,-2.3701,-2.3647,-2.334,-2.3126,-2.2953,-2.2779,-2.2472,-2.2164,-2.2164,-2.1897,-2.171,-2.2071,-2.2164,-2.2271,-2.2699,-2.2565,-2.2365,-2.2405,-2.1897,-2.155,-2.1911,-2.155,0.0,-2.1443,-2.0962,-2.0611,-2.0759,-2.0191,-1.9991,-2.051,-2.0435,-2.0374,-2.0374,-2.0361,-2.0561,-2.1069,-2.0147,0.0,0.0,0.0,-1.9439,-1.9011,-1.9118,0.0,0.0,0.0,-1.8611,-1.8851,0.0,0.0,0.0,-1.8437,-1.8343,0.0,0.0,0.0,0.0,0.0,0.0,0.0,0.0,0.0,0.0,0.0,0.0,0.0,0.0,0.0,0.0,-2.6148,-2.7573,-2.8974,-2.9176,-2.9499,-3.0354,-3.0715,-3.1116,-3.1664,-3.1476,-3.145,-3.1744,-3.153,-3.1597,-3.2131,0.0,0.0,0.0,0.0,-3.141,-3.0074,-3.0875,-3.1129,-3.0835,-3.0314,-3.0007,-2.9887,-2.9152,-2.8604,-2.8328,-2.8328,-2.7985,-2.7469,-2.7706,-2.7446,-2.6882,-2.6593,-2.6427,-2.6293,-2.5132,-2.4891,-2.505,-2.4449,0.0,0.0,-2.3955,-2.3821,-2.3768,-2.3768,-2.3207,-2.2565,-2.2565,-2.2004,-2.159,-2.2365,-2.2565,-2.2712,-2.3247,-2.314,-2.2846,-2.2579,-2.1683,-2.1149,-2.1937,-2.143,-2.1122,-2.1897,-2.0922,-2.0128,-2.0469,-1.9362,-1.8864,-1.999,-1.9903,-1.9666,-1.9666,0.0,0.0,-2.1149,-2.0347,-2.008,-2.0641,-1.992,-1.9225,-1.8704,-1.8931,-1.8691,-1.7903,-1.841,-1.8945,-1.9466,-1.9466,-1.9628,-1.995,-1.907,-1.9105,0.0,0.0,0.0,0.0,0.0,0.0,0.0,0.0,0.0,0.0,0.0,0.0,0.0,0.0,0.0,-2.3908,-2.6465,-2.8256,-2.7245,-2.8834,-3.0341,-3.0982,-3.1316,-3.1637,-3.1984,-3.1971,-3.2051,-3.2358,-3.2318,-3.2345,-3.2452,-3.2238,-3.1917,-3.1517,-3.1664,-3.1503,-3.0982,-3.1383,-3.1436,-3.1142,0.0,0.0,-2.9913,-2.9993,-2.9606,-2.8871,-2.8871,-2.7637,-2.5602,-2.5446,-2.4102,-2.2308,-2.3797,-2.5213,-2.6069,-2.3528,-2.378,-2.5344,-2.4756,-2.4556,-2.4543,-2.4489,-2.4155,-2.3768,-2.3768,-2.3647,0.0,-2.3514,-2.3394,-2.33,-2.346,-2.3514,-2.3541,-2.3661,-2.346,-2.322,-2.3166,-2.2779,-2.2485,-2.2659,-2.2365,-2.2138,-2.2311,-2.1911,-2.1625,-2.1642,-2.1447,-2.1343,-2.1533,-2.1555,-2.1483,-2.1483,-2.1042,-2.0949,-2.1494,-2.0655,-2.0307,-2.0655,-2.0294,-2.0013,-1.9893,-1.9947,-1.9893,-1.972,-1.984,-1.9947,-2.0067,-2.0067,-1.9498,-1.8553,-1.943,-1.9987,0.0,0.0,0.0,0.0,0.0,0.0,0.0,0.0,0.0,0.0,0.0,-2.2769,-2.298,0.0,-2.2784,-2.2299,-2.4105,-2.5513,-2.5163,-2.6246,-2.7712,-2.9198,-2.9537,-2.9775,-3.0188,-3.0226,-3.0887,-3.2434,-3.2679,-3.2759,-3.2759,-3.1454,-3.0401,-2.9838,-2.88,-2.793,-2.7203,-2.7672,-2.7731,-2.7569,-2.7344,-2.7017,-2.6513,-2.6385,-2.6115,-2.5741,-2.5483,-2.4669,-2.3468,-2.3097,-2.2192,-2.0964,-2.0853,-2.1881,-2.3133,-2.1497,-2.1558,-2.2525,-2.2,-2.1744,-2.1714,-2.1714,-2.1456,-2.1214,-2.1214,-2.0871,-2.071,-2.1731,-2.1715,-2.1698,-2.321,-2.3554,-2.3621,-2.3915,-2.3875,-2.3728,-2.3581,-2.342,-2.3273,-2.3126,-2.2979,-2.2819,-2.2672,-2.2525,-2.2325,-2.2031,-2.1991,-2.1991,-2.1991,-2.1991,-2.1991,-2.1991,-2.159,-2.139,-2.1601,-2.1015,-2.0735,-2.0882,-2.0615,-2.0454,-2.0454,-2.0454,-2.0454,-2.0454,-1.9709,-1.9337,-1.9337,-1.8438,-1.7679,-1.703,-1.7667,-1.7995,0.0,0.0,0.0,0.0,0.0,0.0,0.0,-2.281,-2.3075,-2.3568,-2.2455,-2.1559,-2.1972,-2.1065,-2.0387,-2.0584,-2.1765,-2.2695,-2.2965,-2.3543,-2.4509,-2.6037,-2.6674,-2.7112,-2.7653,-2.7699,-2.8626,-3.0996,-3.141,-3.1438,-3.1438,-2.9605,-2.8221,-2.7494,-2.5703,-2.4427,-2.3528,-2.3886,-2.4024,-2.3931,-2.3622,-2.339,-2.3253,-2.2753,-2.2552,-2.2504,-2.147,-2.1056,-2.1087,-2.0171,-1.9836,-1.9671,-1.7851,-1.7923,-1.9128,-1.925,-1.9457,-1.9745,-1.9304,-1.9093,-1.896,-1.896,-1.8809,-1.8704,-1.8704,-1.815,-1.7834,-1.9509,-1.9479,-1.945,-2.1807,-2.2421,-2.2535,-2.298,-2.3044,-2.2942,-2.2726,-2.2924,-2.3106,-2.2871,-2.3126,-2.334,-2.3086,-2.3046,-2.2846,-2.2245,-2.2205,-2.2231,-2.2164,-2.2205,-2.2218,-2.2164,-2.2151,-2.2017,-2.1735,-2.1363,-2.1176,-2.1109,-2.0569,-2.025,-2.025,-1.9925,-1.98,-1.98,-1.8597,-1.7988,-1.7988,-1.656,-1.5719,-1.5394,-1.5233,-1.5415,-2.2525,-2.0699,-1.9622,-2.1038,-1.9779,-1.8556,0.0,-2.0128,-1.9996,-2.0232,-2.0465,-2.0817,-2.1078,-2.1431,-2.1135,-1.9552,-2.1704,-2.2868,-2.0885,-2.2666,-2.3556,-2.1604,-2.3375,-2.4847,-2.5204,-2.5224,-2.5418,-2.5941,-2.6085,-2.6095,-2.6095,-2.582,-2.5584,-2.5512,-2.5043,-2.482,-2.483,-2.4286,-2.4193,-2.4261,-2.3941,-2.3718,-2.341,-2.3658,-2.3405,-2.2623,-1.9907,-1.8668,-1.8237,-1.6029,-1.508,-1.508,-1.4822,-1.4801,-1.5184,-1.6959,-1.8605,-2.0015,-1.9965,-1.9755,-1.9403,-1.9403,-1.9173,-1.8993,-1.8993,-1.8812,-1.8688,-1.8917,-1.8789,-1.8733,-1.9041,-1.9137,-1.9147,-1.9199,-1.8978,-1.8747,-1.8727,-1.996,-2.1042,-2.1007,-2.2477,-2.3714,-2.3674,-2.3674,-2.346,-2.2928,-2.2993,-2.3073,-2.2806,-2.3006,-2.3073,-2.2792,-2.2834,-2.2539,-2.1977,-2.167,-2.139,-2.1122,-1.9649,-1.8721,-1.8721,-1.7237,-1.6464,-1.6464,-1.6291,-1.6172,-1.6172,-1.5978,-1.507,-1.3578,-1.3444,-1.4262,-2.2216,-2.0468,-1.9393,-1.9735,-1.9497,-1.9294,-1.9858,-2.0119,-2.0249,-2.0492,-1.9871,-1.9365,-1.9653,-1.8836,-1.7986,-1.7457,-1.8517,-1.9068,-1.8236,-1.9229,-1.9632,-1.8476,-1.9135,-2.0461,-2.2149,-2.258,-2.3268,-2.483,-2.5063,-2.5215,-2.5215,-2.3672,-2.2855,-2.2855,-2.113,-2.0212,-2.0209,-1.9959,-1.9727,-1.9722,-1.9543,-1.9371,-1.9192,-1.9257,-1.9002,-1.8379,-1.7042,-1.6317,-1.5965,-1.4743,-1.4299,-1.4299,-1.4299,-1.4299,-1.4367,-1.5155,-1.5949,-1.6568,-1.6454,-1.6259,-1.6032,-1.6008,-1.5772,-1.5601,-1.5504,-1.5428,-1.5515,-1.6674,-1.6916,-1.7056,-1.827,-1.8572,-1.8572,-1.8572,-1.8501,-1.8356,-1.8356,-1.8957,-1.9445,-1.9232,-1.987,-2.042,-2.0272,-2.0249,-2.0169,-1.9881,-2.184,-2.3287,-2.3153,-2.2159,-2.0959,-1.9715,-1.9427,-1.9607,-2.0335,-1.9184,-1.8717,-1.9559,-1.7923,-1.7012,-1.7012,-1.6302,-1.5913,-1.5913,-1.4874,-1.4362,-1.4362,-1.339,-1.2479,-1.1762,-1.1655,-1.197,-2.0793,-1.9422,-1.8367,-1.8236,-1.8383,-1.8591,-1.8583,-1.8867,-1.9111,-1.9446,-1.8524,-1.7622,-1.7852,-1.6627,-1.5716,-1.6083,-1.6307,-1.6503,-1.672,-1.6842,-1.6849,-1.6653,-1.649,-1.7149,-1.8988,-1.9527,-2.0575,-2.2526,-2.2784,-2.2958,-2.2958,-2.0999,-1.9975,-1.9975,-1.8013,-1.6904,-1.6754,-1.6707,-1.6612,-1.6463,-1.6313,-1.6191,-1.6076,-1.5879,-1.5655,-1.5391,-1.5052,-1.4841,-1.4719,-1.4421,-1.4299,-1.4299,-1.4299,-1.4299,-1.4285,-1.4177,-1.4109,-1.4055,-1.3946,-1.381,-1.3661,-1.3512,-1.339,-1.3268,-1.3125,-1.2976,-1.3158,-1.4601,-1.4844,-1.5069,-1.6541,-1.6904,-1.6904,-1.6904,-1.6904,-1.6904,-1.6904,-1.736,-1.7691,-1.7461,-1.7881,-1.8205,-1.797,-1.795,-1.795,-1.795,-2.0165,-2.1861,-2.1786,-2.0391,-1.8816,-1.7409,-1.7067,-1.7365,-1.8373,-1.7107,-1.6689,-1.7753,-1.6172,-1.52,-1.52,-1.4754,-1.4493,-1.4493,-1.3259,-1.261,-1.261,-1.1306,-1.0717,-1.0717,-1.0521,-1.0378,-1.7877,-1.6545,-1.53,-1.6452,-1.5552,-1.4352,-1.4792,-1.5011,-1.5169,-1.5313,-1.5471,-1.5582,-1.5875,-1.6053,-1.6117,-1.6279,-1.6544,-1.6741,-1.6748,-1.6754,-1.6653,-1.6354,-1.6191,-1.5927,0.0,-1.6203,-1.6859,-1.7259,-1.7286,-1.7293,-1.7293,-1.7188,-1.7083,-1.7083,-1.7083,-1.6904,-1.6754,-1.6605,-1.6456,-1.6313,-1.6157,-1.609,-1.6069,-1.5778,-1.556,-1.5384,-1.4936,-1.4746,-1.4719,-1.4421,-1.4299,-1.4299,-1.4299,-1.4299,-1.4299,-1.4292,-1.4197,-1.4075,-1.4068,-1.3966,-1.381,-1.3668,-1.362,-1.3587,-1.3437,-1.3281,-1.3132,-1.307,-1.292,-1.2763,-1.269,-1.2656,-1.2656,-1.2656,-1.2656,-1.2656,-1.2656,-1.4253,-1.5616,-1.5608,-1.7198,-1.8562,-1.8552,-1.8552,-1.8552,-1.8552,-1.836,-1.8138,-1.7925,-1.7703,-1.7561,-1.749,-1.7298,-1.7066,-1.6689,-1.6648,-1.6388,-1.6009,-1.4362,-1.339,-1.339,-1.1762,-1.085,-1.085,-1.0784,-1.0784,-1.0784,-1.0717,-1.0717,-1.0711,-1.0426,-1.0283,-1.5641,-1.4983,-1.4467,-1.4843,-1.4935,-1.4875,-1.5126,-1.5228,-1.5303,-1.5452,-1.5289,-1.5147,-1.5248,-1.5384,-1.5567,-1.5825,-1.6198,-1.6564,-1.6863,-1.6727,-1.6564,-1.6463,-1.632,0.0,0.0,0.0,0.0,-1.6388,-1.6754,-1.6978,-1.6978,-1.6978,-1.6978,-1.6978,-1.6978,-1.6958,-1.6904,-1.6849,-1.6802,-1.6754,-1.6497,-1.6218,-1.5927,-1.5825,-1.5588,-1.5248,-1.4997,-1.478,-1.457,-1.438,-1.4299,-1.4299,-1.4299,-1.4299,-1.4299,-1.4299,-1.4265,-1.4211,-1.4109,-1.4041,-1.3953,-1.3709,-1.3627,-1.36,-1.3444,-1.3295,-1.3159,-1.3112,-1.2996,-1.2874,-1.282,-1.2807,-1.2807,-1.2807,-1.2807,-1.2807,-1.2807,-1.3269,-1.3652,-1.3652,-1.4176,-1.4552,-1.4552,-1.4655,-1.4656,-1.4656,-1.6594,-1.7566,-1.603,-1.5802,-1.5276,-1.3857,-1.3649,-1.3975,-1.4787,-1.3792,-1.3497,-1.4259,-1.2653,-1.1681,-1.1571,-1.0982,-1.0717,-1.0717,-1.0717,-1.0717,-1.0717,-1.0717,-1.0717,-1.0717,-1.0616,-1.0521,-1.4076,-1.4145,-1.4278,-1.4496,-1.4991,-1.5432,-1.5479,-1.5574,-1.5649,-1.5642,-1.5364,-1.5092,-1.4991,-1.5045,-1.5174,-1.5371,-1.573,-1.6164,-1.6673,-1.6524,-1.6381,-1.6435,-1.632,-1.6246,0.0,0.0,0.0,-1.6239,-1.6598,-1.6815,-1.6815,-1.6815,-1.687,-1.6978,-1.6978,-1.6978,-1.6978,-1.6924,-1.6842,-1.6734,-1.6483,-1.6157,-1.5778,-1.5778,-1.5472,-1.4943,-1.4903,-1.4685,-1.4353,-1.4312,-1.4299,-1.4299,-1.4299,-1.4299,-1.4299,-1.4299,-1.4299,-1.4285,-1.419,-1.415,-1.4102,-1.3804,-1.3702,-1.3668,-1.3464,-1.3336,-1.3241,-1.3186,-1.3105,-1.3024,-1.2976,-1.2963,-1.2949,-1.2895,-1.2922,-1.2929,-1.282,-1.2807,-1.2793,-1.2739,-1.2698,-1.2664,-1.2664,-1.2745,-1.2793,-1.2739,-1.4708,-1.5623,-1.4243,-1.4023,-1.3424,-1.2148,-1.1898,-1.2163,-1.3099,-1.2051,-1.1747,-1.2502,-1.155,-1.0813,-1.0724,-1.0717,-1.0717,-1.0717,-1.0717,-1.0717,-1.0717,-1.0717,-1.0717,-1.0717,-1.0663,-1.0588,-1.3397,-1.4089,-1.4706,-1.5282,-1.5649,-1.5832,-1.5689,-1.5866,-1.5974,-1.5676,-1.5459,-1.5228,-1.4943,-1.4889,-1.4903,-1.495,-1.5221,-1.5635,-1.6246,-1.6205,-1.6164,-1.6307,-1.6205,0.0,0.0,0.0,0.0,-1.651,0.0,-1.6544,-1.6544,-1.6544,-1.668,-1.6971,-1.6978,-1.6978,-1.6978,-1.6836,-1.6612,-1.632,-1.6171,-1.594,-1.5642,-1.5642,-1.5228,-1.4529,-1.4679,-1.4489,-1.4095,-1.4238,-1.4299,-1.4299,-1.4299,-1.4299,-1.4299,-1.4299,-1.4299,-1.4299,-1.4299,-1.4292,-1.4238,-1.3926,-1.3831,-1.3777,-1.3492,-1.3403,-1.337,-1.3227,-1.3186,-1.3152,-1.3017,-1.2983,-1.2949,-1.28,-1.2874,-1.2901,-1.261,-1.2773,-1.2929,-1.2779,-1.2868,-1.2963,-1.2969,-1.2969,-1.2922,-1.2766,-1.2745,-1.2684,-1.2522,-1.2379,-1.2284,-1.2277,-1.2006,-1.1775,-1.1633,-1.1484,-1.1274,-1.0914,-1.0894,-1.082,-1.0724,-1.0717,-1.0717,-1.0717,-1.0717,-1.0717,-1.0717,-1.0717,-1.0717,-1.0717,-1.0568,-1.0507,-1.3566,-1.4475,-1.5391,-1.554,-1.5805,-1.6015,-1.5974,-1.5859,-1.5669,-1.5364,-1.4652,-1.4027,-1.3838,-1.3804,-1.4021,-1.4692,-1.5242,-1.5825,-1.6537,-1.6605,-1.6551,-1.6476,-1.6632,-1.6693,-1.6537,-1.6693,0.0,0.0,-1.6734,-1.6863,-1.6863,-1.6863,-1.6897,-1.6978,-1.6978,-1.6978,-1.6978,-1.6944,-1.6768,-1.6469,-1.6429,-1.6137,-1.5642,-1.5642,-1.5289,-1.4685,-1.4719,-1.455,-1.4245,-1.4285,-1.4299,-1.4299,-1.4299,-1.4299,-1.4299,-1.4299,-1.4299,-1.4299,-1.4299,-1.4224,-1.4082,-1.3783,-1.3682,-1.3648,-1.3458,-1.3403,-1.339,-1.3356,-1.3342,-1.3336,-1.3302,-1.3288,-1.3281,-1.3241,-1.3261,-1.3268,-1.3186,-1.3146,-1.3105,-1.3071,-1.3003,-1.2996,-1.3098,-1.3119,-1.3071,-1.2922,-1.2901,-1.2807,-1.2535,-1.2379,-1.2244,-1.2135,-1.1945,-1.1775,-1.1633,-1.1586,-1.143,-1.1124,-1.1104,-1.0989,-1.0731,-1.0717,-1.0717,-1.0717,-1.0717,-1.0717,-1.0717,-1.0717,-1.0717,-1.0717,-1.0677,-1.0663,-1.4421,-1.516,-1.5852,-1.5913,-1.6103,-1.6191,-1.5859,-1.5655,-1.5357,-1.4726,-1.4082,-1.3546,-1.3261,-1.337,-1.3709,-1.4346,-1.495,-1.5608,-1.6354,-1.6517,-1.6598,-1.6707,-1.6931,0.0,-1.6951,-1.7026,-1.6978,-1.6741,-1.6761,-1.6781,-1.6781,-1.6781,-1.6842,-1.6978,-1.6978,-1.6978,-1.6978,-1.691,-1.6761,-1.6524,-1.6456,-1.6185,-1.573,-1.5669,-1.5276,-1.4645,0.0,-1.4496,-1.4109,-1.4245,-1.4299,-1.4299,-1.4299,-1.4299,-1.4299,-1.4299,-1.4299,-1.4299,-1.4299,-1.4245,-1.4136,-1.3899,-1.3824,-1.3783,-1.3566,-1.3498,-1.3485,-1.3417,-1.3403,-1.3403,-1.3403,-1.3403,-1.3383,-1.3315,-1.3349,-1.3363,-1.3234,-1.3241,-1.3275,-1.3275,-1.3207,-1.318,-1.3261,-1.3275,-1.322,-1.3078,-1.3003,-1.2874,-1.263,-1.2474,-1.2352,-1.2264,-1.2121,-1.1999,-1.1918,-1.1789,-1.1613,-1.1382,-1.1301,-1.1131,-1.0833,-1.0819,-1.0785,-1.0724,-1.0717,-1.0717,-1.0717,-1.0717,-1.0717,-1.0717,-1.0717,-1.0717,-1.5466,-1.5886,-1.6171,-1.6307,-1.6402,-1.6286,-1.5594,-1.535,-1.4984,-1.3987,-1.3607,-1.3336,-1.2969,-1.3234,-1.3654,-1.4089,-1.4631,-1.5262,-1.6035,-1.6307,-1.6564,-1.6937,-1.7107,-1.7195,-1.7195,-1.7154,-1.7093,-1.6985,-1.6734,-1.6585,-1.6585,-1.6585,-1.6707,-1.6971,-1.6978,-1.6978,-1.6978,-1.6849,-1.6693,-1.6517,-1.6395,-1.6157,-1.5818,-1.5696,-1.5235,-1.455,-1.4679,-1.4421,-1.3919,-1.419,-1.4299,-1.4299,-1.4299,-1.4299,-1.4299,-1.4299,-1.4299,-1.4299,-1.4299,-1.4299,-1.4278,-1.4122,-1.4075,-1.4021,-1.3743,-1.3654,-1.3627,-1.3498,-1.3458,-1.3458,-1.3458,-1.3444,-1.3397,-1.3261,-1.3315,-1.3329,-1.3078,-1.322,-1.3403,-1.3403,-1.3403,-1.3403,-1.3403,-1.3403,-1.3349,-1.3193,-1.3071,-1.2935,-1.2779,-1.2589,-1.2474,-1.2474,-1.2345,-1.2257,-1.2257,-1.1999,-1.1769,-1.1626,-1.1477,-1.1267,-1.0921,-1.0894,-1.082,-1.0751,-1.0731,-1.0717,-1.0717,-1.0717,-1.0717,-1.0717,-1.0717,-1.0717,-1.5635,-1.6035,-1.6449,-1.6476,-1.632,-1.6062,-1.5683,-1.5025,-1.4299,-1.362,-1.2969,-1.2535,-1.2576,-1.2745,-1.3268,-1.4434,-1.4916,-1.5452,-1.632,-1.6788,-1.7026,-1.6985,-1.7107,-1.7195,-1.7195,-1.6971,0.0,0.0,-1.6931,-1.6904,-1.6904,-1.6904,-1.6924,-1.6978,-1.6978,-1.6978,-1.6978,-1.6951,-1.6802,-1.6524,-1.6497,-1.6198,-1.5676,-1.5649,-1.5296,-1.4699,-1.4726,0.0,-1.4224,-1.4278,-1.4299,-1.4299,-1.4299,-1.4299,-1.4299,-1.4299,-1.4299,-1.4299,-1.4299,-1.4299,-1.4278,-1.4122,-1.4075,-1.4041,-1.3858,-1.3804,-1.3797,-1.377,-1.3763,-1.3763,-1.3763,-1.3675,-1.3587,-1.3553,-1.3471,-1.339,-1.3336,-1.3363,-1.3403,-1.3403,-1.3403,-1.3403,-1.3403,-1.3403,-1.3349,-1.3193,-1.3152,-1.3085,-1.2942,-1.2576,-1.2325,-1.2325,-1.2189,-1.2101,-1.2101,-1.1938,-1.1769,-1.1626,-1.1477,-1.1314,-1.1131,-1.1009,-1.0867,-1.084,-1.0785,-1.0717,-1.0717,-1.0717,-1.0717,-1.0717,-1.0717,-1.0717,-1.5988,-1.6307,-1.6639,-1.6639,-1.6361,-1.59,-1.5208,-1.4482,-1.3688,-1.2773,-1.2366,-1.2169,-1.2155,-1.2467,-1.3044,-1.4007,-1.4536,-1.5147,-1.6049,-1.6558,-1.6904,-1.7073,-1.7222,-1.7283,-1.7202,-1.6998,-1.687,-1.6863,-1.6863,-1.6897,-1.6978,-1.6978,-1.6978,-1.6978,-1.6978,-1.6978,-1.6978,-1.6904,-1.6748,-1.6517,-1.6449,-1.6218,-1.5866,-1.571,-1.5438,-1.5079,-1.493,-1.4645,-1.4306,-1.438,-1.4319,-1.419,-1.4272,-1.4299,-1.4299,-1.4299,-1.4299,-1.4299,-1.4299,-1.4299,-1.4285,-1.4211,-1.419,-1.4163,-1.4007,-1.396,-1.3946,-1.3865,-1.3838,-1.3838,-1.3838,-1.379,-1.3736,-1.3736,-1.3682,-1.3627,-1.3627,-1.3627,-1.3627,-1.3627,-1.3627,-1.3627,-1.3627,-1.3566,-1.3492,-1.3424,-1.3275,-1.3146,-1.3078,-1.282,-1.2637,-1.2637,-1.2501,-1.2413,-1.2413,-1.2203,-1.2006,-1.1857,-1.1708,-1.1518,-1.1294,-1.1219,-1.1104,-1.0887,-1.0806,-1.0799,-1.0717,-1.0717,-1.0717,-1.0717,-1.0717,-1.0717,-1.6307,-1.6571,-1.6788,-1.6761,-1.6415,-1.5805,-1.4753,-1.4027,-1.3268,-1.2155,-1.1952,-1.1965,-1.1972,-1.2311,-1.2827,-1.3553,-1.4041,-1.4679,-1.571,-1.6212,-1.6666,-1.7182,-1.7344,0.0,-1.7249,-1.708,0.0,-1.6809,-1.6802,-1.6849,-1.6971,-1.6978,-1.6978,-1.6978,-1.6978,-1.6978,-1.6978,-1.6863,-1.6707,-1.6517,-1.6408,-1.6239,-1.6029,-1.5791,-1.5567,-1.535,-1.512,-1.476,-1.4353,-1.4468,-1.436,-1.4136,-1.4251,-1.4299,-1.4299,-1.4299,-1.4299,-1.4299,-1.4299,-1.3938,-1.3584,-1.4122,-1.4299,-1.4278,-1.4156,-1.4122,-1.4095,-1.3973,-1.3939,-1.3939,-1.3939,-1.3912,-1.3878,-1.3844,-1.3838,-1.3838,-1.3838,-1.3838,-1.3838,-1.3838,-1.3838,-1.3838,-1.3838,-1.3749,-1.3661,-1.3634,-1.3424,-1.309,-1.2559,-1.2462,-1.2155,-1.1664,-1.2323,-1.2766,-1.2732,-1.2488,-1.2271,-1.2121,-1.1938,-1.151,-1.0921,-1.1211,-1.0855,-0.9799,-1.0499,-1.0617,-1.0092,-1.0532,-1.0518,-1.0114,-1.0114,-0.9915,-1.6422,-1.6727,-1.6924,-1.6788,-1.6415,-1.5805,-1.4753,-1.3946,-1.32,-1.2413,-1.1932,-1.1823,-1.2345,-1.2264,-1.2494,-1.3634,-1.3763,-1.4211,-1.5649,-1.613,-1.6598,-1.7317,-1.7412,0.0,-1.7399,-1.7148,-1.6978,-1.6958,-1.6958,-1.6965,-1.6978,-1.6978,-1.6978,-1.6978,-1.6978,-1.6978,-1.6978,-1.6965,-1.6815,-1.6524,-1.651,-1.6279,-1.5872,-1.5845,-1.5601,-1.5201,-1.5174,0.0,0.0,-1.4509,-1.4421,-1.4278,-1.4292,-1.4299,-1.4299,-1.4299,-1.4299,-1.4299,-1.4299,-1.2863,-1.1433,-1.3584,-1.4299,-1.4299,-1.4285,-1.4278,-1.4278,-1.4258,-1.4258,-1.4258,-1.4258,-1.4156,-1.4014,-1.3871,-1.3838,-1.3838,-1.3838,-1.3838,-1.3838,-1.3838,-1.3838,-1.3838,-1.3838,-1.3831,-1.3777,-1.3648,-1.3607,-1.2772,-1.0544,-1.0356,-0.9599,-0.7516,-1.0725,-1.2881,-1.2745,-1.2576,-1.242,-1.2277,-1.1993,-1.1005,-0.9213,-1.0597,-0.9736,-0.617,-0.928,-1.0048,-0.8251,-0.9904,-0.9842,-0.823,-0.823,-0.7431,-1.6178,-1.6612,-1.6944,-1.6788,-1.6279,-1.5567,-1.4604,-1.3804,-1.3024,-1.2182,-1.187,-1.1816,-1.2054,-1.1999,-1.2196,-1.3037,-1.32,-1.3654,-1.4875,-1.5309,-1.5185,-1.4458,-1.4352,-1.3768,-1.219,0.0,-1.1744,-1.1782,-1.1824,-1.1844,-1.1868,-1.3464,-1.3675,-1.1983,-1.1921,-1.1887,-1.1887,-1.1762,-1.1656,-1.157,-1.1401,-1.1306,-1.1182,-1.1022,-1.089,-1.071,-1.0649,0.0,0.0,-1.0196,-1.0116,-0.9833,-0.996,-0.9974,-1.0007,-1.0007,-0.9965,-1.0002,-1.0002,-0.9375,-0.8664,-0.9646,-1.0002,-1.054,-1.3401,-1.4299,-1.4299,-1.4299,-1.3224,-1.2148,-1.2148,-1.1036,-0.9837,-0.9795,-0.9786,-0.9786,-0.9786,-0.9786,-0.9786,-0.9786,-0.9786,-0.9786,-0.9786,-0.9734,-0.9658,-0.9554,-0.9488,-0.9075,-0.8131,-0.804,-0.7706,-0.6784,-0.8172,-0.9031,-0.9007,-0.8823,-0.8696,-0.8531,-0.8361,-0.7963,-0.7035,-0.7692,-0.7234,-0.5625,-0.6972,-0.7299,-0.6429,-0.7138,-0.7157,-0.6431,-0.6431,-0.603,-1.59,-1.6422,-1.6829,-1.6768,-1.6157,-1.535,-1.4496,-1.3715,-1.2942,-1.2135,-1.1932,-1.1925,-1.2013,-1.1959,-1.2081,-1.2637,-1.2861,-1.3295,-1.4245,-1.4685,-1.4513,-1.3441,-1.2748,-1.1625,-0.9753,-0.8808,-0.8358,-0.8409,-0.8462,-0.8166,-0.7317,-0.9122,-0.9639,-0.8559,-0.8507,-0.8469,-0.8549,-0.8444,-0.8382,-0.8255,-0.82,-0.8048,-0.8004,-0.795,-0.7871,-0.7779,-0.7728,0.0,0.0,-0.7312,-0.7235,-0.6978,-0.7084,-0.7094,-0.7138,-0.7138,-0.7104,-0.7057,-0.7057,-0.6611,-0.6168,-0.6879,-0.6611,-0.679,-1.0895,-1.2148,-1.2148,-1.2148,-1.0984,-0.9646,-0.9646,-0.8397,-0.7057,-0.7057,-0.7057,-0.7057,-0.7057,-0.7057,-0.7057,-0.7057,-0.7057,-0.7057,-0.7057,-0.7013,-0.6953,-0.6879,-0.6825,-0.6511,-0.5761,-0.5653,-0.5477,-0.4803,-0.4672,-0.5111,-0.635,-0.6441,-0.6267,-0.6139,-0.6012,-0.5714,-0.502,-0.5499,-0.5214,-0.3968,-0.5003,-0.5293,-0.4574,-0.5152,-0.5104,-0.4588,-0.4568,-0.4292,-1.5655,-1.6185,-1.6564,-1.6714,-1.6076,-1.5215,-1.4468,-1.3715,-1.3003,-1.2406,-1.2169,-1.2149,-1.244,-1.2257,-1.2203,-1.2657,-1.2861,-1.322,-1.3973,-1.4462,-1.4878,-1.5484,-1.3597,-1.2321,-1.2257,-0.9973,-0.8487,-0.8484,-0.8484,0.0,-0.4357,-0.4253,-0.5607,-0.8379,-0.848,-0.8546,-0.8469,-0.8465,-0.843,-0.8255,-0.8255,-0.8176,-0.8028,-0.8025,-0.7945,-0.7804,0.0,0.0,0.0,-0.7367,-0.7282,-0.7057,-0.706,-0.706,-0.706,-0.706,-0.706,-0.7057,-0.7057,-0.5544,-0.4027,-0.6344,-0.5544,-0.4116,-0.6436,-0.7146,-0.7146,-0.7146,-0.7149,-0.7146,-0.7146,-0.7146,-0.7057,-0.7057,-0.7057,-0.7057,-0.7057,-0.7057,-0.7057,-0.7057,-0.7057,-0.7057,-0.7057,-0.7057,-0.703,-0.6956,-0.6855,-0.6042,-0.3642,-0.3349,-0.2476,-0.0342,-0.0085,-0.184,-0.6098,-0.6516,-0.6441,-0.629,-0.6146,-0.5146,-0.3231,-0.4879,-0.4001,-0.0149,-0.3684,-0.463,-0.2711,-0.4511,-0.445,-0.274,-0.2702,-0.1747,-1.4387,-1.4957,-1.5425,-1.5262,-1.4855,-1.4353,-1.381,-1.3342,-1.2888,-1.2393,-1.225,-1.2244,-1.2338,-1.2284,-1.24,-1.2942,-1.3071,-1.2827,-1.179,-1.1743,-1.0683,-0.7753,-0.5326,-0.3898,-0.3933,-0.3157,-0.2731,-0.2656,-0.2735,-0.2311,-0.1383,-0.1376,-0.1792,-0.2626,-0.2714,-0.2693,-0.2669,-0.2652,-0.264,-0.2632,-0.2632,-0.2606,-0.2559,-0.2577,-0.2549,0.0,0.0,0.0,-0.2311,-0.2327,-0.2306,-0.2266,-0.2282,-0.2278,-0.2264,-0.2264,-0.2254,-0.224,-0.224,-0.1793,-0.1255,-0.1971,-0.1703,-0.1255,-0.2061,-0.4561,-0.679,-0.5186,-0.474,-0.4295,-0.2687,-0.224,-0.224,-0.224,-0.224,-0.224,-0.224,-0.224,-0.224,-0.224,-0.224,-0.224,-0.224,-0.224,-0.2231,-0.2208,-0.2204,-0.1928,-0.112,-0.1035,-0.0774,-0.0085,0.0,-0.0591,-0.1903,-0.2043,-0.2019,-0.1997,-0.1965,-0.1631,-0.1002,-0.1529,-0.1284,0.0,-0.1179,-0.1455,-0.0858,-0.1404,-0.1448,-0.088,-0.0876,-0.0538,-1.3648,-1.4231,-1.4699,-1.4618,-1.4251,-1.3831,-1.3553,-1.3166,-1.2779,-1.244,-1.176,-1.1172,-1.1229,-1.0589,-1.0168,-1.0542,-1.065,-1.0372,-0.9198,-0.9113,-0.7728,-0.3987,-0.2248,-0.0949,-0.0106,0.0,0.0,0.0,0.0,0.0,0.0,0.0,0.0,0.0,0.0,0.0,0.0,0.0,0.0,0.0,0.0,0.0,0.0,0.0,0.0,0.0,0.0,0.0,0.0,0.0,0.0,0.0,0.0,0.0,0.0,0.0,0.0,0.0,0.0,0.0,0.0,0.0,0.0,0.0,0.0,-0.2061,-0.4116,-0.2687,-0.224,-0.1882,-0.0359,0.0,0.0,0.0,0.0,0.0,0.0,0.0,0.0,0.0,0.0,0.0,0.0,0.0,0.0,0.0,0.0,0.0,0.0,0.0,0.0,0.0,0.0,0.0,0.0,0.0,0.0,0.0,0.0,0.0,0.0,0.0,0.0,0.0,0.0,0.0,0.0,0.0,0.0,0.0,0.0,0.0,0.0,-1.3759,-1.4251,-1.4516,-1.3887,-1.3378,-1.3462,-1.2868,0.0,-1.2245,-1.06,-0.9167,-0.9203,-0.7584,-0.6281,-0.6295,-0.652,-0.6627,-0.6295,-0.635,-0.5631,-0.3429,-0.3263,-0.2436,-0.0205,0.0,0.0,0.0,0.0,0.0,0.0,0.0,0.0,0.0,0.0,0.0,0.0,0.0,0.0,0.0,0.0,0.0,0.0,0.0,0.0,0.0,0.0,0.0,0.0,0.0,0.0,0.0,0.0,0.0,0.0,0.0,0.0,0.0,0.0,0.0,0.0,0.0,0.0,0.0,0.0,0.0,0.0,0.0,0.0,0.0,0.0,0.0,0.0,0.0,0.0,0.0,0.0,0.0,0.0,0.0,0.0,0.0,0.0,0.0,0.0,0.0,0.0,0.0,0.0,0.0,0.0,0.0,0.0,0.0,0.0,0.0,0.0,0.0,0.0,0.0,0.0,0.0,0.0,0.0,0.0,0.0,0.0,0.0,0.0,0.0,0.0,0.0,-1.0355,0.0,-1.3091,-1.3037,-1.1684,-1.077,0.0,-1.0201,-0.8277,-0.9845,-0.8464,-0.7029,-0.6989,-0.6625,-0.6351,-0.6609,-0.6629,-0.6127,-0.455,-0.2759,-0.1458,-0.0894,-0.0823,-0.0627,-0.0103,0.0,0.0,0.0,0.0,0.0,0.0,0.0,0.0,0.0,0.0,0.0,0.0,0.0,0.0,0.0,0.0,0.0,0.0,0.0,0.0,0.0,0.0,0.0,0.0,0.0,0.0,0.0,0.0,0.0,0.0,0.0,0.0,0.0,0.0,0.0,0.0,0.0,0.0,0.0,0.0,0.0,0.0,0.0,0.0,0.0,0.0,0.0,0.0,0.0,0.0,0.0,0.0,0.0,0.0,0.0,0.0,0.0,0.0,0.0,0.0,0.0,0.0,0.0,0.0,0.0,0.0,0.0,0.0,0.0,0.0,0.0,0.0,0.0,0.0,0.0,0.0,0.0,0.0,0.0,0.0,0.0,0.0,0.0,0.0,0.0,0.0,0.0,-0.7911,-0.9326,-1.0974,-0.9908,-0.8821,-0.8306,-0.942,-0.7954,-0.6612,-0.7733,-0.6314,-0.4867,-0.4811,-0.4026,-0.3462,-0.36,-0.3586,-0.326,-0.2134,-0.0837,0.0,0.0,0.0,0.0,0.0,0.0,0.0,0.0,0.0,0.0,0.0,0.0,0.0,0.0,0.0,0.0,0.0,0.0,0.0,0.0,0.0,0.0,0.0,0.0,0.0,0.0,0.0,0.0,0.0,0.0,0.0,0.0,0.0,0.0,0.0,0.0,0.0,0.0,0.0,0.0,0.0,0.0,0.0,0.0,0.0,0.0,0.0,0.0,0.0,0.0,0.0,0.0,0.0,0.0,0.0,0.0,0.0,0.0,0.0,0.0,0.0,0.0,0.0,0.0,0.0,0.0,0.0,0.0,0.0,0.0,0.0,0.0,0.0,0.0,0.0,0.0,0.0,0.0,0.0,0.0,0.0,0.0,0.0,0.0,0.0,0.0,0.0,0.0,0.0,0.0,0.0,0.0,-0.5578,-0.6922,-0.8129,-0.6682,-0.6046,-0.5899,-0.6197,-0.5804,-0.5437,-0.5745,-0.4074,-0.2617,-0.2643,-0.1158,0.0,0.0,0.0,0.0,0.0,0.0,0.0,0.0,0.0,0.0,0.0,0.0,0.0,0.0,0.0,0.0,0.0,0.0,0.0,0.0,0.0,0.0,0.0,0.0,0.0,0.0,0.0,0.0,0.0,0.0,0.0,0.0,0.0,0.0,0.0,0.0,0.0,0.0,0.0,0.0,0.0,0.0,0.0,0.0,0.0,0.0,0.0,0.0,0.0,0.0,0.0,0.0,0.0,0.0,0.0,0.0,0.0,0.0,0.0,0.0,0.0,0.0,0.0,0.0,0.0,0.0,0.0,0.0,0.0,0.0,0.0,0.0,0.0,0.0,0.0,0.0,0.0,0.0,0.0,0.0,0.0,0.0,0.0,0.0,0.0,0.0,0.0,0.0,0.0,0.0,0.0,0.0,0.0,0.0,0.0,0.0,0.0,0.0,-0.3849,-0.3743,-0.4436,-0.5904,-0.4934,-0.4093,-0.5876,-0.3503,-0.143,-0.3228,-0.1923,-0.0503,-0.0503,-0.0173,0.0,0.0,0.0,0.0,0.0,0.0,0.0,0.0,0.0,0.0,0.0,0.0,0.0,0.0,0.0,0.0,0.0,0.0,0.0,0.0,0.0,0.0,0.0,0.0,0.0,0.0,0.0,0.0,0.0,0.0,0.0,0.0,0.0,0.0,0.0,0.0,0.0,0.0,0.0,0.0,0.0,0.0,0.0,0.0,0.0,0.0,0.0,0.0,0.0,0.0,0.0,0.0,0.0,0.0,0.0,0.0,0.0,0.0,0.0,0.0,0.0,0.0,0.0,0.0,0.0,0.0,0.0,0.0,0.0,0.0,0.0,0.0,0.0,0.0,0.0,0.0,0.0,0.0,0.0,0.0,0.0,0.0,0.0,0.0,0.0,0.0,0.0,0.0,0.0,0.0,0.0,0.0,0.0,0.0,0.0,0.0,0.0,0.0,-0.1575,-0.139,-0.1684,-0.2628,-0.2124,-0.1707,-0.2675,-0.1387,-0.0241,-0.127,-0.0669,0.0,0.0,0.0,0.0,0.0,0.0,0.0,0.0,0.0,0.0,0.0,0.0,0.0,0.0,0.0,0.0,0.0,0.0,0.0,0.0,0.0,0.0,0.0,0.0,0.0,0.0,0.0,0.0,0.0,0.0,0.0,0.0,0.0,0.0,0.0,0.0,0.0,0.0,0.0,0.0,0.0,0.0,0.0,0.0,0.0,0.0,0.0,0.0,0.0,0.0,0.0,0.0,0.0,0.0,0.0,0.0,0.0,0.0,0.0,0.0,0.0,0.0,0.0,0.0,0.0,0.0,0.0,0.0,0.0,0.0,0.0,0.0,0.0,0.0,0.0,0.0,0.0,0.0,0.0,0.0,0.0,0.0,0.0,0.0,0.0,0.0,0.0,0.0,0.0,0.0,0.0,0.0,0.0,0.0,0.0,0.0,0.0,0.0,0.0,0.0,0.0,0.0,0.0,0.0,0.0,0.0,0.0,0.0,0.0,0.0,0.0,0.0,0.0,0.0,0.0,0.0,0.0,0.0,0.0,0.0,0.0,0.0,0.0,0.0,0.0,0.0,0.0,0.0,0.0,0.0,0.0,0.0,0.0,0.0,0.0,0.0,0.0,0.0,0.0,0.0,0.0,0.0,0.0,0.0,0.0,0.0,0.0,0.0,0.0,0.0,0.0,0.0,0.0,0.0,0.0,0.0,0.0,0.0,0.0,0.0,0.0,0.0,0.0,0.0,0.0,0.0,0.0,0.0,0.0,0.0,0.0,0.0,0.0,0.0,0.0,0.0,0.0,0.0,0.0,0.0,0.0,0.0,0.0,0.0,0.0,0.0,0.0,0.0,0.0,0.0,0.0,0.0,0.0,0.0,0.0,0.0,0.0,0.0,0.0,0.0,0.0,0.0,0.0,0.0,0.0,0.0,0.0,0.0,0.0,0.0,0.0,0.0,0.0,0.0,0.0,0.0,0.0,0.0,0.0,0.0,0.0,0.0,0.0,0.0,0.0,0.0,0.0,0.0,0.0,0.0,0.0,0.0,0.0,0.0,0.0,0.0,0.0,0.0,0.0,0.0,0.0,0.0,0.0,0.0,0.0,0.0,0.0,0.0,0.0,0.0,0.0,0.0,0.0,0.0,0.0,0.0,0.0,0.0,0.0,0.0,0.0,0.0,0.0,0.0,0.0,0.0,0.0,0.0,0.0,0.0,0.0,0.0,0.0,0.0,0.0,0.0,0.0,0.0,0.0,0.0,0.0,0.0,0.0,0.0,0.0,0.0,0.0,0.0,0.0,0.0,0.0,0.0,0.0,0.0,0.0,0.0,0.0,0.0,0.0,0.0,0.0,0.0,0.0,0.0,0.0,0.0,0.0,0.0,0.0,0.0,0.0,0.0,0.0,0.0,0.0,0.0,0.0,0.0,0.0,0.0,0.0,0.0,0.0,0.0,0.0,0.0,0.0,0.0,0.0,0.0,0.0,0.0,0.0,0.0,0.0,0.0,0.0,0.0,0.0,0.0,0.0,0.0,0.0,0.0,0.0,0.0,0.0,0.0,0.0,0.0,0.0,0.0,0.0,0.0,0.0,0.0,0.0,0.0,0.0,0.0,0.0,0.0,0.0,0.0,0.0,0.0,0.0,0.0,0.0,0.0,0.0,0.0,0.0,0.0,0.0,0.0,0.0,0.0,0.0,0.0,0.0,0.0,0.0,0.0,0.0,0.0,0.0,0.0,0.0,0.0,0.0,0.0,0.0,0.0,0.0,0.0,0.0,0.0,0.0,0.0,0.0,0.0,0.0,0.0,0.0,0.0,0.0,0.0,0.0,0.0,0.0,0.0,0.0,0.0,0.0,0.0,0.0,0.0,0.0,0.0,0.0,0.0,0.0,0.0,0.0,0.0,0.0,0.0,0.0,0.0,0.0,0.0,0.0,0.0,0.0,0.0,0.0,0.0,0.0,0.0,0.0,0.0,0.0,0.0,0.0,0.0,0.0,0.0,0.0,0.0,0.0,0.0,0.0,0.0,0.0,0.0,0.0,0.0,0.0,0.0,0.0,0.0,0.0,0.0,0.0,0.0,0.0,0.0,0.0,0.0,0.0,0.0,0.0,0.0,0.0,0.0,0.0,0.0,0.0,0.0,0.0,0.0,0.0,0.0,0.0,0.0,0.0,0.0,0.0,0.0,0.0,0.0,0.0,0.0,0.0,0.0,0.0,0.0,0.0,0.0,0.0,0.0,0.0,0.0,0.0,0.0,0.0,0.0,0.0,0.0,0.0,0.0,0.0,0.0,0.0,0.0,0.0,0.0,0.0,0.0,0.0,0.0,0.0,0.0,0.0,0.0,0.0,0.0,0.0,0.0,0.0,0.0,0.0,0.0,0.0,0.0,0.0,0.0,0.0,0.0,0.0,0.0,0.0,0.0,0.0,0.0,0.0,0.0,0.0,0.0,0.0,0.0,0.0,0.0,0.0,0.0,0.0,0.0,0.0,0.0,0.0,0.0,0.0,0.0,0.0,0.0,0.0,0.0,0.0,0.0,0.0,0.0,0.0,0.0,0.0,0.0,0.0,0.0,0.0,0.0,0.0,0.0,0.0,0.0,0.0,0.0,0.0,0.0,0.0,0.0,0.0,0.0,0.0,0.0,0.0,0.0,0.0,0.0,0.0,0.0,0.0,0.0,0.0,0.0,0.0,0.0,0.0,0.0,0.0,0.0,0.0,0.0,0.0,0.0,0.0,0.0,0.0,0.0,0.0,0.0,0.0,0.0,0.0,0.0,0.0,0.0,0.0,0.0,0.0,0.0,0.0,0.0,0.0,0.0,0.0,0.0,0.0,0.0,0.0,0.0,0.0,0.0,0.0,0.0,0.0,0.0,0.0,0.0,0.0,0.0,0.0,0.0,0.0,0.0,0.0,0.0,0.0,0.0,0.0,0.0,0.0,0.0,0.0,0.0,0.0,0.0,0.0,0.0,0.0,0.0,0.0,0.0,0.0,0.0,0.0,0.0,0.0,0.0,0.0,0.0,0.0,0.0,0.0,0.0,0.0,0.0,0.0,0.0,0.0,0.0,0.0,0.0,0.0,0.0,0.0,0.0,0.0,0.0,0.0,0.0,0.0,0.0,0.0,0.0,0.0,0.0,0.0,0.0,0.0,0.0,0.0,0.0,0.0,0.0,0.0,0.0,0.0,0.0,0.0,0.0,0.0,0.0,0.0,0.0,0.0,0.0,0.0,0.0,0.0,0.0,0.0,0.0,0.0,0.0,0.0,0.0,0.0,0.0,0.0,0.0,0.0,0.0,0.0,0.0,0.0,0.0,0.0,0.0,0.0,0.0,0.0,0.0,0.0,0.0,0.0,0.0,0.0,0.0,0.0,0.0,0.0,0.0,0.0,0.0,0.0,0.0,0.0,0.0,0.0,0.0,0.0,0.0,0.0,0.0,0.0,0.0,0.0,0.0,0.0,0.0,0.0,0.0,0.0,0.0,0.0,0.0,0.0,0.0,0.0,0.0,0.0,0.0,0.0,0.0,0.0,0.0,0.0,0.0,0.0,0.0,0.0,0.0,0.0,0.0,0.0,0.0,0.0,0.0,0.0,0.0,0.0,0.0,0.0,0.0,0.0,0.0,0.0,0.0,0.0,0.0,0.0,0.0,0.0,0.0,0.0,0.0,0.0,0.0,0.0,0.0,0.0,0.0,0.0,0.0,0.0,0.0,0.0,0.0,0.0,0.0,0.0,0.0,0.0,0.0,0.0,0.0,0.0,0.0,0.0,0.0,0.0,0.0,0.0,0.0,0.0,0.0,0.0,0.0,0.0,0.0,0.0,0.0,0.0,0.0,0.0,0.0,0.0,0.0,0.0,0.0,0.0,0.0,0.0,0.0,0.0,0.0,0.0,0.0,0.0,0.0,0.0,0.0,0.0,0.0,0.0,0.0,0.0,0.0,0.0,0.0,0.0,0.0,0.0,0.0,0.0,0.0,0.0,0.0,0.0,0.0,0.0,0.0,0.0,0.0,0.0,0.0,0.0,0.0,0.0,0.0,0.0,0.0,0.0,0.0,0.0,0.0,0.0,0.0,0.0,0.0,0.0,0.0,0.0,0.0,0.0,0.0,0.0,0.0,0.0,0.0,0.0,0.0,0.0,0.0,0.0,0.0,0.0,0.0,0.0,0.0,0.0,0.0,0.0,0.0,0.0,0.0,0.0,0.0,0.0,0.0,0.0,0.0,0.0,0.0,0.0,0.0,0.0,0.0,0.0,0.0,0.0,0.0,0.0,0.0,0.0,0.0,0.0,0.0,0.0,0.0,0.0,0.0,0.0,0.0,0.0,0.0,0.0,0.0,0.0,0.0,0.0,0.0,0.0,0.0,0.0,0.0,0.0,0.0,0.0,0.0,0.0,0.0,0.0,0.0,0.0,0.0,0.0,0.0,0.0,0.0,0.0,0.0,0.0,0.0,0.0,0.0,0.0,0.0,0.0,0.0,0.0,0.0,0.0,0.0,0.0,0.0,0.0,0.0,0.0,0.0,0.0,0.0,0.0,0.0,0.0,0.0,0.0,0.0,0.0,0.0,0.0,0.0,0.0,0.0,0.0,0.0,0.0,0.0,0.0,0.0,0.0,0.0,0.0,0.0,0.0,0.0,0.0,0.0,0.0,0.0,0.0,0.0,0.0,0.0,0.0,0.0,0.0,0.0,0.0,0.0,0.0,0.0,0.0,0.0,0.0,0.0,0.0,0.0,0.0,0.0,0.0,0.0,0.0,0.0,0.0,0.0,0.0,0.0,0.0,0.0,0.0,0.0,0.0,0.0,0.0,0.0,0.0,0.0,0.0,0.0,0.0,0.0,0.0,0.0,0.0,0.0,0.0,0.0,0.0,0.0,0.0,0.0,0.0,0.0,0.0,0.0,0.0,0.0,0.0,0.0,0.0,0.0,0.0,0.0,0.0,0.0,0.0,0.0,0.0,0.0,0.0,0.0,0.0,0.0,0.0,0.0,0.0,0.0,0.0,0.0,0.0,0.0,0.0,0.0,0.0,0.0,0.0,0.0,0.0,0.0,0.0,0.0,0.0,0.0,0.0,0.0,0.0,0.0,0.0,0.0,0.0,0.0,0.0,0.0,0.0,0.0,0.0,0.0,0.0,0.0,0.0,0.0,0.0,0.0,0.0,0.0,0.0,0.0,0.0,0.0,0.0,0.0,0.0,0.0,0.0,0.0,0.0,0.0,0.0,0.0,0.0,0.0,0.0,0.0,0.0,0.0,0.0,0.0,0.0,0.0,0.0,0.0,0.0,0.0,0.0,0.0,0.0,0.0,0.0,0.0,0.0,0.0,0.0,0.0,0.0,0.0,0.0,0.106,0.1658,0.1649,0.2732,0.2778,0.1667,0.1575,0.2141,0.319,0.3234,0.3205,0.3107,0.3088,0.307,0.0,0.0,0.0,0.0,0.0,0.0,0.0,0.0,0.0,0.0,0.0,0.0,0.0,0.0,0.0,0.0,0.0,0.0,0.0,0.0,0.0,0.0,0.0,0.0,0.0,0.0,0.0,0.0,0.0,0.0,0.0,0.0,0.0,0.0,0.0,0.0,0.0,0.0,0.0,0.0,0.0,0.0,0.0,0.0,0.0,0.0,0.0,0.0,0.0,0.0,0.0,0.0,0.0,0.0,0.0,0.0,0.0,0.0,0.0,0.0,0.0,0.0,0.0,0.0,0.0,0.0,0.0,0.0,0.0,0.0,0.0,0.0,0.0,0.0,0.0,0.0,0.0,0.0,0.0,0.0,0.0,0.009,0.0538,0.0628,0.0628,0.0628,0.0987,0.1076,0.0718,0.0987,0.1256,0.1256,0.1256,0.1256,0.1256,0.1256,0.1256,0.1256,0.3103,0.4122,0.4084,0.5913,0.619,0.4628,0.4161,0.4796,0.6691,0.6696,0.6623,0.656,0.6532,0.6408,0.0,0.0,0.0,0.0,0.0,0.0,0.0,0.0,0.0,0.0,0.0,0.0,0.0,0.0,0.0,0.0,0.0,0.0,0.0,0.0,0.0,0.0,0.0,0.0,0.0,0.0,0.0,0.0,0.0,0.0,0.0,0.0,0.0,0.0,0.0,0.0,0.0,0.0,0.0,0.0,0.0,0.0,0.0,0.0,0.0,0.0,0.0,0.0,0.0,0.0,0.0,0.0,0.0,0.0,0.0,0.0,0.0,0.0,0.0,0.0,0.0,0.0,0.0,0.0,0.0,0.0,0.0,0.0,0.0,0.0,0.0,0.0,0.0,0.0,0.0,0.0,0.0,0.0,0.0,0.0,0.0,0.0628,0.2776,0.3134,0.3134,0.3134,0.4829,0.5454,0.3401,0.4919,0.6165,0.6165,0.6165,0.6165,0.6165,0.6165,0.6165,0.6165,0.646,0.6592,0.6582,0.6798,0.7654,0.9347,0.7311,0.6436,0.6686,0.6694,0.6649,0.6639,0.6585,0.6515,0.0,0.0,0.0,0.0,0.0,0.0,0.0,0.0,0.0,0.0,0.0,0.0,0.0,0.0,0.0,0.0,0.0,0.0,0.0,0.0,0.0,0.0,0.0,0.0,0.0,0.0,0.0,0.0,0.0,0.0,0.0,0.0,0.0,0.0,0.0,0.0,0.0,0.0,0.0,0.0,0.0,0.0,0.0,0.0,0.0,0.0,0.0,0.0,0.0,0.0,0.0,0.0,0.0,0.0,0.0,0.0,0.0,0.0,0.0,0.0,0.0,0.0,0.0,0.0,0.0,0.0,0.0,0.0,0.0,0.0,0.0,0.0987,0.1703,0.0359,0.2061,0.358,0.233,0.2061,0.2419,0.3759,0.3938,0.4295,0.5365,0.5544,0.5544,0.5544,0.6436,0.67,0.5722,0.6433,0.7057,0.7057,0.7057,0.7057,0.7057,0.7057,0.7057,0.7057,0.8357,0.911,0.8965,1.0274,1.1321,1.2198,0.9795,0.9207,1.0466,1.0413,1.0436,1.0367,1.026,1.0142,0.0,0.0,0.0,0.0,0.0,0.0,0.0,0.0,0.0,0.0,0.0,0.0,0.0,0.0,0.0,0.0,0.0,0.0,0.0,0.0,0.0,0.0,0.0,0.0,0.0,0.0,0.0,0.0,0.0,0.0,0.0,0.0,0.0,0.0,0.0,0.0,0.0,0.0,0.0,0.0,0.0,0.0,0.0,0.0,0.0,0.0,0.0,0.0,0.0,0.0,0.0,0.0,0.0,0.0,0.0,0.0,0.0,0.0,0.0,0.0,0.0,0.0,0.0,0.0,0.0,0.0,0.0,0.0,0.0,0.0,0.0,0.1345,0.224,0.0449,0.2687,0.5186,0.4561,0.4472,0.5008,0.679,0.7057,0.7324,0.7951,0.804,0.804,0.804,0.8575,0.8664,0.8129,0.8575,0.893,0.893,0.893,0.893,0.893,0.893,0.893,0.893,1.0629,1.1566,1.1478,1.3122,1.4014,1.3899,1.1932,1.1801,1.3458,1.3417,1.3342,1.3227,1.3193,1.3051,0.0,0.0,0.0,0.0,0.0,0.0,0.0,0.0,0.0,0.0,0.0,0.0,0.0,0.0,0.0,0.0,0.0,0.0,0.0,0.0,0.0,0.0,0.0,0.0,0.0,0.0,0.0,0.0,0.0,0.0,0.0,0.0,0.0,0.0,0.0,0.0,0.0,0.0,0.0,0.0,0.0,0.0,0.0,0.0,0.0,0.0,0.0,0.0,0.0,0.0,0.0,0.0,0.0,0.0,0.0,0.0,0.0,0.0,0.0,0.0,0.0,0.0,0.0,0.0,0.0,0.0,0.0,0.0,0.0,0.0,0.0,0.009,0.018,0.0,0.0179,0.1614,0.599,0.6882,0.6968,0.7057,0.7057,0.7862,1.0091,1.054,1.054,1.054,1.2414,1.3135,1.0806,1.2509,1.3938,1.3938,1.3938,1.3938,1.3938,1.3938,1.3938,1.3938,1.4033,1.4115,1.4108,1.4062,1.4068,1.4061,1.3727,1.3579,1.3614,1.3471,1.3397,1.3383,1.3241,1.3166,0.0,0.0,0.0,0.0,0.0,0.0,0.0,0.0,0.0,0.0,0.0,0.0,0.0,0.0,0.0,0.0,0.0,0.0,0.0,0.0,0.0,0.0,0.0,0.0,0.0,0.0,0.0,0.0,0.0,0.0,0.0,0.0,0.0,0.0,0.0,0.0,0.0,0.0,0.0,0.0,0.0,0.0,0.0,0.0,0.0,0.0,0.0,0.0,0.0,0.0,0.0,0.0,0.0,0.0,0.0,0.0,0.0,0.0,0.0,0.0,0.0,0.0,0.0,0.0,0.0,0.0,0.0,0.0,0.0,0.0,0.0,0.1166,0.3045,0.6165,0.6879,0.7773,1.0984,1.1699,1.1699,1.1699,1.1699,1.1971,1.2863,1.304,1.304,1.304,1.3761,1.4033,1.3135,1.3761,1.4299,1.4299,1.4299,1.4299,1.4299,1.4299,1.4299,1.4299,1.4299,1.4299,1.4299,1.4245,1.4217,1.4217,1.4068,1.3871,1.3627,1.3573,1.3498,1.3397,1.3342,1.3268,0.0,0.0,0.0,0.0,0.0,0.0,0.0,0.0,0.0,0.0,0.0,0.0,0.0,0.0,0.0,0.0,0.0,0.0,0.0,0.0,0.0,0.0,0.0,0.0,0.0,0.0,0.0,0.0,0.0,0.0,0.0,0.0,0.0,0.0,0.0,0.0,0.0,0.0,0.0,0.0,0.0,0.0,0.0,0.0,0.0,0.0,0.0,0.0,0.0,0.0,0.0,0.0,0.0,0.0,0.0,0.0,0.0,0.0,0.0,0.0,0.0,0.0,0.0,0.0,0.0,0.0,0.018,0.0987,0.1166,0.1434,0.215,0.358,0.5544,0.8753,1.0091,1.1161,1.2774,1.3761,1.4299,1.4299,1.4299,1.4299,1.4299,1.4299,1.4299,1.4299,1.4299,1.4299,1.4299,1.4299,1.4299,1.4299,1.4299,1.4299,1.4299,1.4299,1.4299,1.4299,1.4299,1.4299,1.4299,1.4299,1.4299,1.4299,1.4197,1.4027,1.3777,1.3675,1.3573,1.3478,1.3424,1.3315,0.0,0.0,0.0,0.0,0.0,0.0,0.0,0.0,0.0,0.0,0.0,0.0,0.0,0.0,0.0,0.0,0.0,0.0,0.0,0.0,0.0,0.0,0.0,0.0,0.0,0.0,0.0,0.0,0.0,0.0,0.0,0.0,0.0,0.0,0.0,0.0,0.0,0.0,0.0,0.0,0.0,0.0,0.0,0.0,0.0,0.0,0.0,0.0,0.0,0.0,0.0,0.0,0.0,0.0,0.0,0.0,0.0,0.0,0.0,0.0,0.0,0.0,0.0,0.0,0.009,0.009,0.0628,0.3045,0.3669,0.4206,0.6522,0.7149,0.7235,0.7235,0.9024,1.0811,1.0806,1.2686,1.4306,1.4299,1.4299,1.4299,1.4299,1.4299,1.4299,1.4299,1.4299,1.4299,1.4299,1.4299,1.4299,1.4299,1.4299,1.4299,1.4299,1.4299,1.4299,1.4299,1.4299,1.4299,1.4299,1.4299,1.4299,1.4299,1.4299,1.4224,1.4075,1.3783,1.3641,1.3627,1.3471,1.3322,0.0,0.0,0.0,0.0,0.0,0.0,0.0,0.0,0.0,0.0,0.0,0.0,0.0,0.0,0.0,0.0,0.0,0.0,0.0,0.0,0.0,0.0,0.0,0.0,0.0,0.0,0.0,0.0,0.0,0.0,0.0,0.0,0.0,0.0,0.0,0.0,0.0,0.0,0.0,0.0,0.0,0.0,0.0,0.0,0.0,0.0,0.0,0.0,0.0,0.0,0.0,0.0,0.0,0.0,0.0,0.0,0.0,0.0,0.0,0.0,0.0,0.0,0.0,0.0359,0.2061,0.2597,0.3134,0.5454,0.6165,0.6255,0.6968,0.8397,0.9735,0.9735,1.1582,1.3426,1.3331,1.3929,1.4421,1.4319,1.4299,1.4299,1.4299,1.4299,1.4299,1.4299,1.4299,1.4299,1.4299,1.4299,1.4299,1.4299,1.4299,1.4299,1.4299,1.4299,1.4299,1.4299,1.4299,1.4299,1.4299,1.4299,1.4299,1.4299,1.4299,1.4278,1.4238,1.4041,1.3838,1.3627,1.3471,1.3376,0.0,0.0,0.0,0.0,0.0,0.0,0.0,0.0,0.0,0.0,0.0,0.0,0.0,0.0,0.0,0.0,0.0,0.0,0.0,0.0,0.0,0.0,0.0,0.0,0.0,0.0,0.0,0.0,0.0,0.0,0.0,0.0,0.0,0.0,0.0,0.0,0.0,0.0,0.0,0.0,0.0,0.0,0.0,0.0,0.0,0.0,0.0,0.0,0.0,0.0,0.0,0.0,0.0,0.0,0.0,0.0,0.0,0.0,0.0,0.0,0.018,0.1166,0.1524,0.1971,0.4295,0.5097,0.5544,0.7951,0.9286,1.0091,1.0091,1.1161,1.2237,1.2237,1.3369,1.4401,1.4319,1.4367,1.4401,1.4319,1.4299,1.4299,1.4299,1.4299,1.4299,1.4299,1.4299,1.4299,1.4299,1.4299,1.4299,1.4299,1.4299,1.4299,1.4299,1.4299,1.4299,1.4299,1.4299,1.4299,1.4299,1.4299,1.4299,1.4299,1.4299,1.4299,1.4299,1.415,1.3953,1.3715,1.3566,1.3498,0.0,0.0,0.0,0.0,0.0,0.0,0.0378,0.0318,0.025,0.0084,0.0,0.0,0.0,0.0,0.0,0.0,0.0,0.0,0.0,0.0,0.0,0.0,0.0,0.0,0.0,0.0,0.0,0.0,0.0,0.0,0.0,0.0,0.0,0.0,0.0,0.0,0.0,0.0,0.0,0.0,0.0,0.0,0.0,0.0,0.0,0.0,0.0,0.0,0.0,0.0,0.0,0.0,0.0,0.0,0.0,0.0,0.0,0.0,0.0,0.018,0.0718,0.2866,0.3759,0.4383,0.679,0.7506,0.8037,1.0446,1.2686,1.4299,1.4299,1.4299,1.4299,1.4299,1.4312,1.4319,1.4306,1.4312,1.4319,1.4306,1.4299,1.4299,1.4299,1.4299,1.4299,1.4299,1.4299,1.4299,1.4299,1.4299,1.4299,1.4299,1.4299,1.4299,1.4299,1.4299,1.4299,1.4299,1.4299,1.4299,1.4299,1.4299,1.4299,1.4299,1.4299,1.4299,1.4299,1.415,1.4,1.3865,1.3722,1.3654,0.0,0.0,0.0,0.0,0.0,0.0,0.2707,0.2369,0.1874,0.0325,0.0,0.0,0.0,0.0,0.0,0.0,0.0,0.0,0.0,0.0,0.0,0.0,0.0,0.0,0.0,0.0,0.0,0.0,0.0,0.0,0.0,0.0,0.0,0.0,0.0,0.0,0.0,0.0,0.0,0.0,0.0,0.0,0.0,0.0,0.0,0.0,0.0,0.0,0.0,0.0,0.0,0.0,0.0,0.0,0.0,0.0,0.0,0.0,0.0,0.1255,0.2955,0.349,0.4919,0.6879,0.9286,1.0002,1.054,1.2952,1.3938,1.4299,1.4299,1.4299,1.4299,1.4299,1.4387,1.4441,1.4326,1.4387,1.4434,1.4326,1.4299,1.4299,1.4299,1.4299,1.4299,1.4299,1.4299,1.4299,1.4299,1.4299,1.4299,1.4299,1.4299,1.4299,1.4299,1.4299,1.4299,1.4299,1.4299,1.4299,1.4299,1.4299,1.4299,1.4299,1.4299,1.4299,1.4299,1.415,1.4055,1.4021,1.3871,1.3797,0.0,0.0,0.0,0.5633,0.0,0.0,0.0,0.4376,0.4063,0.3067,0.2981,0.2948,0.2866,0.2149,0.1502,0.1427,0.0673,0.0,0.0,0.0,0.0,0.0,0.0,0.0,0.0,0.0,0.0,0.0,0.0,0.0,0.0,0.0,0.0,0.0,0.0,0.0,0.0,0.0,0.0,0.0,0.0,0.0,0.0,0.0,0.0,0.0,0.0,0.0,0.0,0.0,0.0,0.0,0.0,0.0,0.018,0.1345,0.1793,0.1971,0.3134,0.4293,0.5544,0.679,0.7951,0.9375,1.1788,1.2503,1.2774,1.3938,1.4299,1.4299,1.4299,1.4299,1.4299,1.4299,1.4353,1.4387,1.4319,1.4353,1.4387,1.4312,1.4299,1.4299,1.4299,1.4299,1.4299,1.4299,1.4299,1.4299,1.4299,1.4299,1.4299,1.4299,1.4299,1.4299,1.4299,1.4299,1.4299,1.4299,1.4299,1.4299,1.4299,1.4299,1.4299,1.4299,1.4299,1.4299,1.4299,1.4224,1.4183,1.4183,1.4027,1.3953,0.0,0.0,0.0,0.0,0.0,0.6363,0.0,0.0,0.0,0.5905,0.5893,0.5982,0.5883,0.4328,0.3095,0.2957,0.1285,0.0,0.0,0.0,0.0,0.0,0.0,0.0,0.0,0.0,0.0,0.0,0.0,0.0,0.0,0.0,0.0,0.0,0.0,0.0,0.0,0.0,0.0,0.0,0.0,0.0,0.0,0.0,0.0,0.0,0.0,0.0,0.0,0.0538,0.0718,0.0718,0.0718,0.0718,0.0987,0.3403,0.4295,0.4561,0.6436,0.7413,0.8129,1.0091,1.0984,1.1788,1.3673,1.4299,1.4299,1.4299,1.4299,1.4299,1.4299,1.4299,1.4299,1.4299,1.4299,1.4299,1.4299,1.4299,1.4299,1.4299,1.4299,1.4299,1.4299,1.4299,1.4299,1.4299,1.4299,1.4299,1.4299,1.4299,1.4299,1.4299,1.4299,1.4299,1.4299,1.4299,1.4299,1.4299,1.4299,1.4299,1.4299,1.4299,1.4299,1.4299,1.4299,1.4299,1.4299,1.4299,1.4299,1.4299,1.4177,1.4116,0.0,0.0,0.0,0.0,0.8358,0.0,0.0,0.0,0.7918,0.6343,0.0,0.6042,0.6244,0.0,0.0,0.3052,0.1308,0.0,0.0,0.0,0.0,0.0,0.0,0.0,0.0,0.0,0.0,0.0,0.0,0.0,0.0,0.0,0.0,0.0,0.0,0.0,0.0,0.0,0.0,0.0,0.0,0.0,0.0,0.0,0.0,0.0,0.0,0.0,0.018,0.233,0.3224,0.3224,0.3224,0.3224,0.349,0.5811,0.67,0.67,0.6968,0.8486,1.0357,1.0629,1.2148,1.3938,1.421,1.4299,1.4299,1.4299,1.4299,1.4299,1.4299,1.4299,1.4299,1.4299,1.4299,1.4299,1.4299,1.4299,1.4299,1.4299,1.4299,1.4299,1.4299,1.4299,1.4299,1.4299,1.4299,1.4299,1.4299,1.4299,1.4299,1.4299,1.4299,1.4299,1.4299,1.4299,1.4299,1.4299,1.4299,1.4299,1.4299,1.4299,1.4299,1.4299,1.4299,1.4299,1.4299,1.4299,1.4299,1.4299,1.4285,1.4272,0.0,0.0,0.0,0.0,0.0,0.0,0.0,0.0,1.0325,0.0,0.0,0.0,0.0,0.0,0.0,0.0,0.3907,0.1779,0.1799,0.0787,0.0,0.0,0.0,0.0,0.0,0.0,0.0,0.0,0.0,0.0,0.0,0.0,0.0,0.0,0.0,0.0,0.0,0.0,0.0,0.0,0.0,0.0,0.009,0.1434,0.2061,0.215,0.349,0.4116,0.4206,0.5186,0.5633,0.5811,0.7149,0.6879,0.5901,0.8308,0.9197,0.9375,1.0806,1.1971,1.2774,1.2774,1.3489,1.4299,1.4299,1.4299,1.4299,1.4299,1.4299,1.4299,1.4299,1.436,1.4401,1.4319,1.4428,1.4529,1.4441,1.4489,1.4529,1.4441,1.4496,1.4529,1.4434,1.4353,1.4299,1.4299,1.4299,1.4299,1.4299,1.4299,1.4299,1.4299,1.4299,1.4299,1.4299,1.4299,1.4299,1.4299,1.4299,1.4299,1.4299,1.4299,1.4299,1.4299,1.4299,1.4299,1.4299,1.4299,1.4299,1.4299,1.4299,1.4299,0.2129,0.0,0.0,0.0,0.0,0.0,0.0,0.0,0.0,0.0,0.0,0.0,0.0,0.0,0.0,0.0,0.0,0.3775,0.0,0.1777,0.0,0.0,0.0,0.0,0.0,0.0,0.0,0.0,0.0,0.0,0.0,0.0,0.0,0.0,0.0627,0.0628,0.0,0.0628,0.0628,0.0,0.0628,0.0987,0.1076,0.349,0.4561,0.4651,0.6344,0.7057,0.7149,0.7773,0.8129,0.8308,1.0717,1.0629,0.9286,1.1072,1.1699,1.1971,1.3673,1.4299,1.4299,1.4299,1.4299,1.4299,1.4299,1.4299,1.4306,1.4346,1.436,1.4367,1.4407,1.4496,1.455,1.4441,1.4584,1.4713,1.4597,1.4658,1.4706,1.4597,1.4631,1.4658,1.4584,1.4455,1.436,1.436,1.4326,1.4299,1.4299,1.4299,1.4299,1.4299,1.4299,1.4299,1.4299,1.4299,1.4299,1.4299,1.4299,1.4299,1.4299,1.4299,1.4299,1.4299,1.4299,1.4299,1.4299,1.4299,1.4299,1.4299,1.4299,1.4299,0.0,0.0,0.0,0.2495,0.0,0.0,0.0,0.0,0.9571,0.0,0.0,0.0,0.0,0.0,0.0,0.0,0.0,0.0,0.0,0.0,0.0,0.0,0.0,0.0,0.0,0.0,0.0,0.0,0.0,0.0,0.0,0.0,0.0,0.0,0.2228,0.233,0.0,0.233,0.233,0.0,0.233,0.349,0.358,0.5901,0.6968,0.6968,0.7057,0.7057,0.7324,0.9646,1.054,1.0806,1.3224,1.4122,1.4122,1.4122,1.421,1.421,1.4299,1.4299,1.4299,1.4299,1.4299,1.4299,1.4299,1.4299,1.4326,1.4468,1.4502,1.4536,1.4685,1.4726,1.4733,1.4726,1.4733,1.474,1.4733,1.4733,1.474,1.4733,1.4618,1.4563,1.4706,1.4604,1.4502,1.4502,1.4387,1.4299,1.4299,1.4299,1.4299,1.4299,1.4299,1.4299,1.4299,1.4299,1.4299,1.4299,1.4299,1.4299,1.4299,1.4299,1.4299,1.4299,1.4299,1.4299,1.4299,1.4299,1.4299,1.4299,1.4299,1.4299,0.0,0.0,0.0169,0.0837,0.0,0.0,0.0,0.0,0.0,0.0,0.0,0.0,0.0,0.0,0.0,0.0,0.0,0.0,0.0,0.0,0.0,0.0,0.0,0.0,0.0,0.0,0.0,0.0,0.0,0.0,0.0,0.1467,0.228,0.2391,0.4632,0.4706,0.2418,0.3224,0.3224,0.2419,0.3224,0.4383,0.5987,0.8397,0.9464,0.9553,1.1161,1.1876,1.1971,1.2774,1.3046,1.3135,1.3945,1.4299,1.4299,1.4299,1.4299,1.4299,1.4299,1.4299,1.4299,1.4299,1.4299,1.4299,1.4299,1.4367,1.4448,1.4496,1.4584,1.4672,1.4726,1.4814,1.4869,1.4767,1.4889,1.5004,1.4916,1.4964,1.5004,1.4909,1.4923,1.4909,1.4767,1.4699,1.4665,1.4665,1.4536,1.4441,1.4441,1.436,1.4299,1.4299,1.4299,1.4299,1.4299,1.4299,1.4299,1.4299,1.4299,1.4299,1.4299,1.4299,1.4299,1.4299,1.4299,1.4299,1.4299,1.4299,1.4299,1.4299,1.4299,1.4299,0.0,0.0,0.0,0.0,0.0935,0.0,0.456,0.0,0.0,0.0,0.0,0.0,0.0,0.0,0.0,0.0,0.0,0.0,0.0,0.743,0.0,0.0,0.0,0.0,0.0,0.0,0.0,0.0,0.0,0.0,0.0,0.2507,0.3693,0.45,0.6904,0.7071,0.4829,0.5722,0.5722,0.4829,0.5722,0.6882,0.8486,1.0895,1.1971,1.2059,1.3584,1.4299,1.4299,1.4299,1.4299,1.4299,1.4299,1.4299,1.4299,1.4299,1.4299,1.4299,1.4299,1.4299,1.4299,1.4299,1.4299,1.4299,1.4299,1.4401,1.4543,1.4706,1.4787,1.4862,1.5018,1.5052,1.5025,1.4923,1.5045,1.516,1.5065,1.512,1.5153,1.5065,1.5079,1.5065,1.4923,1.4855,1.4801,1.4746,1.4563,1.4475,1.4577,1.4421,1.4319,1.4373,1.4333,1.4319,1.4373,1.4326,1.4319,1.4373,1.4326,1.4299,1.4299,1.4299,1.4373,1.4536,1.438,1.438,1.4536,1.438,1.4299,1.4299,1.4299,1.4299]},{"header":{"parameterUnit":"m.s-1","parameterCategory":1,"la1":30.6,"la2":29.2853,"lo1":-89.7004,"lo2":-87.6739,"dy":0.0162,"dx":0.0183,"nx":112,"ny":82,"refTime":"2023-09-30T12:00:00:Z","depth":0,"parameterNumber":3,"parameterNumberName":"V-component_of_WINDS"},"data":[0.0,0.0,0.0,0.0,0.0,0.0,0.0,0.0,0.0,0.0,0.0,0.0,0.0,0.0,0.0,0.0,0.0,0.0,0.0,0.0,0.0,0.0,0.0,0.0,0.0,0.0,0.0,0.0,0.0,0.0,0.0,0.0,0.0,0.0,0.0,0.0,0.0,0.0,0.0,0.0,0.0,0.0,0.0,0.0,0.0,0.0,0.0,0.0,0.0,0.0,0.0,0.0,0.0,0.0,0.0,0.0,0.0,0.0,0.0,0.0,0.0,0.0,0.0,0.0,0.0,0.0,0.0,0.0,0.0,0.0,0.0,0.0,0.0,0.0,0.0,0.0,0.0,0.0,0.0,0.0,0.0,0.0,0.0,0.0,0.0,0.0,0.0,0.0,0.0,0.0,3.5362,3.8028,4.3342,4.7559,4.9833,5.0042,4.7737,4.2277,0.0,0.0,0.0,0.0,0.0,0.0,0.0,0.0,0.0,0.0,0.0,0.0,0.0,0.0,0.0,0.0,0.0,0.0,0.0,0.0,0.0,0.0,0.0,0.0,0.0,0.0,0.0,0.0,0.0,0.0,0.0,0.0,0.0,0.0,0.0,0.0,0.0,0.0,0.0,0.0,0.0,0.0,0.0,0.0,0.0,0.0,0.0,0.0,0.0,0.0,0.0,0.0,0.0,0.0,0.0,0.0,0.0,0.0,0.0,0.0,0.0,0.0,0.0,0.0,0.0,0.0,0.0,0.0,0.0,0.0,0.0,0.0,0.0,0.0,0.0,0.0,0.0,0.0,0.0,0.0,0.0,0.0,0.0,0.0,0.0,0.0,0.0,0.0,0.0,0.0,0.0,0.0,0.0,0.0,0.0,0.0,0.0,0.0,0.0,0.0,0.0,0.0,0.0,0.0,3.5839,4.1786,4.4298,4.6244,4.804,4.7268,4.4905,4.0522,0.0,0.0,0.0,0.0,0.0,0.0,0.0,0.0,0.0,0.0,0.0,0.0,0.0,0.0,0.0,0.0,0.0,0.0,0.0,0.0,0.0,0.0,0.0,0.0,0.0,0.0,0.0,0.0,0.0,0.0,0.0,0.0,0.0,0.0,0.0,0.0,0.0,0.0,0.0,0.0,0.0,0.0,0.0,0.0,0.0,0.0,0.0,0.0,0.0,0.0,0.0,0.0,0.0,0.0,0.0,0.0,0.0,0.0,0.0,0.0,0.0,0.0,0.0,0.0,0.0,0.0,0.0,0.0,0.0,0.0,0.0,0.0,0.0,0.0,0.0,0.0,0.0,0.0,0.0,0.0,0.0,0.0,0.0,0.0,0.0,0.0,0.0,0.0,0.0,0.0,0.0,0.0,0.0,0.0,0.0,0.0,0.0,0.0,0.0,0.0,0.0,0.0,0.0,3.4645,3.8251,4.33,4.4407,4.5455,4.719,4.6403,4.4141,4.0127,3.9877,0.0,0.0,0.0,0.0,0.0,0.0,0.0,0.0,0.0,0.0,0.0,0.0,0.0,0.0,0.0,0.0,0.0,0.0,0.0,0.0,0.0,0.0,0.0,0.0,0.0,0.0,0.0,0.0,0.0,0.0,0.0,0.0,0.0,0.0,0.0,0.0,0.0,0.0,0.0,0.0,0.0,0.0,0.0,0.0,0.0,0.0,0.0,0.0,0.0,0.0,0.0,0.0,0.0,0.0,0.0,0.0,0.0,0.0,0.0,0.0,0.0,0.0,0.0,0.0,0.0,0.0,0.0,0.0,0.0,0.0,0.0,0.0,0.0,0.0,0.0,0.0,0.0,0.0,0.0,0.0,0.0,0.0,0.0,0.0,0.0,0.0,0.0,0.0,0.0,0.0,0.0,0.0,0.0,0.0,0.0,0.0,0.0,0.0,0.0,0.0,0.0,0.0,3.744,4.0275,4.3728,4.4077,4.468,4.6164,4.5619,4.3505,3.9377,3.8607,0.0,0.0,0.0,0.0,0.0,0.0,0.0,0.0,0.0,0.0,0.0,0.0,0.0,0.0,0.0,0.0,0.0,0.0,0.0,0.0,0.0,0.0,0.0,0.0,0.0,0.0,0.0,0.0,0.0,0.0,0.0,0.0,0.0,0.0,0.0,0.0,0.0,0.0,0.0,0.0,0.0,0.0,0.0,0.0,0.0,0.0,0.0,0.0,0.0,0.0,0.0,0.0,0.0,0.0,0.0,0.0,0.0,0.0,0.0,0.0,0.0,0.0,0.0,0.0,0.0,0.0,0.0,0.0,0.0,0.0,0.0,0.0,0.0,0.0,0.0,0.0,0.0,0.0,0.0,0.0,0.0,0.0,0.0,0.0,0.0,0.0,0.0,0.0,0.0,0.0,0.0,0.0,0.0,0.0,0.0,0.0,0.0,0.0,0.0,0.0,0.0,0.0,3.6599,4.0375,4.308,4.3349,4.3658,4.4438,4.4159,4.1863,3.7044,3.6869,0.0,0.0,0.0,0.0,0.0,0.0,0.0,0.0,0.0,0.0,0.0,0.0,0.0,0.0,0.0,0.0,0.0,0.0,0.0,0.0,0.0,0.0,0.0,0.0,0.0,0.0,0.0,0.0,0.0,0.0,0.0,0.0,0.0,0.0,0.0,0.0,0.0,0.0,0.0,0.0,0.0,0.0,0.0,0.0,0.0,0.0,0.0,0.0,0.0,0.0,0.0,0.0,0.0,0.0,0.0,0.0,0.0,0.0,0.0,0.0,0.0,0.0,0.0,0.0,0.0,0.0,0.0,0.0,0.0,0.0,0.0,0.0,0.0,0.0,0.0,0.0,0.0,0.0,0.0,0.0,0.0,0.0,0.0,0.0,0.0,0.0,0.0,0.0,0.0,0.0,0.0,0.0,0.0,0.0,0.0,0.0,0.0,0.0,0.0,0.0,0.0,0.0,3.7165,4.0577,0.0,4.329,4.3379,4.3648,4.3678,4.1664,3.6813,0.0,0.0,0.0,0.0,0.0,0.0,0.0,0.0,0.0,0.0,0.0,0.0,0.0,0.0,0.0,0.0,0.0,0.0,0.0,0.0,0.0,0.0,0.0,0.0,0.0,0.0,0.0,0.0,0.0,0.0,0.0,0.0,0.0,0.0,0.0,0.0,0.0,0.0,0.0,0.0,0.0,0.0,0.0,0.0,0.0,0.0,0.0,0.0,0.0,0.0,0.0,0.0,0.0,0.0,0.0,0.0,0.0,0.0,0.0,0.0,0.0,0.0,0.0,0.0,0.0,0.0,0.0,0.0,0.0,0.0,0.0,0.0,0.0,0.0,0.0,0.0,0.0,0.0,0.0,0.0,0.0,0.0,0.0,0.0,0.0,0.0,0.0,0.0,0.0,0.0,0.0,0.0,0.0,0.0,0.0,0.0,0.0,0.0,0.0,0.0,0.0,0.0,3.3852,3.7747,4.1067,0.0,4.329,4.329,4.329,4.3556,4.1572,3.6514,0.0,0.0,0.0,0.0,0.0,0.0,0.0,0.0,0.0,0.0,0.0,0.0,0.0,0.0,0.0,0.0,0.0,0.0,0.0,0.0,0.0,0.0,0.0,0.0,0.0,0.0,0.0,0.0,0.0,0.0,0.0,0.0,0.0,0.0,0.0,0.0,0.0,0.0,0.0,0.0,0.0,0.0,0.0,0.0,0.0,0.0,0.0,0.0,0.0,0.0,0.0,0.0,0.0,0.0,0.0,0.0,0.0,0.0,0.0,0.0,0.0,0.0,0.0,0.0,0.0,0.0,0.0,0.0,0.0,0.0,0.0,0.0,0.0,0.0,0.0,0.0,0.0,0.0,0.0,0.0,0.0,0.0,0.0,0.0,0.0,0.0,0.0,0.0,0.0,0.0,0.0,0.0,0.0,0.0,0.0,0.0,0.0,0.0,0.0,0.0,0.0,0.0,3.3339,3.8127,4.1893,4.317,4.329,4.3319,4.3359,4.3631,4.1427,0.0,0.0,0.0,0.0,0.0,0.0,0.0,0.0,0.0,0.0,0.0,0.0,0.0,0.0,0.0,0.0,0.0,0.0,0.0,0.0,0.0,0.0,0.0,0.0,0.0,0.0,0.0,0.0,0.0,0.0,0.0,0.0,0.0,0.0,0.0,0.0,0.0,0.0,0.0,0.0,0.0,0.0,0.0,0.0,0.0,0.0,0.0,0.0,0.0,0.0,0.0,0.0,0.0,0.0,0.0,0.0,0.0,0.0,0.0,0.0,0.0,0.0,0.0,0.0,0.0,0.0,0.0,0.0,0.0,0.0,0.0,0.0,0.0,0.0,0.0,0.0,0.0,0.0,0.0,0.0,0.0,0.0,0.0,0.0,0.0,0.0,0.0,0.0,0.0,0.0,0.0,0.0,0.0,0.0,0.0,0.0,0.0,0.0,0.0,0.0,0.0,0.0,0.0,3.4753,3.9092,4.2581,4.3898,4.4018,4.4268,4.4916,4.4815,4.2336,3.6847,0.0,0.0,0.0,0.0,0.0,0.0,0.0,0.0,0.0,0.0,0.0,0.0,0.0,0.0,0.0,0.0,0.0,0.0,0.0,0.0,0.0,0.0,0.0,0.0,0.0,0.0,0.0,0.0,0.0,0.0,0.0,0.0,0.0,0.0,0.0,0.0,0.0,0.0,0.0,0.0,0.0,0.0,0.0,0.0,0.0,0.0,0.0,0.0,0.0,0.0,0.0,0.0,0.0,0.0,0.0,0.0,0.0,0.0,0.0,0.0,0.0,0.0,0.0,0.0,0.0,0.0,0.0,0.0,0.0,0.0,0.0,0.0,0.0,0.0,0.0,0.0,0.0,0.0,0.0,0.0,0.0,0.0,0.0,0.0,0.0,0.0,0.0,0.0,0.0,0.0,0.0,0.0,0.0,0.0,0.0,0.0,0.0,0.0,0.0,0.0,0.0,0.0,3.5917,4.0325,4.3745,4.4737,4.5141,4.5449,4.5688,4.6211,4.4393,3.9311,0.0,0.0,0.0,0.0,0.0,0.0,0.0,0.0,0.0,0.0,0.0,0.0,0.0,0.0,0.0,0.0,0.0,0.0,0.0,0.0,0.0,0.0,0.0,0.0,0.0,0.0,0.0,0.0,0.0,0.0,0.0,0.0,0.0,0.0,0.0,0.0,0.0,0.0,0.0,0.0,0.0,0.0,0.0,0.0,0.0,0.0,0.0,0.0,0.0,0.0,0.0,0.0,0.0,0.0,0.0,0.0,0.0,0.0,0.0,0.0,0.0,0.0,0.0,0.0,0.0,0.0,0.0,0.0,0.0,0.0,0.0,0.0,0.0,0.0,0.0,0.0,0.0,0.0,0.0,0.0,0.0,0.0,0.0,0.0,0.0,0.0,0.0,0.0,0.0,0.0,0.0,0.0,0.0,0.0,0.0,0.0,0.0,0.0,0.0,0.0,0.0,0.0,3.6997,4.1735,4.5266,4.5981,4.671,4.6874,4.622,4.7755,4.6913,4.2716,0.0,0.0,0.0,0.0,0.0,0.0,0.0,0.0,0.0,0.0,0.0,0.0,0.0,0.0,0.0,0.0,0.0,0.0,0.0,0.0,0.0,0.0,0.0,0.0,0.0,0.0,0.0,0.0,0.0,0.0,0.0,0.0,0.0,0.0,0.0,0.0,0.0,0.0,0.0,0.0,0.0,0.0,0.0,0.0,0.0,0.0,0.0,0.0,0.0,0.0,0.0,0.0,0.0,0.0,0.0,0.0,0.0,0.0,0.0,0.0,5.6641,0.0,0.0,0.0,0.0,0.0,0.0,0.0,0.0,0.0,0.0,0.0,0.0,0.0,0.0,0.0,0.0,0.0,0.0,0.0,0.0,0.0,0.0,0.0,0.0,0.0,0.0,0.0,0.0,0.0,0.0,0.0,0.0,0.0,0.0,0.0,0.0,0.0,0.0,0.0,0.0,0.0,3.8341,4.3358,4.723,4.8471,4.8763,4.9096,4.9664,4.9077,4.7441,4.4436,4.3734,0.0,0.0,0.0,0.0,0.0,0.0,0.0,0.0,0.0,0.0,0.0,0.0,0.0,0.0,0.0,0.0,0.0,0.0,0.0,0.0,0.0,0.0,0.0,0.0,0.0,0.0,0.0,0.0,0.0,0.0,0.0,0.0,0.0,0.0,0.0,0.0,0.0,0.0,0.0,0.0,0.0,0.0,0.0,0.0,0.0,0.0,0.0,0.0,0.0,0.0,0.0,0.0,0.0,0.0,0.0,0.0,0.0,0.0,0.0,0.0,5.7464,0.0,0.0,0.0,0.0,0.0,0.0,0.0,0.0,0.0,0.0,0.0,0.0,0.0,0.0,0.0,0.0,0.0,0.0,0.0,0.0,0.0,0.0,0.0,0.0,0.0,0.0,0.0,0.0,0.0,0.0,0.0,0.0,0.0,0.0,0.0,0.0,0.0,0.0,0.0,0.0,3.9948,4.5014,4.8881,4.9953,5.0375,5.066,5.0763,5.0589,4.9557,4.7474,4.5963,0.0,0.0,0.0,0.0,0.0,0.0,0.0,0.0,0.0,0.0,0.0,0.0,0.0,0.0,0.0,0.0,0.0,0.0,0.0,0.0,0.0,0.0,0.0,0.0,0.0,0.0,0.0,0.0,0.0,0.0,0.0,0.0,0.0,0.0,0.0,0.0,0.0,0.0,0.0,0.0,0.0,0.0,0.0,0.0,0.0,0.0,0.0,0.0,0.0,0.0,0.0,0.0,0.0,6.6508,6.6434,6.6358,6.6358,6.5882,6.4899,6.2871,6.1961,6.1796,5.9841,0.0,0.0,0.0,0.0,0.0,0.0,0.0,0.0,0.0,0.0,0.0,0.0,0.0,0.0,0.0,0.0,0.0,0.0,0.0,0.0,0.0,0.0,0.0,0.0,5.2422,5.1263,4.8311,0.0,0.0,0.0,0.0,0.0,0.0,0.0,0.0,0.0,0.0,0.0,4.1631,4.6545,5.0317,5.1179,5.1841,5.194,5.1345,5.19,5.1725,5.0371,4.7902,4.5974,0.0,0.0,0.0,0.0,0.0,0.0,0.0,0.0,0.0,0.0,0.0,0.0,0.0,0.0,0.0,0.0,0.0,0.0,0.0,0.0,0.0,0.0,0.0,0.0,0.0,0.0,0.0,0.0,0.0,0.0,0.0,0.0,5.664,5.7294,0.0,0.0,0.0,0.0,0.0,0.0,0.0,0.0,0.0,0.0,0.0,0.0,0.0,6.3066,6.4863,6.7038,6.7858,6.7465,7.0026,7.0878,7.0239,7.0239,7.0941,7.2004,6.9713,0.0,6.2844,6.3084,0.0,0.0,0.0,0.0,0.0,0.0,0.0,0.0,0.0,0.0,0.0,0.0,0.0,0.0,0.0,0.0,0.0,0.0,0.0,0.0,0.0,0.0,5.7045,5.8015,5.6241,5.457,0.0,5.0729,4.6366,4.6099,4.4019,0.0,0.0,0.0,0.0,0.0,0.0,0.0,4.2965,4.778,5.1528,5.3011,5.3247,5.3247,5.3146,5.2639,5.1961,5.1116,5.0101,4.8308,4.5669,4.7293,0.0,0.0,0.0,0.0,0.0,0.0,0.0,0.0,0.0,0.0,0.0,0.0,0.0,0.0,0.0,0.0,0.0,0.0,0.0,0.0,0.0,0.0,0.0,0.0,0.0,0.0,0.0,0.0,0.0,5.7578,5.9112,5.7621,5.7335,5.6094,0.0,0.0,0.0,0.0,0.0,0.0,0.0,0.0,0.0,6.3147,6.5268,6.689,6.8035,7.033,7.178,7.2391,7.374,7.4431,7.454,7.454,7.4918,7.5566,7.4577,7.2418,6.9491,6.7086,6.4281,6.127,0.0,0.0,0.0,0.0,5.2901,5.3717,5.5669,5.6877,5.7694,5.86,0.0,0.0,0.0,0.0,0.0,0.0,0.0,0.0,0.0,0.0,5.7949,5.9525,5.9594,5.9237,5.9023,5.5651,5.2109,0.0,4.7523,4.4807,4.2856,0.0,0.0,0.0,0.0,4.4922,4.5831,4.9371,5.2266,5.3382,5.3518,5.3518,5.3518,5.3179,5.2638,5.1894,5.115,5.015,4.8826,4.9272,4.8437,0.0,0.0,0.0,0.0,0.0,0.0,0.0,0.0,0.0,0.0,0.0,0.0,0.0,0.0,0.0,0.0,0.0,0.0,0.0,0.0,0.0,0.0,0.0,0.0,0.0,0.0,0.0,0.0,6.0178,6.1763,5.9556,6.0469,5.9759,0.0,0.0,0.0,0.0,0.0,0.0,6.2523,6.4389,6.5987,6.7201,6.9563,7.1404,7.2569,7.4368,7.5763,7.6754,7.6754,7.6937,7.7273,7.7273,7.7273,7.7273,7.7273,7.6613,7.5152,7.0731,6.7563,6.5149,6.2785,6.0249,5.7925,5.716,5.6885,5.7209,5.9289,6.0576,6.1277,6.166,6.0636,5.8569,5.515,0.0,0.0,0.0,0.0,5.291,5.4689,5.6564,5.836,5.9993,6.1484,6.213,6.0768,5.8518,5.6165,0.0,5.1137,4.834,4.618,0.0,0.0,0.0,0.0,4.7973,4.8173,5.0608,5.2604,5.3416,5.3518,5.3518,5.3518,5.3518,5.3179,5.2367,5.1953,5.1614,5.1251,5.0793,5.0309,4.9781,0.0,0.0,0.0,0.0,0.0,0.0,0.0,0.0,0.0,0.0,0.0,0.0,0.0,0.0,0.0,0.0,0.0,0.0,0.0,0.0,0.0,0.0,0.0,0.0,0.0,0.0,0.0,0.0,0.0,6.5915,6.8087,0.0,0.0,0.0,0.0,6.1727,6.3111,6.5059,6.7306,6.8283,7.0835,7.5372,7.5629,7.687,7.9286,7.9433,7.914,7.8479,7.8479,7.8075,7.7273,7.7273,7.7273,7.7273,7.7273,7.7237,7.6907,7.3641,7.085,6.8222,6.3651,6.1343,6.0149,5.7071,5.7366,5.9522,6.0968,6.2022,6.3342,6.7156,6.5405,6.0982,5.6968,5.4758,0.0,0.0,5.4448,5.5825,5.6493,5.8464,6.0261,6.0382,6.1043,6.1447,6.0591,5.8081,5.6078,0.0,5.4229,5.2139,5.1979,0.0,4.8278,4.6699,4.7273,4.8142,4.8849,5.0913,5.2604,5.3416,5.3518,5.3518,5.3518,5.3518,5.3179,5.2367,5.2969,5.274,5.1251,5.1813,5.2183,5.2104,5.0019,0.0,0.0,0.0,0.0,0.0,0.0,0.0,0.0,0.0,0.0,0.0,0.0,0.0,0.0,0.0,0.0,0.0,0.0,0.0,0.0,0.0,0.0,0.0,0.0,0.0,0.0,0.0,0.0,6.8602,7.0076,0.0,6.6733,6.7276,6.7431,6.6632,6.9884,7.248,7.3855,7.4732,7.5989,7.7671,7.7708,7.8112,7.9029,7.9029,7.914,7.936,7.8295,7.7892,7.8112,7.753,7.7273,7.7273,7.7273,7.7273,7.7127,7.4955,7.323,7.1742,6.8995,6.6809,6.5149,6.4493,6.4134,6.4077,6.4589,6.4604,6.431,6.3649,6.1947,5.9797,5.7825,5.6903,5.6455,5.639,5.6802,5.7288,5.751,5.8584,5.9735,6.0272,6.0639,6.0896,6.1117,5.9505,5.8081,5.8319,5.5532,5.3122,5.3106,5.3247,5.2486,5.0056,5.1555,5.284,5.2625,5.3713,5.4595,5.4874,5.4909,5.4909,5.4909,5.4425,5.4012,5.3729,5.3048,5.2604,5.2491,5.2273,5.2402,5.2875,5.2087,5.0588,0.0,0.0,0.0,0.0,0.0,0.0,0.0,0.0,0.0,0.0,0.0,0.0,0.0,0.0,0.0,0.0,0.0,0.0,0.0,0.0,0.0,0.0,0.0,0.0,0.0,6.6654,7.0112,7.1153,7.3297,7.382,7.1608,7.2454,7.3099,7.3099,7.5733,7.7818,7.8919,7.925,7.9543,7.98,8.0094,8.0094,7.98,8.0094,8.0204,8.0167,7.8809,7.8295,7.8552,7.7708,7.698,7.6503,7.7053,7.698,7.643,7.5652,7.4845,7.3927,7.2055,7.0146,6.8531,6.8788,6.8054,6.688,6.6586,6.6145,6.5264,6.2548,6.13,6.0713,5.9869,5.9612,5.9612,5.9612,5.9428,5.9208,5.9208,5.9612,6.0089,6.0346,6.0419,6.0456,6.075,5.9098,5.7813,5.8657,5.6733,5.4756,5.3935,5.4367,5.386,5.0886,5.1829,5.2623,5.1903,5.316,5.4075,5.4075,5.5058,5.5724,5.5724,5.4464,5.3942,5.4464,5.3016,5.2462,5.3159,5.2203,5.201,5.2763,5.227,5.0879,4.8613,0.0,0.0,0.0,0.0,0.0,0.0,0.0,0.0,0.0,0.0,0.0,0.0,0.0,0.0,0.0,0.0,0.0,0.0,0.0,0.0,0.0,0.0,0.0,6.4266,6.973,7.3815,7.3978,7.8185,8.0461,7.8883,8.0167,8.1122,8.1085,8.0388,8.0645,8.2186,8.1525,8.1415,8.215,8.2957,8.2957,8.2113,8.2994,8.2627,8.1048,8.0204,7.9396,7.8589,7.7745,7.6466,7.5065,7.6613,7.6393,7.5028,7.5799,7.5652,7.4698,7.2312,7.0881,7.0036,6.9229,6.8385,6.754,6.6696,6.6439,6.6145,6.4567,6.4016,6.387,6.2989,6.2732,6.2732,6.2732,6.2181,6.1557,6.1557,6.1557,6.1374,6.0639,6.0419,6.0199,5.9441,5.6822,5.528,5.7629,5.8033,5.7299,5.4913,5.3849,5.2365,4.9515,4.8261,0.0,4.6853,4.9293,5.1123,5.1123,5.3847,5.5674,5.578,5.3537,5.2802,5.4441,5.3017,5.2426,5.3171,5.1697,5.1242,5.2013,5.0455,4.9994,5.0802,0.0,0.0,0.0,0.0,0.0,0.0,0.0,0.0,0.0,0.0,0.0,0.0,0.0,0.0,0.0,0.0,0.0,0.0,0.0,0.0,0.0,6.6953,7.0201,7.0185,7.2715,7.5879,7.9438,8.1562,8.259,8.2113,8.303,8.3361,8.281,8.3618,8.4095,8.3948,8.3177,8.2333,8.1379,8.2113,8.1856,8.0461,8.2406,8.2884,8.1856,8.1048,8.0241,7.9433,7.8626,7.7671,7.665,7.709,7.7053,7.6613,7.624,7.5983,7.5579,7.3744,7.2202,7.0881,7.0073,6.8531,6.6623,6.5228,6.4751,6.4567,6.3503,6.2768,6.2108,6.13,6.108,6.108,6.108,6.0896,6.075,6.075,6.075,6.0823,6.119,6.0823,6.0493,6.086,5.9795,5.8951,5.9612,5.9281,5.8474,5.7226,5.6832,5.6413,5.558,5.5242,0.0,5.4822,5.5523,5.6055,5.6055,5.5267,5.5449,5.7219,5.4613,5.3572,5.5218,5.4301,5.3588,5.3222,5.2789,5.2637,5.2858,5.1279,5.0582,0.0,0.0,0.0,0.0,0.0,0.0,0.0,0.0,0.0,0.0,0.0,0.0,0.0,0.0,0.0,0.0,0.0,0.0,0.0,0.0,0.0,0.0,6.9669,7.3707,7.5763,7.657,7.8369,8.226,8.3434,8.4168,8.4866,8.5049,8.5049,8.4939,8.5453,8.5894,8.6114,8.5673,8.4535,8.259,8.3948,8.3471,8.0828,8.3214,8.3985,8.3177,8.2039,8.1269,8.0755,7.925,7.8112,7.7273,7.7273,7.709,7.679,7.668,7.6423,0.0,0.0,0.0,0.0,0.0,6.8715,6.7283,6.5668,6.5118,6.4971,6.4127,6.3539,6.3062,6.2585,6.1741,6.0896,6.0896,6.0162,5.9648,6.0639,6.0896,6.119,6.2365,6.1998,6.1447,6.1557,6.0162,5.9208,6.0199,5.9208,0.0,5.8914,5.7593,5.6057,5.4793,5.4547,5.4371,5.4135,5.5206,5.5978,5.5978,5.5941,5.6492,5.7886,5.5354,0.0,0.0,0.0,5.3408,5.2234,5.2527,0.0,0.0,0.0,5.1132,5.1793,0.0,0.0,0.0,5.0655,5.0398,0.0,0.0,0.0,0.0,0.0,0.0,0.0,0.0,0.0,0.0,0.0,0.0,0.0,0.0,0.0,0.0,7.2333,7.6013,8.0698,8.0708,8.1048,8.3398,8.4389,8.549,8.6995,8.6481,8.6407,8.7215,8.6628,8.6811,8.828,0.0,0.0,0.0,0.0,8.6297,8.2627,8.4829,8.5527,8.4719,8.3287,8.2443,8.2113,8.0094,7.8589,7.7567,7.7567,7.7151,7.6507,7.7169,7.6972,7.6177,7.458,7.3353,7.2239,7.0,6.909,6.8825,6.7173,0.0,0.0,6.5815,6.5448,6.5301,6.5301,6.3759,6.1998,6.1998,6.0456,5.9318,6.1447,6.1998,6.2401,6.387,6.3576,6.2768,6.2034,5.9575,5.8107,6.0272,5.8877,5.8033,6.0162,5.7483,5.4195,5.147,5.0936,5.0623,5.0105,5.236,5.4032,5.4032,0.0,0.0,5.8107,5.5904,5.517,5.6712,5.473,5.2821,5.1389,5.2013,5.1353,4.9187,5.0582,5.205,5.3482,5.3482,5.4295,5.5757,5.2752,5.2491,0.0,0.0,0.0,0.0,0.0,0.0,0.0,0.0,0.0,0.0,0.0,0.0,0.0,0.0,0.0,7.4131,7.686,7.9793,8.3232,8.315,8.3361,8.5123,8.604,8.6921,8.7876,8.7839,8.8059,8.8904,8.8793,8.8867,8.916,8.8573,8.7692,8.6591,8.6995,8.6554,8.5123,8.6224,8.6371,8.5563,0.0,0.0,8.2186,8.2406,8.1342,7.9323,7.9323,7.9141,7.8796,7.8313,7.792,7.7477,7.6051,7.4275,7.2361,7.109,7.0306,6.9633,6.8017,6.7467,6.743,6.7283,6.6366,6.5301,6.5301,6.4971,0.0,6.4604,6.4273,6.4016,6.4457,6.4604,6.4677,6.5007,6.4457,6.3796,6.3649,6.2585,6.1777,6.2254,6.1447,6.0823,6.13,6.0199,5.9014,5.8467,5.833,5.8244,5.8174,5.8624,5.9024,5.9024,5.7813,5.7556,5.8854,5.6748,5.5794,5.6748,5.5757,5.4987,5.4656,5.4803,5.4656,5.4179,5.4509,5.4803,5.5133,5.5133,5.5834,5.71,5.5444,5.4913,0.0,0.0,0.0,0.0,0.0,0.0,0.0,0.0,0.0,0.0,0.0,6.7802,6.8679,0.0,7.4524,7.7764,8.041,8.3126,8.6329,8.6863,8.6899,8.6947,8.7327,8.803,8.9251,8.9362,8.9384,8.9416,8.9784,9.0005,9.0005,9.0386,8.988,8.8215,8.9299,8.892,8.6937,8.81,8.8286,8.7436,8.7056,8.6013,8.441,8.4,8.3143,8.1951,8.1131,8.0688,8.0516,7.9241,7.8688,7.858,7.8165,7.6624,7.4499,7.3157,7.2487,7.1988,7.031,6.949,6.9131,6.9131,6.8311,6.7282,6.7282,6.6448,6.5434,6.5184,6.42,6.3464,6.4423,6.4714,6.4897,6.5705,6.5595,6.5191,6.4787,6.4347,6.3943,6.3539,6.3135,6.2695,6.2291,6.1887,6.1337,6.0529,6.0419,6.0419,6.0419,6.0419,6.0419,6.0419,5.9318,5.8767,5.9148,5.774,5.6969,5.7373,5.6638,5.6198,5.6198,5.6198,5.6198,5.6198,5.6836,5.717,5.717,5.7384,5.7826,5.8428,5.734,5.7074,0.0,0.0,0.0,0.0,0.0,0.0,0.0,6.6716,6.7492,6.8934,7.0412,7.1916,7.3586,7.5637,7.8126,8.1423,8.3781,8.6203,8.92,9.0221,9.0287,8.9329,8.8978,8.9377,9.0804,9.0954,9.0789,9.0338,9.0898,9.1301,9.1301,9.2486,9.2306,9.0281,9.1903,9.1563,8.8973,8.9928,9.0053,8.931,8.8544,8.7676,8.6782,8.5662,8.4907,8.4354,8.2647,8.1786,8.1536,8.0157,7.9556,7.9637,8.0105,7.9208,7.7438,7.5797,7.4897,7.4336,7.2998,7.1882,7.1069,7.1069,7.0503,6.9803,6.9803,6.8334,6.6558,6.6127,6.4465,6.3126,6.4705,6.5115,6.5447,6.674,6.6925,6.6629,6.6001,6.5644,6.5248,6.4586,6.4412,6.4127,6.3429,6.3319,6.2768,6.1117,6.1006,6.108,6.0896,6.1006,6.1043,6.0896,6.086,6.0493,5.9515,5.8694,5.818,5.7997,5.7486,5.7184,5.7184,5.7257,5.73,5.73,5.8317,5.8835,5.8835,5.9212,5.9441,5.9526,5.8639,5.8551,6.1887,6.0544,6.1763,6.6723,6.731,6.8063,0.0,7.3829,7.3662,7.4529,7.6044,7.7689,7.9358,8.1042,8.3217,8.6409,8.7867,8.9225,9.0913,9.1331,9.1912,9.3112,9.2039,9.1531,9.2446,9.2521,9.2833,9.354,9.3662,9.3699,9.3699,9.3897,9.384,9.3577,9.3056,9.2631,9.2264,9.1035,9.0291,9.0152,8.9348,8.8518,8.7751,8.8291,8.7348,8.5172,8.3319,8.2084,8.142,8.1047,8.0871,8.0871,8.0959,8.0844,8.0455,7.8941,7.7123,7.5356,7.5167,7.4051,7.273,7.273,7.2184,7.1505,7.1505,7.0825,7.005,6.9988,6.9214,6.8419,6.8659,6.8713,6.8751,6.8939,6.8433,6.7889,6.7813,6.6849,6.5984,6.5872,6.5509,6.5154,6.5044,6.5044,6.4457,6.278,6.3172,6.3392,6.2658,6.3209,6.3392,6.2622,6.2523,6.1924,6.0382,5.9538,5.8767,5.8033,5.8301,5.8483,5.8483,5.8897,5.9117,5.9117,5.9246,5.9319,5.9319,5.9372,5.9609,6.0006,5.9115,5.8562,6.4979,6.5919,6.791,6.9397,7.1207,7.3284,7.5761,7.6419,7.691,7.8179,8.0071,8.1841,8.3058,8.4528,8.6469,8.9286,9.0508,9.1671,9.3273,9.399,9.4386,9.45,9.3531,9.277,9.2703,9.3604,9.3757,9.2668,9.3536,9.4102,9.4102,9.4502,9.4743,9.4743,9.4822,9.4583,9.4064,9.3399,9.2809,9.2291,9.1451,9.0648,8.9808,8.9634,8.845,8.6467,8.4709,8.3459,8.2612,8.1529,8.1093,8.1093,8.1093,8.1093,8.0962,7.9824,7.8832,7.7946,7.7411,7.6494,7.5424,7.491,7.4201,7.3399,7.2941,7.2198,7.146,7.1158,7.0459,6.9701,6.9393,6.9313,6.9313,6.9313,6.9048,6.8804,6.8804,6.8357,6.7814,6.7347,6.708,6.6792,6.6306,6.6231,6.597,6.5282,6.457,6.398,6.3613,6.3676,6.3794,6.3739,6.3297,6.2423,6.0996,6.0385,5.959,5.8455,5.8855,5.9084,5.9084,5.9284,5.9389,5.9389,5.9658,5.9823,5.9823,6.0089,6.0324,6.0508,5.9613,5.8834,6.6963,6.9444,7.1991,7.2467,7.5127,7.781,7.8534,7.935,8.0376,8.1782,8.3557,8.5188,8.6298,8.7576,8.9133,9.121,9.2479,9.3595,9.4826,9.5518,9.5557,9.4441,9.3518,9.2526,9.1288,9.337,9.4265,9.2934,9.3997,9.4718,9.4718,9.5212,9.5511,9.5511,9.602,9.5865,9.5018,9.4749,9.421,9.3364,9.2518,9.1825,9.1171,9.0056,8.8786,8.7286,8.5363,8.417,8.3478,8.1785,8.1093,8.1093,8.1093,8.1093,8.1016,8.04,8.0015,7.9708,7.9092,7.8323,7.7476,7.663,7.5938,7.5245,7.4437,7.3591,7.2765,7.217,7.1363,7.0517,6.9905,6.9738,6.9738,6.9738,6.9738,6.9738,6.9738,6.9626,6.9341,6.8755,6.8526,6.8238,6.7654,6.7579,6.7579,6.7579,6.6216,6.5099,6.4877,6.4428,6.4295,6.469,6.3973,6.2881,6.1534,6.1168,6.0433,5.8988,5.9319,5.9576,5.9576,5.9728,5.9792,5.9792,6.0118,6.0297,6.0297,6.0634,6.0781,6.0781,5.9665,5.8858,6.6142,6.7936,7.0467,7.6173,7.8633,8.0369,8.283,8.4061,8.4945,8.5753,8.6637,8.7808,8.9462,9.0462,9.1402,9.2326,9.3826,9.4941,9.498,9.5018,9.4441,9.2749,9.1825,9.0325,0.0,9.1308,9.4405,9.604,9.6193,9.6232,9.6232,9.6251,9.6269,9.6269,9.6269,9.5865,9.5018,9.4172,9.3326,9.2518,9.1633,9.1248,9.1133,8.9479,8.8248,8.7248,8.4709,8.3632,8.3478,8.1785,8.1093,8.1093,8.1093,8.1093,8.1093,8.1054,8.0516,7.9823,7.9785,7.9208,7.8323,7.7515,7.7246,7.7053,7.6207,7.5322,7.4476,7.3654,7.2808,7.1923,7.1063,7.0871,7.0871,7.0871,7.0871,7.0871,7.0871,7.0448,7.0078,7.004,6.9626,6.9275,6.9237,6.9237,6.9237,6.9237,6.852,6.769,6.6898,6.6068,6.5539,6.5559,6.4841,6.3691,6.2012,6.1861,6.1163,5.9485,5.9823,6.0089,6.0089,6.0508,6.0757,6.0757,6.0769,6.0769,6.0769,6.0781,6.0781,6.0742,5.9127,5.8319,6.6425,7.1254,7.6654,7.865,8.1574,8.4362,8.5786,8.6363,8.6786,8.7632,8.6709,8.5901,8.6478,8.7248,8.8286,8.9748,9.1864,9.3941,9.5634,9.4864,9.3941,9.3364,9.2556,0.0,0.0,0.0,0.0,9.2941,9.5018,9.6288,9.6288,9.6288,9.6288,9.6288,9.6288,9.6172,9.5865,9.5557,9.5288,9.5018,9.3557,9.1979,9.0325,8.9748,8.8402,8.6478,8.5055,8.3824,8.2631,8.1554,8.1093,8.1093,8.1093,8.1093,8.1093,8.1093,8.09,8.0592,8.0015,7.9631,7.9131,7.7746,7.7284,7.713,7.6245,7.5399,7.463,7.4361,7.3707,7.3014,7.2706,7.2629,7.2629,7.2629,7.2629,7.2629,7.2629,7.203,7.1481,7.1481,7.0861,7.0346,7.0346,7.0844,7.1242,7.1242,6.9451,6.7921,6.7417,6.711,6.6831,6.6621,6.6345,6.5398,6.3416,6.352,6.2824,6.0852,6.1166,6.116,6.0585,6.0734,6.0781,6.0781,6.0781,6.0781,6.0781,6.0781,6.0781,6.0781,6.0204,5.9665,6.9965,7.5403,8.0977,8.2208,8.5016,8.7517,8.7786,8.8325,8.8748,8.8709,8.7132,8.5593,8.5016,8.5324,8.6055,8.7171,8.921,9.1672,9.4557,9.371,9.2903,9.321,9.2556,9.2133,0.0,0.0,0.0,9.2095,9.4134,9.5365,9.5365,9.5365,9.5672,9.6288,9.6288,9.6288,9.6288,9.598,9.5518,9.4903,9.348,9.1633,8.9479,8.9479,8.7748,8.4747,8.4516,8.3285,8.14,8.117,8.1093,8.1093,8.1093,8.1093,8.1093,8.1093,8.1093,8.1016,8.0477,8.0246,7.9977,7.8284,7.7707,7.7515,7.6361,7.563,7.5091,7.4784,7.4322,7.386,7.3591,7.3514,7.3437,7.3129,7.3283,7.3322,7.2706,7.2629,7.2552,7.2245,7.2014,7.1822,7.1822,7.2283,7.2552,7.2245,7.0713,6.9396,6.8855,6.8541,6.8263,6.8025,6.7475,6.6435,6.4743,6.4628,6.3771,6.1795,6.194,6.1716,6.0819,6.0781,6.0781,6.0781,6.0781,6.0781,6.0781,6.0781,6.0781,6.0781,6.0473,6.005,7.5976,7.99,8.3401,8.6671,8.8748,8.9787,8.8979,8.9979,9.0594,8.8902,8.7671,8.6363,8.4747,8.4439,8.4516,8.4786,8.6324,8.8671,9.2133,9.1902,9.1672,9.2479,9.1902,0.0,0.0,0.0,0.0,9.3633,0.0,9.3826,9.3826,9.3826,9.4595,9.6249,9.6288,9.6288,9.6288,9.548,9.421,9.2556,9.171,9.0402,8.8709,8.8709,8.6363,8.2401,8.3247,8.217,7.9939,8.0746,8.1093,8.1093,8.1093,8.1093,8.1093,8.1093,8.1093,8.1093,8.1093,8.1054,8.0746,7.8977,7.8438,7.813,7.6515,7.6015,7.5822,7.5014,7.4784,7.4591,7.3822,7.363,7.3437,7.2591,7.3014,7.3168,7.1514,7.2437,7.3322,7.2476,7.2976,7.3514,7.3553,7.3553,7.3283,7.2399,7.2283,7.1937,7.1014,7.0206,6.9667,6.9629,6.809,6.6782,6.5974,6.5128,6.3935,6.2293,6.2178,6.1755,6.0819,6.0781,6.0781,6.0781,6.0781,6.0781,6.0781,6.0781,6.0781,6.0781,5.9935,5.9588,7.6938,8.2093,8.7286,8.8132,8.9633,9.0825,9.0594,8.994,8.8863,8.7132,8.3093,7.9554,7.8477,7.8284,7.9515,8.3324,8.644,8.9748,9.3787,9.4172,9.3864,9.3441,9.4326,9.4672,9.3787,9.4672,0.0,0.0,9.4903,9.5634,9.5634,9.5634,9.5826,9.6288,9.6288,9.6288,9.6288,9.6095,9.5095,9.3403,9.3172,9.1518,8.8709,8.8709,8.6709,8.3285,8.3478,8.2516,8.0785,8.1016,8.1093,8.1093,8.1093,8.1093,8.1093,8.1093,8.1093,8.1093,8.1093,8.0669,7.9862,7.8169,7.7592,7.74,7.6322,7.6015,7.5938,7.5745,7.5668,7.563,7.5438,7.5361,7.5322,7.5091,7.5207,7.5245,7.4784,7.4553,7.4322,7.413,7.3745,7.3707,7.4284,7.4399,7.413,7.3283,7.3168,7.2629,7.1091,7.0206,6.9436,6.8821,6.7744,6.6782,6.5974,6.5705,6.482,6.3089,6.2974,6.232,6.0858,6.0781,6.0781,6.0781,6.0781,6.0781,6.0781,6.0781,6.0781,6.0781,6.055,6.0473,8.1785,8.5978,8.9902,9.0248,9.1325,9.1825,8.994,8.8786,8.7094,8.3516,7.9862,7.6823,7.5207,7.5822,7.7746,8.1362,8.4786,8.8517,9.2749,9.3672,9.4134,9.4749,9.6019,0.0,9.6134,9.6557,9.6288,9.4941,9.5057,9.5172,9.5172,9.5172,9.5518,9.6288,9.6288,9.6288,9.6288,9.5903,9.5057,9.371,9.3326,9.1787,8.921,8.8863,8.6632,8.3054,0.0,8.2208,8.0015,8.0785,8.1093,8.1093,8.1093,8.1093,8.1093,8.1093,8.1093,8.1093,8.1093,8.0785,8.0169,7.8823,7.84,7.8169,7.6938,7.6553,7.6476,7.6092,7.6015,7.6015,7.6015,7.6015,7.5899,7.5515,7.5707,7.5784,7.5053,7.5091,7.5284,7.5284,7.4899,7.4745,7.5207,7.5284,7.4976,7.4168,7.3745,7.3014,7.1629,7.0744,7.0052,6.9552,6.8744,6.8052,6.759,6.6859,6.5859,6.4551,6.4089,6.3128,6.1435,6.1358,6.1166,6.0819,6.0781,6.0781,6.0781,6.0781,6.0781,6.0781,6.0781,6.0781,8.7709,9.0094,9.171,9.2479,9.3018,9.2364,8.844,8.7055,8.4978,7.9323,7.7169,7.563,7.3553,7.5053,7.7438,7.99,8.2978,8.6555,9.0941,9.2479,9.3941,9.6057,9.7019,9.7519,9.7519,9.7288,9.6942,9.6326,9.4903,9.4057,9.4057,9.4057,9.4749,9.6249,9.6288,9.6288,9.6288,9.5557,9.4672,9.3672,9.2979,9.1633,8.971,8.9017,8.6401,8.2516,8.3247,8.1785,7.8938,8.0477,8.1093,8.1093,8.1093,8.1093,8.1093,8.1093,8.1093,8.1093,8.1093,8.1093,8.0977,8.0092,7.9823,7.9515,7.7938,7.7438,7.7284,7.6553,7.6322,7.6322,7.6322,7.6245,7.5976,7.5207,7.5515,7.5592,7.4168,7.4976,7.6015,7.6015,7.6015,7.6015,7.6015,7.6015,7.5707,7.4822,7.413,7.336,7.2476,7.1398,7.0744,7.0744,7.0014,6.9513,6.9513,6.8052,6.6744,6.5936,6.5089,6.3897,6.2332,6.2178,6.1755,6.0973,6.0858,6.0781,6.0781,6.0781,6.0781,6.0781,6.0781,6.0781,8.8671,9.0941,9.3287,9.3441,9.2556,9.1095,8.894,8.5209,8.1093,7.7246,7.3553,7.1091,7.1321,7.2283,7.5245,8.1862,8.4593,8.7632,9.2556,9.5211,9.6557,9.6326,9.7019,9.7519,9.7519,9.6249,0.0,0.0,9.6019,9.5865,9.5865,9.5865,9.598,9.6288,9.6288,9.6288,9.6288,9.6134,9.5288,9.371,9.3557,9.1864,8.8902,8.8748,8.6748,8.3362,8.3516,0.0,8.0669,8.0977,8.1093,8.1093,8.1093,8.1093,8.1093,8.1093,8.1093,8.1093,8.1093,8.1093,8.0977,8.0092,7.9823,7.9631,7.8592,7.8284,7.8246,7.8092,7.8054,7.8054,7.8054,7.7553,7.7053,7.6861,7.6399,7.5938,7.563,7.5784,7.6015,7.6015,7.6015,7.6015,7.6015,7.6015,7.5707,7.4822,7.4591,7.4207,7.3399,7.1321,6.9898,6.9898,6.9129,6.8629,6.8629,6.7705,6.6744,6.5936,6.5089,6.4166,6.3128,6.2435,6.2024,6.187,6.1166,6.0781,6.0781,6.0781,6.0781,6.0781,6.0781,6.0781,9.0671,9.2479,9.4364,9.4364,9.2787,9.0171,8.6247,8.2131,7.763,7.2437,7.0129,6.9013,6.8936,7.0706,7.3976,7.9438,8.2439,8.5901,9.1018,9.3903,9.5865,9.6826,9.7673,9.8019,9.7557,9.6403,9.5672,9.5634,9.5634,9.5826,9.6288,9.6288,9.6288,9.6288,9.6288,9.6288,9.6288,9.5865,9.498,9.3672,9.3287,9.1979,8.9979,8.9094,8.7555,8.5517,8.467,8.3054,8.1131,8.1554,8.1208,8.0477,8.0939,8.1093,8.1093,8.1093,8.1093,8.1093,8.1093,8.1093,8.1016,8.0592,8.0477,8.0323,7.9438,7.9169,7.9092,7.8631,7.8477,7.8477,7.8477,7.8207,7.79,7.79,7.7592,7.7284,7.7284,7.7284,7.7284,7.7284,7.7284,7.7284,7.7284,7.6938,7.6515,7.613,7.5284,7.4553,7.4168,7.2706,7.1668,7.1668,7.0898,7.0398,7.0398,6.9206,6.809,6.7244,6.6397,6.532,6.4051,6.3628,6.2974,6.2139,6.1678,6.1243,6.0781,6.0781,6.0781,6.0781,6.0781,6.0781,9.2479,9.398,9.5211,9.5057,9.3095,8.9633,8.367,7.9554,7.5245,6.8936,6.7782,6.7859,6.7898,6.9821,7.2745,7.6861,7.9631,8.3247,8.9094,9.1941,9.4518,9.7442,9.8365,0.0,9.7827,9.6865,0.0,9.5326,9.5288,9.5557,9.6249,9.6288,9.6288,9.6288,9.6288,9.6288,9.6288,9.5634,9.4749,9.3672,9.3056,9.2095,9.0902,8.9556,8.8286,8.7055,8.5747,8.3708,8.14,8.2054,8.1439,8.0169,8.0823,8.1093,8.1093,8.1093,8.1093,8.1093,8.1093,8.1116,8.1176,8.1124,8.1093,8.0977,8.0285,8.0092,7.9939,7.9246,7.9054,7.9054,7.9054,7.89,7.8707,7.8515,7.8477,7.8477,7.8477,7.8477,7.8477,7.8477,7.8477,7.8477,7.8477,7.7977,7.7476,7.7323,7.613,7.5197,7.505,7.4472,7.4127,7.4166,7.3149,7.2399,7.2206,7.0821,6.959,6.8744,6.7705,6.6551,6.5264,6.4819,6.4008,6.2755,6.2325,6.179,6.1125,6.0893,6.0816,6.0845,6.0845,6.0877,9.3133,9.4864,9.598,9.5211,9.3095,8.9633,8.367,7.9092,7.4861,7.0398,6.7667,6.7051,7.0014,6.9552,7.086,7.7323,7.8054,8.0592,8.8748,9.1479,9.4134,9.8211,9.875,0.0,9.8673,9.725,9.6288,9.6172,9.6172,9.6211,9.6288,9.6288,9.6288,9.6288,9.6288,9.6288,9.6288,9.6211,9.5365,9.371,9.3633,9.2326,9.0017,8.9863,8.8479,8.6209,8.6055,0.0,0.0,8.2285,8.1785,8.0977,8.1054,8.1093,8.1093,8.1093,8.1093,8.1093,8.1093,8.1214,8.1349,8.1176,8.1093,8.1093,8.1016,8.0977,8.0977,8.0862,8.0862,8.0862,8.0862,8.0285,7.9477,7.8669,7.8477,7.8477,7.8477,7.8477,7.8477,7.8477,7.8477,7.8477,7.8477,7.8438,7.813,7.74,7.7169,7.6836,7.6227,7.6095,7.6116,7.631,7.4545,7.3053,7.2283,7.1321,7.0437,6.9629,6.8013,6.7111,6.7144,6.5516,6.4662,6.4824,6.3031,6.2122,6.215,6.1235,6.085,6.097,6.097,6.1073,9.1748,9.421,9.6095,9.5211,9.2326,8.8286,8.2824,7.8284,7.386,6.909,6.7321,6.7013,6.8359,6.8052,6.9167,7.3937,7.4861,7.7438,8.4362,8.6824,9.0136,9.6027,9.6754,9.7194,9.8388,0.0,9.6514,9.5959,9.5442,9.5597,9.6657,9.6566,9.6536,9.6721,9.6217,9.5946,9.5946,9.4938,9.4085,9.3387,9.2857,9.2082,9.1074,9.0582,8.9496,8.8022,8.7518,0.0,0.0,8.3796,8.3137,8.1558,8.2605,8.2721,8.2245,8.2245,8.1896,8.1458,8.1458,8.1494,8.1572,8.1501,8.1458,8.143,8.1167,8.1093,8.1093,8.1093,8.1196,8.1285,8.1285,8.1088,8.0849,8.05,8.0422,8.0422,8.0422,8.0422,8.0422,8.0422,8.0422,8.0422,8.0422,7.9996,7.9375,7.8522,7.7979,7.7399,7.6561,7.6493,7.6527,7.6575,7.5378,7.4218,7.3355,7.2512,7.1465,7.0108,6.9341,6.8562,6.7643,6.6864,6.605,6.5109,6.4311,6.3449,6.2482,6.2052,6.1617,6.1186,6.1186,6.1227,9.0171,9.3133,9.5441,9.5095,9.1633,8.7055,8.2208,7.7784,7.3399,6.8821,6.7667,6.7628,6.8129,6.7821,6.8513,7.1668,7.2937,7.5399,8.0785,8.3285,8.6724,9.2702,9.3668,9.4679,9.6854,9.7023,9.6749,9.6117,9.5524,9.5746,9.7029,9.6954,9.6787,9.6614,9.603,9.5602,9.532,9.4153,9.3453,9.319,9.2567,9.1992,9.1486,9.0864,8.9969,8.8918,8.8334,0.0,0.0,8.4645,8.375,8.1812,8.3058,8.3174,8.2622,8.2622,8.2233,8.1688,8.1688,8.1725,8.1799,8.1703,8.1725,8.171,8.1383,8.1285,8.1285,8.1285,8.1371,8.1501,8.1501,8.16,8.1688,8.1688,8.1688,8.1688,8.1688,8.1688,8.1688,8.1688,8.1688,8.1688,8.1688,8.1182,8.0481,7.9625,7.9002,7.8363,7.752,7.7215,7.711,7.7155,7.6381,7.5452,7.4456,7.3625,7.2542,7.1063,7.0486,6.9688,6.8566,6.7981,6.7181,6.6053,6.5395,6.4549,6.3429,6.2836,6.2252,6.1744,6.1471,6.1373,8.8786,9.1787,9.3941,9.4788,9.1171,8.6286,8.2054,7.7784,7.3745,7.036,6.9013,6.8898,7.0552,6.9513,6.9206,7.1783,7.2937,7.4976,7.9246,8.2016,8.4917,8.838,8.9639,9.1281,9.3891,9.5889,9.7012,9.6973,9.6973,0.0,9.7363,9.7407,9.6869,9.5767,9.5719,9.5281,9.4425,9.4387,9.3997,9.319,9.319,9.2295,9.0621,9.0583,8.9688,8.8092,0.0,0.0,0.0,8.4209,8.3237,8.1688,8.1727,8.1727,8.1727,8.1727,8.1727,8.1688,8.1688,8.1844,8.1971,8.1746,8.1844,8.1967,8.1778,8.168,8.168,8.168,8.1719,8.168,8.168,8.168,8.1688,8.1688,8.1688,8.1688,8.1688,8.1688,8.1688,8.1688,8.1688,8.1688,8.1688,8.1688,8.1376,8.052,8.0372,8.0124,7.9448,7.8679,7.8242,7.8476,7.7695,7.6657,7.5379,7.4481,7.3625,7.2815,7.1141,7.028,7.0473,6.8694,6.7851,6.8164,6.6147,6.5187,6.5373,6.3512,6.2655,6.2753,6.1894,6.1577,8.1593,8.4824,8.7478,8.6555,8.4247,8.14,7.8323,7.5668,7.3091,7.0283,6.9475,6.9436,6.9975,6.9667,7.0321,7.3399,7.413,7.5639,7.9482,8.2252,8.5467,8.9744,9.3794,9.6523,9.7381,9.6432,9.625,9.7385,9.6406,9.63,9.7529,9.706,9.6624,9.6253,9.5664,9.4923,9.4063,9.3478,9.3048,9.2775,9.2775,9.1877,9.0198,9.0823,8.9846,0.0,0.0,0.0,8.4734,8.532,8.4539,8.3055,8.3641,8.3523,8.3016,8.3016,8.2625,8.2118,8.2118,8.2168,8.2178,8.2125,8.217,8.2178,8.2122,8.1904,8.171,8.1867,8.1894,8.1958,8.2065,8.2118,8.2118,8.2118,8.2118,8.2118,8.2118,8.2118,8.2118,8.2118,8.2118,8.2118,8.2118,8.2118,8.1805,8.0946,8.079,8.0328,7.8976,7.9056,7.8824,7.7734,7.789,7.7459,7.5835,7.4894,7.4035,7.3215,7.2043,7.1192,7.0657,7.0061,6.9246,6.8203,6.7568,6.6664,6.5541,6.436,6.3186,6.2025,6.1751,6.1677,7.74,8.0708,8.3362,8.2901,8.0823,7.8438,7.6861,7.4668,7.2476,7.0552,7.0748,7.1041,7.0399,7.0854,7.1783,7.3269,7.4595,7.6211,7.8447,8.1563,8.5118,8.909,9.3645,9.6636,9.7031,9.6523,9.6562,9.7617,9.6719,9.6484,9.7226,9.6758,9.6211,9.5547,9.5,9.4297,9.3437,9.2851,9.2422,9.2109,9.2109,9.1211,8.9531,9.0078,8.9101,0.0,0.0,8.6484,0.0,8.5,8.4375,8.3164,8.3711,8.3594,8.3125,8.3125,8.2773,8.2304,8.2304,8.2304,8.2304,8.2304,8.2304,8.2304,8.2304,8.2122,8.1967,8.2065,8.2118,8.2127,8.2265,8.2304,8.2304,8.2304,8.2304,8.2304,8.2304,8.2304,8.2304,8.2304,8.2304,8.2304,8.2304,8.2304,8.2109,8.1562,8.1484,8.1094,8.0078,7.9805,7.9297,7.8242,7.8047,7.7578,7.6484,7.5586,7.4726,7.3867,7.2969,7.2109,7.1211,7.0859,7.0195,6.914,6.8515,6.7656,6.6562,6.539,6.3906,6.2187,6.2187,6.1992,0.0,7.853,8.0823,8.2324,7.9777,7.6852,7.6837,7.4403,0.0,7.126,7.255,7.3335,7.1716,7.2927,7.3639,7.1952,7.452,7.6706,7.6773,8.0688,8.45,8.7276,9.0605,9.3015,9.3828,9.6211,9.7695,9.7695,9.7656,9.7304,9.6523,9.6367,9.5586,9.3945,9.3828,9.3437,9.2617,9.2617,9.2148,9.1211,9.1289,9.0312,8.8515,8.8633,8.7734,0.0,8.6172,8.5195,8.3594,8.3594,8.3086,8.2304,8.2304,8.2304,8.2304,8.2304,8.2304,8.2304,8.2304,8.2304,8.2304,8.2304,8.2304,8.2304,8.2304,8.2304,8.2304,8.2304,8.2304,8.2304,8.2304,8.2304,8.2304,8.2304,8.2304,8.2304,8.2304,8.2304,8.2304,8.2304,8.2304,8.2304,8.2304,8.2304,8.2304,8.2304,8.2304,8.2265,8.2226,8.0859,7.9805,7.9648,7.8281,7.7344,7.7226,7.6406,7.5547,7.4648,7.3789,7.289,7.2031,7.1211,7.0742,7.0703,6.9062,6.8164,6.8086,6.6406,6.4726,6.3086,6.3047,6.2578,7.0335,0.0,7.4245,7.3937,7.3254,7.2604,0.0,7.2015,7.1947,7.2932,7.3577,7.3846,7.3418,7.4785,7.5436,7.3688,7.5765,7.7845,7.8618,8.4291,8.9089,9.1089,9.4332,9.5779,9.4062,9.6211,9.7695,9.7695,9.7148,9.6719,9.6523,9.5234,9.4336,9.3906,9.3242,9.2812,9.2617,9.2617,9.1836,9.0312,9.0976,8.9726,8.6836,8.8125,8.7422,8.5234,8.5898,8.5195,8.3594,8.3594,8.3086,8.2304,8.2304,8.2304,8.2304,8.2304,8.2304,8.2304,8.2304,8.2304,8.2304,8.2304,8.2304,8.2304,8.2304,8.2304,8.2304,8.2304,8.2304,8.2304,8.2304,8.2304,8.2304,8.2304,8.2304,8.2304,8.2304,8.2304,8.2304,8.2304,8.2304,8.2304,8.2304,8.2304,8.2304,8.2304,8.2304,8.207,8.1406,8.1523,8.0937,7.8984,7.8984,7.8594,7.7305,7.6406,7.5547,7.4648,7.3789,7.289,7.2031,7.1797,7.1367,7.0703,6.9062,6.7851,6.7187,6.6133,6.5039,6.3984,6.332,6.289,6.8765,7.0243,7.1822,7.2214,7.1843,7.1511,7.2161,7.1905,7.1962,7.3579,7.4028,7.4255,7.465,7.5244,7.5506,7.4952,7.64,7.8604,8.1495,8.523,8.875,9.164,9.3633,9.4844,9.5078,9.6328,9.7148,9.7148,9.6367,9.5742,9.5312,9.4414,9.3711,9.332,9.2851,9.2617,9.2617,9.2617,9.1719,9.0,9.0898,8.9726,8.6836,8.8125,8.7539,8.5469,8.5156,8.4453,8.3554,8.2734,8.2344,8.2304,8.2304,8.2304,8.2304,8.2304,8.2304,8.2304,8.2304,8.2304,8.2304,8.2304,8.2304,8.2304,8.2304,8.2304,8.2304,8.2304,8.2304,8.2304,8.2304,8.2304,8.2304,8.2304,8.2304,8.2304,8.2304,8.2304,8.2304,8.2304,8.2304,8.2304,8.2304,8.2304,8.2304,8.2304,8.2304,8.2148,8.164,8.164,8.1172,7.9805,7.9687,7.918,7.789,7.7344,7.6562,7.5273,7.4375,7.3515,7.2617,7.2226,7.1601,7.0703,6.9805,6.875,6.75,6.7031,6.6133,6.4883,6.4414,6.375,6.8954,7.0285,7.2043,7.3603,7.2757,7.1946,7.3607,7.2737,7.21,7.4035,7.4615,7.4954,7.5696,7.5811,7.5742,7.5703,7.7109,7.9922,8.4961,8.6015,8.7578,9.1094,9.1953,9.3281,9.5859,9.6445,9.6679,9.6679,9.5742,9.4883,9.414,9.3867,9.3359,9.2617,9.2461,9.2383,9.2383,9.2539,9.164,8.9804,9.0703,8.9765,8.7344,8.8164,8.7656,8.6133,0.0,0.0,8.3476,8.1992,8.1758,8.2304,8.2304,8.2304,8.2304,8.2304,8.2304,8.2304,8.2304,8.2304,8.2304,8.2304,8.2304,8.2304,8.2304,8.2304,8.2304,8.2304,8.2304,8.2304,8.2304,8.2304,8.2304,8.2304,8.2304,8.2304,8.2304,8.2304,8.2304,8.2304,8.2304,8.2304,8.2304,8.2304,8.2304,8.2304,8.2304,8.2304,8.2304,8.164,8.1133,8.1015,8.0351,7.957,7.875,7.8555,7.7851,7.6406,7.5351,7.4336,7.3359,7.2578,7.1797,7.0937,7.0664,6.9805,6.8398,6.8125,6.7226,6.5781,6.5664,6.4805,6.9112,7.1425,7.3851,7.3983,7.2841,7.2071,7.3633,7.2924,7.2798,7.583,7.6616,7.6795,7.6912,7.9257,7.9726,7.5508,7.9219,8.414,8.8594,9.1133,9.25,9.2422,9.4961,9.6094,9.4453,9.625,9.7539,9.7539,9.6094,9.5156,9.5,9.3594,9.2734,9.2617,9.1875,9.1484,9.1484,9.2226,9.1367,8.8906,8.9765,8.8867,8.6445,8.7304,8.7148,8.6172,0.0,8.4961,8.3594,8.332,8.2851,8.2304,8.2304,8.2304,8.2304,8.2304,8.2304,8.2304,8.2304,8.2304,8.2304,8.2304,8.2304,8.2304,8.2304,8.2304,8.2304,8.2304,8.2304,8.2304,8.2304,8.2304,8.2304,8.2304,8.2304,8.2304,8.2304,8.2304,8.2304,8.2304,8.2304,8.2304,8.2304,8.2304,8.2304,8.2304,8.2304,8.2304,8.2304,8.2187,8.1836,8.1094,8.0898,8.0469,7.9609,7.8906,7.8398,7.8125,7.6601,7.4961,7.3359,7.3164,7.2695,7.1836,7.039,6.9531,6.9219,6.7773,6.6953,6.668,6.5937,6.5469,6.8732,7.0806,7.3496,7.5266,7.4853,7.4512,7.6594,7.4792,7.3788,7.7607,7.6638,7.5781,7.8125,7.9492,8.039,8.0781,8.4336,8.7734,8.9726,9.0625,9.1484,9.2461,9.3984,9.5039,9.5273,9.6367,9.7031,9.7031,9.5469,9.4492,9.4492,9.3281,9.2617,9.2617,9.2226,9.1992,9.1992,9.1914,9.082,8.8711,8.957,8.8672,8.6211,8.7109,8.6758,8.5469,0.0,8.3906,8.3515,8.2578,8.2226,8.2304,8.2304,8.2304,8.2304,8.2304,8.2304,8.2304,8.2304,8.2304,8.2304,8.2304,8.2304,8.2304,8.2304,8.2304,8.2304,8.2304,8.2304,8.2304,8.2304,8.2304,8.2304,8.2304,8.2304,8.2304,8.2304,8.2304,8.2304,8.2304,8.2304,8.2304,8.2304,8.2304,8.2304,8.2304,8.2304,8.2304,8.2304,8.2304,8.2148,8.1758,8.1719,8.1367,8.0469,7.9648,7.8555,7.7187,7.6328,7.5312,7.4062,7.3555,7.3125,7.2695,7.1484,7.0351,6.9414,6.8633,6.7773,6.6875,6.6484,6.6055,6.8359,7.0195,7.2969,7.5625,7.5469,7.5703,7.9726,7.6992,7.5,7.9922,7.7969,7.6406,7.9687,7.9648,8.0703,8.5703,8.8633,9.0586,9.1406,9.1094,9.1562,9.3554,9.3789,9.457,9.6601,9.6797,9.6719,9.6523,9.5078,9.4101,9.3906,9.3086,9.2617,9.2617,9.2187,9.1992,9.1992,9.0937,8.9922,8.9023,8.9297,8.8281,8.6211,8.6679,8.6172,8.4844,8.3476,8.3164,8.3515,8.2148,8.1875,8.2304,8.2304,8.2304,8.2304,8.2304,8.2304,8.2304,8.2304,8.2304,8.2304,8.2304,8.2304,8.2304,8.2304,8.2304,8.2304,8.2304,8.2304,8.2304,8.2304,8.2304,8.2304,8.2304,8.2304,8.2304,8.2304,8.2304,8.2304,8.2304,8.2304,8.2304,8.2304,8.2304,8.2304,8.2304,8.2304,8.2304,8.2304,8.2304,8.2304,8.2304,8.2304,8.1953,8.1054,8.0195,7.8789,7.664,7.6328,7.5703,7.4648,7.3945,7.3398,7.3008,7.2148,7.1055,6.9687,6.9297,6.8476,6.7187,6.6992,6.6523,6.8203,7.0664,7.3281,7.3515,7.2305,7.3203,8.1445,7.875,7.6406,8.3125,8.3008,8.1758,8.207,8.1406,8.2265,8.6679,8.9531,9.2344,9.5586,9.6601,9.7109,9.7304,9.7344,9.7422,9.7617,9.7617,9.7304,9.6562,9.5625,9.4765,9.3945,9.3086,9.2617,9.2617,9.1015,9.0195,9.0195,8.8594,8.8476,8.9883,8.8398,8.7148,8.6172,8.5429,8.5039,8.4883,8.4765,8.4297,8.3594,8.3476,8.2969,8.2304,8.2304,8.2304,8.2304,8.2304,8.2304,8.2304,8.2304,8.2304,8.2304,8.2304,8.2304,8.2304,8.2304,8.2304,8.2304,8.2304,8.2304,8.2304,8.2304,8.2304,8.2304,8.2304,8.2304,8.2304,8.2304,8.2304,8.2304,8.2304,8.2304,8.2304,8.2304,8.2304,8.2304,8.2304,8.2304,8.2304,8.2304,8.2304,8.2304,8.2304,8.2304,8.1953,8.1054,8.0195,7.9297,7.8359,7.7539,7.6367,7.4687,7.4531,7.375,7.2148,7.125,7.0742,7.0586,6.9023,6.8203,6.8086,6.7265,6.6875,6.7539,6.9492,7.2187,7.4375,7.2773,7.2812,8.0937,8.0195,7.914,8.3906,8.4375,8.3906,8.3906,8.4531,8.5937,8.8633,9.1679,9.4375,9.625,9.7187,9.7695,9.7695,9.7265,9.6953,9.6953,9.6953,9.6601,9.5742,9.539,9.4804,9.3945,9.3086,9.2617,9.2617,9.1445,9.082,9.082,8.9101,8.8554,8.9179,8.75,8.625,8.5351,8.4492,8.3789,8.3281,8.3281,8.3086,8.2773,8.2773,8.2617,8.2304,8.2304,8.2304,8.2304,8.2304,8.2304,8.2304,8.2304,8.2304,8.2304,8.2304,8.2304,8.2304,8.2304,8.2304,8.2304,8.2304,8.2304,8.2304,8.2304,8.2304,8.2304,8.2304,8.2304,8.2304,8.2304,8.2304,8.2304,8.2304,8.2304,8.2304,8.2304,8.2304,8.2304,8.2304,8.2304,8.2304,8.2304,8.2304,8.2304,8.2304,8.2304,8.1719,8.0312,7.9883,7.914,7.7773,7.7383,7.6914,7.625,7.5195,7.4297,7.3633,7.2226,7.125,7.0703,7.0078,6.9492,6.8945,6.8086,6.7695,6.7461,6.8789,7.1055,7.4297,7.3086,7.3203,8.1289,8.1562,8.1406,8.5976,8.6484,8.6015,8.5781,8.6484,8.7656,8.9336,9.2265,9.4765,9.5937,9.6562,9.6914,9.6914,9.6406,9.6094,9.6094,9.6094,9.5742,9.4844,9.4804,9.4414,9.3554,9.2929,9.2461,9.2187,9.1328,9.0742,9.0469,8.9023,8.8164,8.789,8.6484,8.5469,8.4844,8.3711,8.2851,8.2304,8.2304,8.2304,8.2304,8.2304,8.2304,8.2304,8.2304,8.2304,8.2304,8.2304,8.2304,8.2304,8.2304,8.2304,8.2304,8.2304,8.2304,8.2304,8.2304,8.2304,8.2304,8.2304,8.2304,8.2304,8.2304,8.2304,8.2304,8.2304,8.2304,8.2304,8.2304,8.2304,8.2304,8.2304,8.2304,8.2304,8.2304,8.2304,8.2304,8.2304,8.2304,8.2304,8.2304,8.2304,8.2304,8.2304,8.2304,8.1719,8.0234,7.9844,7.9101,7.7695,7.7344,7.707,7.6797,7.539,7.4453,7.418,7.2734,7.1719,7.1094,7.082,7.039,6.9805,6.8945,6.8437,6.8203,6.8789,7.0039,7.2656,7.2656,7.4297,8.289,8.2851,8.2969,8.9883,8.9922,8.8437,8.7656,8.6836,8.6797,8.8437,9.0898,9.3203,9.4922,9.5195,9.5195,9.5195,9.5195,9.5195,9.5195,9.5195,9.4804,9.3945,9.3867,9.3515,9.2617,9.2578,9.2187,9.1328,9.0429,8.957,8.8711,8.789,8.707,8.6172,8.5312,8.4883,8.4844,8.3086,8.2304,8.2304,8.2304,8.2304,8.2304,8.2304,8.2304,8.2304,8.2304,8.2304,8.2304,8.2304,8.2304,8.2304,8.2304,8.2304,8.2304,8.2304,8.2304,8.2304,8.2304,8.2304,8.2304,8.2304,8.2304,8.2304,8.2304,8.2304,8.2304,8.2304,8.2304,8.2304,8.2304,8.2304,8.2304,8.2304,8.2304,8.2304,8.2304,8.2304,8.2304,8.2304,8.2304,8.2304,8.2304,8.2304,8.2304,8.2304,8.2304,8.1953,8.1054,8.0195,7.9375,7.8555,7.7695,7.6836,7.5937,7.5078,7.4219,7.332,7.2461,7.1992,7.1992,7.1133,7.0703,7.0703,6.9805,6.8984,6.8906,6.9258,7.0078,7.2656,7.4492,7.6797,8.1172,8.25,8.4804,9.1719,9.0312,8.8125,8.9101,8.9062,8.8828,8.8711,9.0898,9.3008,9.414,9.4804,9.5195,9.5195,9.4648,9.4297,9.4297,9.4297,9.3672,9.2187,9.2656,9.2344,9.0859,9.0781,9.0664,9.039,8.9531,8.8945,8.8711,8.789,8.707,8.6172,8.5312,8.457,8.3945,8.2812,8.2304,8.2304,8.2304,8.2304,8.2304,8.2304,8.2304,8.2304,8.2304,8.2304,8.2304,8.2304,8.2304,8.2304,8.2304,8.2304,8.2304,8.2304,8.2304,8.2304,8.2304,8.2304,8.2304,8.2304,8.2304,8.2304,8.2304,8.2304,8.2304,8.2304,8.2304,8.2304,8.2304,8.2304,8.2304,8.2304,8.2304,8.2304,8.2304,8.2304,8.2304,8.2304,8.2304,8.2304,8.2304,8.2304,8.2304,8.2304,8.2304,8.1953,8.1054,8.0742,8.0234,7.9414,7.8555,7.7734,7.6836,7.5976,7.5117,7.4219,7.3359,7.2617,7.1992,7.1758,7.1601,7.1601,7.0703,7.0195,7.0625,7.0742,7.1523,7.582,7.7031,7.8125,8.1719,8.4414,8.7812,9.3711,9.2304,9.0234,9.0898,9.0742,9.0351,8.9804,9.1367,9.2773,9.332,9.3828,9.4179,9.4179,9.3711,9.3242,9.289,9.2851,9.2304,9.0898,9.1289,9.1094,9.0078,9.0,8.9844,8.9492,8.8984,8.8398,8.7695,8.7226,8.6367,8.5156,8.4648,8.3945,8.3086,8.2539,8.2304,8.2304,8.2304,8.2304,8.2304,8.2304,8.2304,8.2304,8.2304,8.2304,8.2304,8.2304,8.2304,8.2304,8.2304,8.2304,8.2304,8.2304,8.2304,8.2304,8.2304,8.2304,8.2304,8.2304,8.2304,8.2304,8.2304,8.2304,8.2304,8.2304,8.2304,8.2304,8.2304,8.2304,8.2304,8.2304,8.2304,8.2304,8.2304,8.2304,8.2304,8.2304,8.2304,8.2304,8.2304,8.2304,8.2304,8.2304,8.2304,8.1953,8.1054,8.1015,8.0625,7.9765,7.8945,7.8242,7.7734,7.6562,7.5664,7.5117,7.3906,7.3047,7.2539,7.2187,7.1992,7.1992,7.1445,7.1015,7.2812,7.2734,7.3672,8.0195,7.9805,7.918,8.4492,8.8008,9.1289,9.539,9.5,9.3672,9.2969,9.2109,9.1523,9.1445,9.2031,9.25,9.2578,9.2539,9.2461,9.2461,9.2461,9.2148,9.1289,9.1172,9.082,8.9961,8.9883,8.9804,8.9648,8.9726,8.9336,8.8398,8.8437,8.7695,8.6094,8.6094,8.5234,8.3594,8.3594,8.3125,8.2304,8.2304,8.2304,8.2304,8.2304,8.2304,8.2304,8.2304,8.2304,8.2304,8.2304,8.2304,8.2304,8.2304,8.2304,8.2304,8.2304,8.2304,8.2304,8.2304,8.2304,8.2304,8.2304,8.2304,8.2304,8.2304,8.2304,8.2304,8.2304,8.2304,8.2304,8.2304,8.2304,8.2304,8.2304,8.2304,8.2304,8.2304,8.2304,8.2304,8.2304,8.2304,8.2304,8.2304,8.2304,8.2304,8.2304,8.2304,8.2304,8.2304,8.2304,8.1992,8.1172,8.1133,8.0781,8.0,7.9101,7.8594,7.8594,7.6953,7.5976,7.5898,7.4336,7.3515,7.3437,7.2539,7.2109,7.2109,7.2031,7.1562,7.2812,7.3164,7.3867,7.7422,8.0273,8.3945,9.0469,9.1484,9.1679,9.3984,9.414,9.4062,9.4531,9.3945,9.3125,9.2422,9.1914,9.1836,9.25,9.1992,9.1562,9.1562,9.1562,9.125,9.0351,9.0273,8.9922,8.9062,8.8984,8.8398,8.7109,8.7656,8.7304,8.5781,8.6367,8.625,8.5195,8.5195,8.4648,8.3594,8.3594,8.3125,8.2304,8.2304,8.2304,8.2304,8.2304,8.2304,8.2304,8.2304,8.2304,8.2304,8.2304,8.2304,8.2304,8.2304,8.2304,8.2304,8.2304,8.2304,8.2304,8.2304,8.2304,8.2304,8.2304,8.2304,8.2304,8.2304,8.2304,8.2304,8.2304,8.2304,8.2304,8.2304,8.2304,8.2304,8.2304,8.2304,8.2304,8.2304,8.2304,8.2304,8.2304,8.2304,8.2304,8.2304,8.2304,8.2304,8.2304,8.2304,8.2304,8.2304,8.2304,8.2226,8.2031,8.2031,8.1953,8.1758,8.0273,7.9453,7.9453,7.7812,7.6601,7.5898,7.5547,7.5,7.4336,7.3437,7.3008,7.3008,7.2305,7.1914,7.2695,7.4219,7.6172,8.0469,8.4414,8.8125,9.1328,9.2304,9.2812,9.3711,9.4219,9.4414,9.4023,9.3906,9.3594,9.2734,9.2226,9.207,9.2539,9.1836,9.1289,9.1289,9.0937,9.0508,9.0039,8.9609,8.9179,8.8711,8.8359,8.7578,8.6289,8.664,8.6289,8.4922,8.5351,8.5156,8.4297,8.4297,8.3828,8.2969,8.2969,8.2734,8.2304,8.2304,8.2304,8.2304,8.2304,8.2304,8.2304,8.2304,8.2304,8.2304,8.2304,8.2304,8.2304,8.2304,8.2304,8.2304,8.2304,8.2304,8.2304,8.2304,8.2304,8.2304,8.2304,8.2304,8.2304,8.2304,8.2304,8.2304,8.2304,8.2304,8.2304,8.2304,8.2304,8.2304,8.2304,8.2304,8.2304,8.2304,8.2304,8.2304,8.2304,8.2304,8.2304,8.2304,8.2304,8.2304,8.2304,8.2304,8.2304,8.2304,8.2304,8.2304,8.2304,8.2304,8.2304,8.2304,8.0969,7.9983,7.9553,7.8233,7.7137,7.6388,7.596,7.5477,7.4932,7.407,7.3406,7.2981,7.2551,7.2122,7.2383,7.543,7.9219,8.4804,8.832,9.0429,9.0429,9.1875,9.332,9.3594,9.4492,9.4726,9.3125,9.3398,9.3594,9.2734,9.2344,9.2187,9.2344,9.1484,9.0859,9.0859,9.0078,8.9492,8.9375,8.8672,8.8281,8.8281,8.7656,8.6914,8.6015,8.5976,8.5508,8.4492,8.4609,8.4258,8.3398,8.3398,8.3008,8.2304,8.2304,8.2304,8.2304,8.2304,8.2304,8.2304,8.2304,8.2304,8.2304,8.2304,8.2304,8.2304,8.2304,8.2304,8.2304,8.2304,8.2304,8.2304,8.2304,8.2304,8.2304,8.2304,8.2304,8.2304,8.2304,8.2304,8.2304,8.2304,8.2304,8.2304,8.2304,8.2304,8.2304,8.2304,8.2304,8.2304,8.2304,8.2304,8.2304,8.2304,8.2304,8.2304,8.2264,8.2263,8.2263,8.2263,8.222,8.2219,8.2223,8.222,8.2217,8.2217,8.2217,8.2217,8.2217,8.2217,8.2217,8.2217,8.123,8.0324,7.9583,7.841,7.7566,7.7048,7.6214,7.5707,7.5524,7.4661,7.3844,7.3144,7.2832,7.2334,7.1484,7.625,8.1406,8.5234,8.6523,8.7812,9.1445,9.1367,9.0937,9.2461,9.4062,9.4883,9.3906,9.3828,9.3594,9.2734,9.1328,9.0625,9.1367,9.0078,8.9062,8.9062,8.832,8.7539,8.6797,8.6601,8.6523,8.6523,8.6445,8.5976,8.5117,8.5078,8.4336,8.2695,8.3398,8.3359,8.2461,8.2461,8.2422,8.2304,8.2304,8.2304,8.2304,8.2304,8.2304,8.2304,8.2304,8.2304,8.2304,8.2304,8.2304,8.2304,8.2304,8.2304,8.2304,8.2304,8.2304,8.2304,8.2304,8.2304,8.2304,8.2304,8.2304,8.2304,8.2304,8.2304,8.2304,8.2304,8.2304,8.2304,8.2304,8.2304,8.2304,8.2304,8.2304,8.2304,8.2304,8.2304,8.2304,8.2304,8.2304,8.2224,8.2062,8.2049,8.2049,8.2049,8.1889,8.185,8.2,8.1883,8.176,8.176,8.176,8.176,8.176,8.176,8.176,8.176,8.0953,8.0394,8.0277,7.8691,7.771,7.7524,7.6801,7.6448,7.6427,7.5563,7.5057,7.4941,7.3416,7.2638,7.3555,7.6133,7.8945,8.5312,8.582,8.5976,9.0781,9.0898,9.0508,9.2226,9.3203,9.3633,9.3242,9.2773,9.2461,9.2578,9.1133,9.0312,9.1172,8.9804,8.8515,8.8086,8.7265,8.6601,8.625,8.6211,8.6406,8.6875,8.6484,8.582,8.4961,8.4453,8.3594,8.2344,8.2656,8.2695,8.2304,8.2304,8.2304,8.2304,8.2304,8.2304,8.2304,8.2304,8.2304,8.2304,8.2304,8.2304,8.2304,8.2304,8.2304,8.2304,8.2304,8.2304,8.2304,8.2304,8.2304,8.2304,8.2304,8.2304,8.2304,8.2304,8.2304,8.2304,8.2304,8.2304,8.2304,8.2304,8.2304,8.2304,8.2304,8.222,8.217,8.2265,8.2122,8.1992,8.2115,8.2122,8.2113,8.1984,8.1976,8.1958,8.1855,8.1844,8.1844,8.1844,8.1778,8.1718,8.1831,8.1739,8.1688,8.1688,8.1688,8.1688,8.1688,8.1688,8.1688,8.1688,8.1212,8.0738,8.0243,7.9377,7.8682,7.8116,7.6996,7.6361,7.6277,7.589,7.5453,7.495,7.4176,7.3325,7.4023,7.5078,7.6328,8.3437,8.3906,8.3867,8.8594,8.9336,8.9609,9.1523,9.2304,9.2617,9.2617,9.207,9.1758,9.2187,9.0976,9.0156,9.0586,8.9336,8.8086,8.7265,8.6406,8.5781,8.5547,8.5547,8.582,8.6445,8.5898,8.5273,8.4609,8.375,8.2969,8.2304,8.2304,8.2304,8.2304,8.2304,8.2304,8.2304,8.2304,8.2304,8.2304,8.2304,8.2304,8.2304,8.2304,8.2304,8.2304,8.2304,8.2304,8.2304,8.2304,8.2304,8.2304,8.2304,8.2304,8.2304,8.2304,8.2304,8.2304,8.2304,8.2304,8.2304,8.2304,8.2304,8.2304,8.2304,8.2304,8.2304,8.2304,8.2176,8.2118,8.2264,8.2065,8.1867,8.1904,8.1909,8.1878,8.171,8.1688,8.1664,8.1645,8.1636,8.1636,8.1636,8.1582,8.1572,8.1627,8.1582,8.1543,8.1543,8.1543,8.1543,8.1543,8.1543,8.1543,8.1543,8.1418,8.1014,8.0396,8.0025,7.9477,7.8823,7.7524,7.6675,7.6322,7.6092,7.5668,7.5014,7.4822,7.4014,7.0508,7.2773,7.5312,7.8242,7.9453,8.0859,8.4414,8.5859,8.7109,8.9609,9.1445,9.2617,9.2617,9.2578,9.2265,9.1484,9.0586,8.9726,8.8945,8.8086,8.7226,8.6367,8.5508,8.4648,8.3828,8.375,8.375,8.3789,8.375,8.3711,8.3672,8.2851,8.2344,8.2304,8.2304,8.2304,8.2304,8.2304,8.2304,8.2304,8.2304,8.2304,8.2304,8.2304,8.2304,8.2304,8.2304,8.2304,8.2304,8.2304,8.2304,8.2304,8.2304,8.2304,8.2304,8.2304,8.2304,8.2304,8.2304,8.2304,8.2304,8.2304,8.2304,8.2304,8.2304,8.2304,8.2304,8.2304,8.2304,8.2304,8.2304,8.2304,8.2304,8.2304,8.2265,8.2171,8.1812,8.1742,8.1695,8.1688,8.1688,8.1653,8.1447,8.143,8.143,8.143,8.1244,8.121,8.1395,8.1269,8.1116,8.1116,8.1116,8.1116,8.1116,8.1116,8.1116,8.1116,8.1139,8.1085,8.1047,8.0262,7.9785,7.9746,7.8853,7.8006,7.7207,7.6399,7.5976,7.5899,7.5091,7.4668,6.9922,7.0586,7.164,7.6445,7.6601,7.6797,8.1367,8.3515,8.4961,8.6406,8.9414,9.1601,9.1015,9.1406,9.1836,9.2109,9.0469,8.9258,8.9492,8.8359,8.6953,8.5547,8.5078,8.4336,8.289,8.3281,8.3594,8.3594,8.2578,8.2422,8.3554,8.1719,8.1133,8.2265,8.2304,8.2304,8.2304,8.2304,8.2304,8.2304,8.2304,8.2304,8.2304,8.2304,8.2304,8.2304,8.2304,8.2304,8.2304,8.2304,8.2304,8.2304,8.2304,8.2304,8.2304,8.2304,8.2304,8.2304,8.2304,8.2304,8.2304,8.2304,8.2304,8.2304,8.2304,8.2304,8.2304,8.2304,8.2304,8.2304,8.2304,8.2218,8.2053,8.176,8.1703,8.1662,8.1371,8.1311,8.1311,8.1311,8.1311,8.1311,8.1214,8.1186,8.1186,8.1186,8.1146,8.1139,8.121,8.1146,8.1093,8.1093,8.1093,8.1093,8.1093,8.1093,8.1093,8.1093,8.1093,8.1093,8.1093,8.0785,8.0631,8.0631,7.9785,7.8669,7.7284,7.6976,7.6553,7.5976,7.5668,7.5245,6.8828,6.8828,6.9219,7.3515,7.3711,7.3906,7.793,8.1094,8.3398,8.4297,8.8125,9.1133,9.0547,9.1133,9.1719,9.1719,9.0273,8.914,8.914,8.7969,8.6523,8.5078,8.4648,8.3906,8.2422,8.2812,8.3164,8.3164,8.2109,8.1953,8.3086,8.1523,8.1094,8.2265,8.2304,8.2304,8.2304,8.2304,8.2304,8.2304,8.2304,8.2304,8.2304,8.2304,8.2304,8.2304,8.2304,8.2304,8.2304,8.2304,8.2304,8.2304,8.2304,8.2304,8.2304,8.2304,8.2304,8.2304,8.2304,8.2304,8.2304,8.2304,8.2304,8.2304,8.2304,8.2304,8.2304,8.222,8.2218,8.2175,8.212,8.1992,8.1844,8.1563,8.1447,8.1347,8.1228,8.1146,8.1093,8.1093,8.1093,8.1093,8.1093,8.1093,8.1093,8.1093,8.1093,8.1093,8.1093,8.1093,8.1093,8.1093,8.1093,8.1093,8.1093,8.1093,8.1093,8.1093,8.1093,8.1093,8.1093,8.1093,8.1093,8.1093,8.0516,7.9554,7.813,7.7553,7.6976,7.6438,7.613,7.5515,0.0,0.0,0.0,6.914,7.0625,7.2344,7.4101,7.8437,8.2344,8.3242,8.7539,9.1133,9.1133,9.1914,9.1953,9.0234,8.9961,8.9414,8.7812,8.6797,8.5898,8.5,8.414,8.3242,8.2383,8.2304,8.2304,8.2304,8.2265,8.2265,8.2304,8.2304,8.2304,8.2304,8.2304,8.2304,8.2304,8.2304,8.2304,8.2304,8.2304,8.2304,8.2304,8.2304,8.2304,8.2304,8.2304,8.2304,8.2304,8.2304,8.2304,8.2304,8.2304,8.2304,8.2304,8.2304,8.2304,8.2304,8.2304,8.2304,8.2304,8.2304,8.2304,8.2304,8.2304,8.2304,8.2263,8.2053,8.1988,8.1962,8.1732,8.1719,8.1672,8.1672,8.1573,8.1434,8.1395,8.1242,8.1131,8.1093,8.1093,8.1093,8.1093,8.1093,8.1093,8.1093,8.1093,8.1093,8.1093,8.1093,8.1093,8.1093,8.1093,8.1093,8.1093,8.1093,8.1093,8.1093,8.1093,8.1093,8.1093,8.1093,8.1093,8.1093,8.1093,8.0669,7.9823,7.8169,7.7361,7.7284,7.6399,7.5553,6.6914,0.0,0.0,0.0,0.0,0.0,7.1406,7.4336,7.7148,7.8672,8.3086,8.6875,8.75,8.9297,9.0351,8.9258,8.9609,8.9844,8.9375,8.75,8.5898,8.5,8.414,8.3242,8.2383,8.2304,8.2304,0.0,8.1133,8.0976,8.2226,8.2304,8.2304,8.2304,8.2304,8.2304,8.2304,8.2304,8.2304,8.2304,8.2304,8.2304,8.2304,8.2304,8.2304,8.2304,8.2304,8.2304,8.2304,8.2304,8.2304,8.2304,8.2304,8.2304,8.2304,8.2304,8.2304,8.2304,8.2304,8.2304,8.2304,8.2304,8.2304,8.2265,8.2122,8.2068,8.2049,8.185,8.176,8.1753,8.1695,8.16,8.1491,8.1491,8.1762,8.1875,8.1297,8.1593,8.1785,8.1208,8.1093,8.1093,8.1093,8.1093,8.1093,8.1093,8.1093,8.1093,8.1093,8.1093,8.1093,8.1093,8.1093,8.1093,8.1093,8.1093,8.1093,8.1093,8.1093,8.1093,8.1093,8.1093,8.1093,8.1093,8.1093,8.0977,8.0746,7.9631,7.8477,7.7284,7.6399,7.5861,0.0,0.0,0.0,0.0,0.0,0.0,6.9922,7.3008,7.5976,7.6992,8.1328,8.4922,8.5078,8.664,8.7812,8.7695,8.7773,8.8125,8.8867,8.7031,8.5469,8.4961,8.3828,8.2851,8.2344,8.2304,8.2304,8.2304,8.1367,8.1211,8.2265,8.2304,8.2304,8.2304,8.2304,8.2304,8.2304,8.2304,8.2304,8.2304,8.2304,8.2304,8.2304,8.2304,8.2304,8.2304,8.2304,8.2304,8.2304,8.2304,8.2304,8.2304,8.2304,8.2304,8.2304,8.2304,8.2304,8.2304,8.2304,8.2304,8.2304,8.2218,8.2173,8.2125,8.1958,8.1873,8.1844,8.1645,8.1504,8.1447,8.1447,8.1347,8.1271,8.1271,8.1528,8.167,8.1208,8.1477,8.167,8.1208,8.1093,8.1093,8.1093,8.1093,8.1093,8.1093,8.1093,8.1093,8.1093,8.1093,8.1093,8.1093,8.1093,8.1093,8.1093,8.1093,8.1093,8.1093,8.1093,8.1093,8.1093,8.1093,8.1093,8.1093,8.1093,8.1093,8.1093,8.0246,7.9131,7.7784,7.6938,7.6553,0.0,0.0,0.0,0.0,0.0,0.0,6.9335,7.2968,7.6445,7.6836,8.0625,8.3711,8.3125,8.375,8.457,8.5351,8.4844,8.5039,8.707,8.5937,8.4844,8.4648,8.3242,8.2304,8.2304,8.2304,8.2304,8.2304,8.2304,8.2304,8.2304,8.2304,8.2304,8.2304,8.2304,8.2304,8.2304,8.2304,8.2304,8.2304,8.2304,8.2304,8.2304,8.2304,8.2304,8.2304,8.2304,8.2304,8.2304,8.2304,8.2304,8.2304,8.2304,8.2304,8.2304,8.2304,8.2304,8.2304,8.2304,8.2304,8.2223,8.2059,8.1984,8.1914,8.171,8.1687,8.1597,8.1403,8.1242,8.1093,8.1093,8.1093,8.1093,8.1093,8.117,8.1208,8.1131,8.117,8.1208,8.1131,8.1093,8.1093,8.1093,8.1093,8.1093,8.1093,8.1093,8.1093,8.1093,8.1093,8.1093,8.1093,8.1093,8.1093,8.1093,8.1093,8.1093,8.1093,8.1093,8.1093,8.1093,8.1093,8.1093,8.1093,8.1093,8.1093,8.1093,8.0246,7.94,7.8631,7.7823,7.7438,0.0,0.0,0.0,0.0,0.0,0.0,6.8892,7.0038,7.1577,7.4491,7.6484,7.8047,7.9258,8.0156,8.0781,8.0937,8.082,8.207,8.5898,8.5547,8.4375,8.2969,8.25,8.2304,8.2304,8.2304,8.2304,8.2304,8.2304,8.2304,8.2304,8.2304,8.2304,8.2304,8.2304,8.2304,8.2304,8.2304,8.2304,8.2304,8.2304,8.2304,8.2304,8.2304,8.2304,8.2304,8.2304,8.2304,8.2304,8.2304,8.2304,8.2304,8.2304,8.2304,8.2304,8.2304,8.2304,8.2304,8.2304,8.2178,8.2056,8.1996,8.1883,8.1703,8.1504,8.1458,8.143,8.12,8.1116,8.1093,8.1093,8.1093,8.1093,8.1093,8.1593,8.19,8.1246,8.1593,8.1862,8.1246,8.1093,8.1093,8.1093,8.1093,8.1093,8.1093,8.1093,8.1093,8.1093,8.1093,8.1093,8.1093,8.1093,8.1093,8.1093,8.1093,8.1093,8.1093,8.1093,8.1093,8.1093,8.1093,8.1093,8.1093,8.1093,8.1093,8.1093,8.0246,7.9708,7.9515,7.8669,7.8246,0.0,0.0,0.0,6.6912,0.0,0.0,0.0,6.908,7.0195,7.2044,7.3807,7.502,7.5023,7.5751,7.6509,7.694,7.7106,7.8203,8.1289,8.2422,8.2969,8.2969,8.2578,8.2304,8.2304,8.2304,8.2304,8.2304,8.2304,8.2304,8.2304,8.2304,8.2304,8.2304,8.2304,8.2304,8.2304,8.2304,8.2304,8.2304,8.2304,8.2304,8.2304,8.2304,8.2304,8.2304,8.2304,8.2304,8.2304,8.2304,8.2304,8.2304,8.2304,8.2304,8.2304,8.2176,8.2168,8.2125,8.2049,8.1919,8.1844,8.171,8.1645,8.1494,8.1298,8.1231,8.1228,8.1116,8.1093,8.1093,8.1093,8.1093,8.1093,8.1093,8.14,8.1593,8.1208,8.14,8.1593,8.117,8.1093,8.1093,8.1093,8.1093,8.1093,8.1093,8.1093,8.1093,8.1093,8.1093,8.1093,8.1093,8.1093,8.1093,8.1093,8.1093,8.1093,8.1093,8.1093,8.1093,8.1093,8.1093,8.1093,8.1093,8.1093,8.1093,8.1093,8.0669,8.0439,8.0439,7.9554,7.9131,0.0,0.0,0.0,0.0,0.0,6.7631,0.0,0.0,0.0,7.0142,7.1868,7.2958,7.1751,7.2057,7.2707,7.3221,7.3621,7.4414,7.5976,7.8242,0.0,8.1914,8.164,8.1328,8.1328,8.1601,8.1953,8.2265,8.2304,8.2304,8.2304,8.2304,8.2304,8.2304,8.2304,8.2304,8.2304,8.2304,8.2304,8.2304,8.2304,8.2304,8.2304,8.2304,8.2304,8.2304,8.2304,8.2304,8.2304,8.2264,8.2223,8.2223,8.2223,8.2223,8.222,8.2039,8.1958,8.1904,8.1778,8.1656,8.1627,8.1447,8.1371,8.1298,8.1161,8.1093,8.1093,8.1093,8.1093,8.1093,8.1093,8.1093,8.1093,8.1093,8.1093,8.1093,8.1093,8.1093,8.1093,8.1093,8.1093,8.1093,8.1093,8.1093,8.1093,8.1093,8.1093,8.1093,8.1093,8.1093,8.1093,8.1093,8.1093,8.1093,8.1093,8.1093,8.1093,8.1093,8.1093,8.1093,8.1093,8.1093,8.1093,8.1093,8.1093,8.1093,8.1093,8.1093,8.1093,8.1093,8.04,8.0054,0.0,0.0,0.0,0.0,6.6862,0.0,0.0,0.0,6.8174,6.9869,0.0,7.0836,7.1368,0.0,0.0,6.9894,7.0535,7.1484,7.2461,7.418,7.5703,7.664,7.7383,7.7773,7.7773,7.9101,8.0625,8.2187,8.2304,8.2304,8.2304,8.2304,8.2304,8.2304,8.2304,8.2304,8.2304,8.2304,8.2304,8.2304,8.2304,8.2304,8.2304,8.2304,8.2304,8.2304,8.2304,8.2304,8.2304,8.2115,8.2046,8.2046,8.2046,8.2046,8.1996,8.1825,8.1718,8.1718,8.1695,8.1591,8.1414,8.1418,8.1285,8.1116,8.1108,8.1093,8.1093,8.1093,8.1093,8.1093,8.1093,8.1093,8.1093,8.1093,8.1093,8.1093,8.1093,8.1093,8.1093,8.1093,8.1093,8.1093,8.1093,8.1093,8.1093,8.1093,8.1093,8.1093,8.1093,8.1093,8.1093,8.1093,8.1093,8.1093,8.1093,8.1093,8.1093,8.1093,8.1093,8.1093,8.1093,8.1093,8.1093,8.1093,8.1093,8.1093,8.1093,8.1093,8.1093,8.1093,8.1016,8.0939,0.0,0.0,0.0,0.0,0.0,0.0,0.0,0.0,6.7575,0.0,0.0,0.0,0.0,0.0,0.0,0.0,7.0165,7.0876,7.1696,7.2105,7.3398,7.6328,0.0,0.0,7.8555,7.8398,7.875,8.0,8.0547,8.0586,8.0117,8.1484,8.2304,8.2304,8.2304,8.2304,8.2304,8.2304,8.2304,8.2304,8.2304,8.2304,8.2304,8.2175,8.2122,8.212,8.1996,8.1967,8.1962,8.1867,8.1837,8.1825,8.1719,8.1703,8.1819,8.1609,8.1514,8.1494,8.1395,8.1311,8.1228,8.1228,8.1152,8.1093,8.1093,8.1093,8.1093,8.1093,8.1093,8.1093,8.1093,8.1439,8.167,8.1208,8.1823,8.2401,8.19,8.217,8.2401,8.19,8.2208,8.2401,8.1862,8.14,8.1093,8.1093,8.1093,8.1093,8.1093,8.1093,8.1093,8.1093,8.1093,8.1093,8.1093,8.1093,8.1093,8.1093,8.1093,8.1093,8.1093,8.1093,8.1093,8.1093,8.1093,8.1093,8.1093,8.1093,8.1093,8.1093,8.1093,8.1093,7.2273,0.0,0.0,0.0,0.0,0.0,0.0,0.0,0.0,0.0,0.0,0.0,0.0,0.0,0.0,0.0,0.0,7.0563,0.0,7.0798,0.0,0.0,0.0,0.0,0.0,7.7617,7.7265,7.7422,7.8398,7.8672,7.7812,8.0195,8.1719,8.1953,8.2107,8.2224,8.2304,8.2263,8.2263,8.2304,8.2224,8.222,8.2219,8.1996,8.1904,8.1899,8.1746,8.1688,8.1719,8.1662,8.1627,8.1609,8.1407,8.1418,8.1504,8.1359,8.1311,8.1311,8.1161,8.1093,8.1093,8.1093,8.1093,8.1093,8.1093,8.1093,8.1131,8.1362,8.1439,8.1477,8.1708,8.2208,8.2516,8.19,8.2708,8.3439,8.2785,8.3131,8.3401,8.2785,8.2978,8.3131,8.2708,8.1977,8.1439,8.1439,8.1246,8.1093,8.1093,8.1093,8.1093,8.1093,8.1093,8.1093,8.1093,8.1093,8.1093,8.1093,8.1093,8.1093,8.1093,8.1093,8.1093,8.1093,8.1093,8.1093,8.1093,8.1093,8.1093,8.1093,8.1093,8.1093,0.0,0.0,0.0,7.1441,0.0,0.0,0.0,0.0,6.7567,0.0,0.0,0.0,0.0,0.0,0.0,0.0,0.0,0.0,0.0,0.0,0.0,0.0,0.0,0.0,0.0,7.625,7.6523,0.0,7.6328,7.6914,7.6015,7.8398,8.0156,8.1015,8.1688,8.2115,8.2304,8.2115,8.2115,8.2304,8.2115,8.1996,8.1992,8.1819,8.1695,8.1695,8.1688,8.1688,8.1664,8.1501,8.143,8.1395,8.1196,8.1124,8.1124,8.1124,8.1108,8.1108,8.1093,8.1093,8.1093,8.1093,8.1093,8.1093,8.1093,8.1093,8.1246,8.2054,8.2247,8.2439,8.3285,8.3516,8.3555,8.3516,8.3555,8.3593,8.3555,8.3555,8.3593,8.3555,8.2901,8.2593,8.3401,8.2824,8.2247,8.2247,8.1593,8.1093,8.1093,8.1093,8.1093,8.1093,8.1093,8.1093,8.1093,8.1093,8.1093,8.1093,8.1093,8.1093,8.1093,8.1093,8.1093,8.1093,8.1093,8.1093,8.1093,8.1093,8.1093,8.1093,8.1093,8.1093,0.0,0.0,7.7461,7.6753,0.0,0.0,0.0,0.0,0.0,0.0,0.0,0.0,0.0,0.0,0.0,0.0,0.0,0.0,0.0,0.0,0.0,0.0,0.0,0.0,0.0,0.0,0.0,0.0,7.2031,0.0,7.0859,7.4712,7.7388,7.8245,8.0022,8.1309,8.2074,8.2046,8.2046,8.2113,8.2046,8.1914,8.1773,8.16,8.1483,8.1473,8.1347,8.1285,8.1311,8.1228,8.1224,8.121,8.1154,8.1093,8.1093,8.1093,8.1093,8.1093,8.1093,8.1093,8.1093,8.1093,8.1093,8.1093,8.1093,8.1477,8.1939,8.2208,8.2708,8.3208,8.3516,8.4016,8.4324,8.3747,8.4439,8.5093,8.4593,8.4863,8.5093,8.4555,8.4632,8.4555,8.3747,8.3362,8.317,8.317,8.2439,8.19,8.19,8.1439,8.1093,8.1093,8.1093,8.1093,8.1093,8.1093,8.1093,8.1093,8.1093,8.1093,8.1093,8.1093,8.1093,8.1093,8.1093,8.1093,8.1093,8.1093,8.1093,8.1093,8.1093,8.1093,8.0195,8.0234,0.0,7.9375,7.7924,0.0,7.5918,0.0,0.0,0.0,0.0,0.0,0.0,0.0,0.0,0.0,0.0,0.0,0.0,6.9958,0.0,0.0,0.0,0.0,0.0,0.0,0.0,0.0,0.0,0.0,0.0,7.1792,7.5183,7.6313,7.8917,8.0824,8.1889,8.1831,8.1831,8.1889,8.1831,8.1742,8.1591,8.1383,8.1311,8.1298,8.1176,8.1093,8.1093,8.1093,8.1093,8.1093,8.1093,8.1093,8.1093,8.1093,8.1093,8.1093,8.1093,8.1093,8.1093,8.1093,8.1093,8.1093,8.1093,8.167,8.2477,8.3401,8.3862,8.4286,8.517,8.5363,8.5209,8.4632,8.5324,8.5978,8.544,8.5747,8.594,8.544,8.5517,8.544,8.4632,8.4247,8.3939,8.3632,8.2593,8.2093,8.267,8.1785,8.1208,8.1516,8.1285,8.1208,8.1516,8.1246,8.1208,8.1516,8.1246,8.1093,8.1093,8.1093,8.1516,8.2439,8.1554,8.1554,8.2439,8.1554,8.1093,8.1093,8.1093,8.1093]}]]